Time,TemperatureF,DewpointF,PressureIn,WindDirection,WindDirectionDegrees,WindSpeedMPH,WindSpeedGustMPH,Humidity,HourlyPrecipIn,Conditions,Clouds,dailyrainin,SoftwareType,DateUTC
2013-09-14 00:00:00,79.2,75.7,29.16,NW,313,5.0,5.0,89,0.00,,CLR,0.00,VWS V14.01,2013-09-14 04:00:00,
2013-09-14 00:01:00,79.2,75.7,29.16,NW,315,0.0,1.0,89,0.00,,FEW100,0.00,VWS V14.01,2013-09-14 04:01:00,
2013-09-14 00:02:00,79.2,75.7,29.16,NW,315,0.0,1.0,89,0.00,,CLR,0.00,VWS V14.01,2013-09-14 04:02:00,
2013-09-14 00:03:00,79.2,75.7,29.16,NW,315,2.0,2.0,89,0.00,,CLR,0.00,VWS V14.01,2013-09-14 04:03:00,
2013-09-14 00:04:00,79.2,75.7,29.16,NW,315,0.0,2.0,89,0.00,,CLR,0.00,VWS V14.01,2013-09-14 04:04:00,
2013-09-14 00:05:00,79.2,75.7,29.19,NW,315,2.0,2.0,89,0.00,,CLR,0.00,VWS V14.01,2013-09-14 04:05:00,
2013-09-14 00:06:00,79.2,75.7,29.19,NW,315,0.0,0.0,89,0.00,,FEW100,0.00,VWS V14.01,2013-09-14 04:06:00,
2013-09-14 00:07:00,79.2,75.7,29.19,NW,315,0.0,2.0,89,0.00,,CLR,0.00,VWS V14.01,2013-09-14 04:07:00,
2013-09-14 00:08:00,79.2,75.7,29.19,NW,315,2.0,2.0,89,0.00,,CLR,0.00,VWS V14.01,2013-09-14 04:08:00,
2013-09-14 00:09:00,79.2,75.7,29.19,NW,315,0.0,2.0,89,0.00,,CLR,0.00,VWS V14.01,2013-09-14 04:09:00,
2013-09-14 00:10:00,79.2,75.7,29.19,NW,315,1.0,1.0,89,0.00,,CLR,0.00,VWS V14.01,2013-09-14 04:10:00,
2013-09-14 00:11:00,79.0,75.5,29.17,NW,315,0.0,1.0,89,0.00,,FEW100,0.00,VWS V14.01,2013-09-14 04:11:00,
2013-09-14 00:12:00,79.2,75.7,29.15,NW,315,1.0,2.0,89,0.00,,CLR,0.00,VWS V14.01,2013-09-14 04:12:00,
2013-09-14 00:13:00,79.0,75.5,29.17,NW,315,2.0,2.0,89,0.00,,CLR,0.00,VWS V14.01,2013-09-14 04:13:00,
2013-09-14 00:14:00,79.0,75.5,29.12,NW,315,0.0,2.0,89,0.00,,CLR,0.00,VWS V14.01,2013-09-14 04:14:00,
2013-09-14 00:15:00,79.0,75.5,29.12,NW,315,0.0,2.0,89,0.00,,CLR,0.00,VWS V14.01,2013-09-14 04:15:00,
2013-09-14 00:16:00,79.0,75.5,29.12,WNW,282,1.0,3.0,89,0.00,,FEW100,0.00,VWS V14.01,2013-09-14 04:16:00,
2013-09-14 00:17:00,79.0,75.5,29.12,West,271,3.0,5.0,89,0.00,,CLR,0.00,VWS V14.01,2013-09-14 04:17:00,
2013-09-14 00:18:00,79.0,75.5,29.28,WNW,282,1.0,3.0,89,0.00,,CLR,0.00,VWS V14.01,2013-09-14 04:18:00,
2013-09-14 00:19:00,79.0,75.5,29.28,WNW,282,1.0,2.0,89,0.00,,CLR,0.00,VWS V14.01,2013-09-14 04:19:00,
2013-09-14 00:20:00,79.0,75.5,29.28,WNW,282,0.0,1.0,89,0.00,,CLR,0.00,VWS V14.01,2013-09-14 04:20:00,
2013-09-14 00:21:00,79.0,75.5,29.28,NW,321,1.0,2.0,89,0.00,,FEW100,0.00,VWS V14.01,2013-09-14 04:21:00,
2013-09-14 00:22:00,79.0,75.5,29.28,NW,321,2.0,3.0,89,0.00,,CLR,0.00,VWS V14.01,2013-09-14 04:22:00,
2013-09-14 00:23:00,79.0,75.5,29.28,NW,321,1.0,2.0,89,0.00,,CLR,0.00,VWS V14.01,2013-09-14 04:23:00,
2013-09-14 00:24:00,79.0,75.5,29.28,NW,321,0.0,1.0,89,0.00,,CLR,0.00,VWS V14.01,2013-09-14 04:24:00,
2013-09-14 00:25:00,79.0,75.5,29.28,NW,321,1.0,1.0,89,0.00,,CLR,0.00,VWS V14.01,2013-09-14 04:25:00,
2013-09-14 00:26:00,78.8,75.3,29.15,NNW,333,2.0,4.0,89,0.00,,FEW100,0.00,VWS V14.01,2013-09-14 04:26:00,
2013-09-14 00:27:00,78.8,75.3,29.15,NNW,334,4.0,4.0,89,0.00,,CLR,0.00,VWS V14.01,2013-09-14 04:27:00,
2013-09-14 00:28:00,79.0,75.5,29.15,NNW,333,1.0,4.0,89,0.00,,CLR,0.00,VWS V14.01,2013-09-14 04:28:00,
2013-09-14 00:29:00,79.0,75.5,29.21,NNW,334,2.0,3.0,89,0.00,,CLR,0.00,VWS V14.01,2013-09-14 04:29:00,
2013-09-14 00:30:00,79.0,75.5,29.21,NNW,334,2.0,2.0,89,0.00,,CLR,0.00,VWS V14.01,2013-09-14 04:30:00,
2013-09-14 00:31:00,78.8,75.3,29.21,NNW,334,0.0,0.0,89,0.00,,FEW100,0.00,VWS V14.01,2013-09-14 04:31:00,
2013-09-14 00:32:00,79.0,75.5,29.21,NNW,334,0.0,0.0,89,0.00,,CLR,0.00,VWS V14.01,2013-09-14 04:32:00,
2013-09-14 00:33:00,78.8,75.3,29.21,NNW,334,0.0,0.0,89,0.00,,CLR,0.00,VWS V14.01,2013-09-14 04:33:00,
2013-09-14 00:34:00,78.8,75.6,29.15,NNW,334,1.0,1.0,90,0.00,,CLR,0.00,VWS V14.01,2013-09-14 04:34:00,
2013-09-14 00:35:00,78.8,75.6,29.15,NNW,334,1.0,2.0,90,0.00,,CLR,0.00,VWS V14.01,2013-09-14 04:35:00,
2013-09-14 00:36:00,78.8,75.6,29.15,NNW,334,1.0,3.0,90,0.00,,OVC100,0.00,VWS V14.01,2013-09-14 04:36:00,
2013-09-14 00:37:00,78.8,75.6,29.15,NNW,334,2.0,3.0,90,0.00,,CLR,0.00,VWS V14.01,2013-09-14 04:37:00,
2013-09-14 00:38:00,78.8,75.6,29.15,NNW,334,2.0,3.0,90,0.00,,CLR,0.00,VWS V14.01,2013-09-14 04:38:00,
2013-09-14 00:39:00,78.8,75.6,29.15,NNW,334,2.0,3.0,90,0.00,,CLR,0.00,VWS V14.01,2013-09-14 04:39:00,
2013-09-14 00:40:00,78.8,75.6,29.15,NNW,334,2.0,2.0,90,0.00,,CLR,0.00,VWS V14.01,2013-09-14 04:40:00,
2013-09-14 00:41:00,78.8,75.6,29.15,NNW,334,1.0,2.0,90,0.00,,OVC100,0.00,VWS V14.01,2013-09-14 04:41:00,
2013-09-14 00:42:00,78.8,75.6,29.15,NNW,334,2.0,3.0,90,0.00,,CLR,0.00,VWS V14.01,2013-09-14 04:42:00,
2013-09-14 00:43:00,78.8,75.6,29.15,NNW,334,1.0,2.0,90,0.00,,CLR,0.00,VWS V14.01,2013-09-14 04:43:00,
2013-09-14 00:44:00,78.8,75.6,29.15,NNW,334,1.0,2.0,90,0.00,,CLR,0.00,VWS V14.01,2013-09-14 04:44:00,
2013-09-14 00:45:00,78.8,75.6,29.15,NNW,334,3.0,3.0,90,0.00,,CLR,0.00,VWS V14.01,2013-09-14 04:45:00,
2013-09-14 00:46:00,78.8,75.6,29.15,NNW,335,4.0,4.0,90,0.00,,OVC100,0.00,VWS V14.01,2013-09-14 04:46:00,
2013-09-14 00:47:00,78.8,75.6,29.15,NNW,335,3.0,4.0,90,0.00,,CLR,0.00,VWS V14.01,2013-09-14 04:47:00,
2013-09-14 00:48:00,78.8,75.6,29.19,NNW,335,4.0,4.0,90,0.00,,CLR,0.00,VWS V14.01,2013-09-14 04:48:00,
2013-09-14 00:49:00,78.6,75.4,29.19,NNW,338,3.0,4.0,90,0.00,,CLR,0.00,VWS V14.01,2013-09-14 04:49:00,
2013-09-14 00:50:00,78.6,75.4,29.19,NNW,338,2.0,3.0,90,0.00,,CLR,0.00,VWS V14.01,2013-09-14 04:50:00,
2013-09-14 00:51:00,78.6,75.4,29.13,NNW,338,3.0,3.0,90,0.00,,OVC100,0.00,VWS V14.01,2013-09-14 04:51:00,
2013-09-14 00:52:00,78.6,75.8,29.13,NNW,338,1.0,4.0,91,0.00,,CLR,0.00,VWS V14.01,2013-09-14 04:52:00,
2013-09-14 00:53:00,78.6,75.4,29.13,NNW,338,3.0,3.0,90,0.00,,CLR,0.00,VWS V14.01,2013-09-14 04:53:00,
2013-09-14 00:54:00,78.6,75.8,29.13,NNW,338,3.0,4.0,91,0.00,,CLR,0.00,VWS V14.01,2013-09-14 04:54:00,
2013-09-14 00:55:00,78.6,75.8,29.13,NNW,338,2.0,3.0,91,0.00,,CLR,0.00,VWS V14.01,2013-09-14 04:55:00,
2013-09-14 00:56:00,78.6,75.8,29.11,NW,316,2.0,4.0,91,0.00,,OVC100,0.00,VWS V14.01,2013-09-14 04:56:00,
2013-09-14 00:57:00,78.6,75.8,29.13,NW,316,4.0,4.0,91,0.00,,CLR,0.00,VWS V14.01,2013-09-14 04:57:00,
2013-09-14 00:58:00,78.6,75.8,29.11,NW,309,2.0,4.0,91,0.00,,CLR,0.00,VWS V14.01,2013-09-14 04:58:00,
2013-09-14 00:59:00,78.5,75.7,29.11,NW,309,3.0,3.0,91,0.00,,CLR,0.00,VWS V14.01,2013-09-14 04:59:00,
2013-09-14 01:00:00,78.5,75.7,29.11,NW,309,2.0,3.0,91,0.00,,CLR,0.00,VWS V14.01,2013-09-14 05:00:00,
2013-09-14 01:01:00,78.5,75.7,29.11,NW,309,2.0,2.0,91,0.00,,OVC100,0.00,VWS V14.01,2013-09-14 05:01:00,
2013-09-14 01:02:00,78.5,75.7,29.11,NW,309,0.0,3.0,91,0.00,,CLR,0.00,VWS V14.01,2013-09-14 05:02:00,
2013-09-14 01:03:00,78.5,75.7,29.11,NW,309,2.0,2.0,91,0.00,,CLR,0.00,VWS V14.01,2013-09-14 05:03:00,
2013-09-14 01:04:00,78.5,75.7,29.11,NW,309,1.0,2.0,91,0.00,,CLR,0.00,VWS V14.01,2013-09-14 05:04:00,
2013-09-14 01:05:00,78.5,75.7,29.06,NW,309,1.0,1.0,91,0.00,,CLR,0.00,VWS V14.01,2013-09-14 05:05:00,
2013-09-14 01:06:00,78.5,75.7,29.06,NW,309,2.0,2.0,91,0.00,,OVC100,0.00,VWS V14.01,2013-09-14 05:06:00,
2013-09-14 01:07:00,78.5,75.7,29.06,NW,309,1.0,3.0,91,0.00,,CLR,0.00,VWS V14.01,2013-09-14 05:07:00,
2013-09-14 01:08:00,78.5,75.7,29.06,NW,309,1.0,2.0,91,0.00,,CLR,0.00,VWS V14.01,2013-09-14 05:08:00,
2013-09-14 01:09:00,78.5,75.7,29.06,NW,309,2.0,2.0,91,0.00,,CLR,0.00,VWS V14.01,2013-09-14 05:09:00,
2013-09-14 01:10:00,78.3,75.5,29.06,NW,309,2.0,2.0,91,0.00,,CLR,0.00,VWS V14.01,2013-09-14 05:10:00,
2013-09-14 01:11:00,78.3,75.5,29.15,NW,309,1.0,2.0,91,0.00,,OVC100,0.00,VWS V14.01,2013-09-14 05:11:00,
2013-09-14 01:12:00,78.3,75.5,29.15,NW,309,2.0,3.0,91,0.00,,CLR,0.00,VWS V14.01,2013-09-14 05:12:00,
2013-09-14 01:13:00,78.3,75.5,29.15,NW,309,0.0,2.0,91,0.00,,CLR,0.00,VWS V14.01,2013-09-14 05:13:00,
2013-09-14 01:14:00,78.3,75.5,29.15,NW,309,0.0,0.0,91,0.00,,CLR,0.00,VWS V14.01,2013-09-14 05:14:00,
2013-09-14 01:15:00,78.3,75.5,29.15,NW,309,0.0,1.0,91,0.00,,CLR,0.00,VWS V14.01,2013-09-14 05:15:00,
2013-09-14 01:16:00,78.3,75.5,29.15,NW,309,3.0,3.0,91,0.00,,OVC100,0.00,VWS V14.01,2013-09-14 05:16:00,
2013-09-14 01:17:00,78.3,75.5,29.15,NW,309,2.0,3.0,91,0.00,,CLR,0.00,VWS V14.01,2013-09-14 05:17:00,
2013-09-14 01:18:00,78.3,75.5,29.15,NW,309,2.0,3.0,91,0.00,,CLR,0.00,VWS V14.01,2013-09-14 05:18:00,
2013-09-14 01:19:00,78.3,75.5,29.15,NW,309,1.0,3.0,91,0.00,,CLR,0.00,VWS V14.01,2013-09-14 05:19:00,
2013-09-14 01:20:00,78.3,75.5,29.15,NW,309,1.0,1.0,91,0.00,,CLR,0.00,VWS V14.01,2013-09-14 05:20:00,
2013-09-14 01:21:00,78.3,75.5,29.23,NW,309,1.0,2.0,91,0.00,,OVC100,0.00,VWS V14.01,2013-09-14 05:21:00,
2013-09-14 01:22:00,78.3,75.5,29.23,NW,309,0.0,2.0,91,0.00,,CLR,0.00,VWS V14.01,2013-09-14 05:22:00,
2013-09-14 01:23:00,78.3,75.5,29.23,NW,309,2.0,2.0,91,0.00,,CLR,0.00,VWS V14.01,2013-09-14 05:23:00,
2013-09-14 01:24:00,78.3,75.5,29.23,NW,309,1.0,2.0,91,0.00,,CLR,0.00,VWS V14.01,2013-09-14 05:24:00,
2013-09-14 01:25:00,78.3,75.5,29.23,NW,309,2.0,2.0,91,0.00,,CLR,0.00,VWS V14.01,2013-09-14 05:25:00,
2013-09-14 01:26:00,78.1,75.3,29.16,NW,309,1.0,1.0,91,0.00,,OVC100,0.00,VWS V14.01,2013-09-14 05:26:00,
2013-09-14 01:27:00,78.1,75.3,29.16,NW,309,1.0,1.0,91,0.00,,CLR,0.00,VWS V14.01,2013-09-14 05:27:00,
2013-09-14 01:28:00,78.1,75.3,29.16,NW,309,1.0,1.0,91,0.00,,CLR,0.00,VWS V14.01,2013-09-14 05:28:00,
2013-09-14 01:29:00,78.1,75.3,29.16,NW,309,0.0,1.0,91,0.00,,CLR,0.00,VWS V14.01,2013-09-14 05:29:00,
2013-09-14 01:31:00,78.1,75.6,29.16,NW,309,2.0,2.0,92,0.00,,OVC100,0.00,VWS V14.01,2013-09-14 05:31:00,
2013-09-14 01:32:00,78.1,75.6,29.16,NW,309,1.0,2.0,92,0.00,,CLR,0.00,VWS V14.01,2013-09-14 05:32:00,
2013-09-14 01:33:00,78.1,75.6,29.16,NW,309,1.0,2.0,92,0.00,,CLR,0.00,VWS V14.01,2013-09-14 05:33:00,
2013-09-14 01:34:00,78.1,75.6,29.16,NW,309,1.0,2.0,92,0.00,,CLR,0.00,VWS V14.01,2013-09-14 05:34:00,
2013-09-14 01:35:00,78.1,75.6,29.16,NW,309,3.0,3.0,92,0.00,,CLR,0.00,VWS V14.01,2013-09-14 05:35:00,
2013-09-14 01:36:00,78.1,75.6,29.14,NW,309,1.0,2.0,92,0.00,,FEW090,0.00,VWS V14.01,2013-09-14 05:36:00,
2013-09-14 01:37:00,78.1,75.6,29.16,NW,309,1.0,2.0,92,0.00,,CLR,0.00,VWS V14.01,2013-09-14 05:37:00,
2013-09-14 01:38:00,78.1,75.6,29.14,NW,309,2.0,2.0,92,0.00,,CLR,0.00,VWS V14.01,2013-09-14 05:38:00,
2013-09-14 01:39:00,78.1,75.6,29.14,NW,309,1.0,2.0,92,0.00,,CLR,0.00,VWS V14.01,2013-09-14 05:39:00,
2013-09-14 01:40:00,77.9,75.4,29.14,NW,309,2.0,2.0,92,0.00,,CLR,0.00,VWS V14.01,2013-09-14 05:40:00,
2013-09-14 01:41:00,77.9,75.4,29.18,NW,309,2.0,2.0,92,0.00,,FEW090,0.00,VWS V14.01,2013-09-14 05:41:00,
2013-09-14 01:42:00,77.9,75.4,29.18,NW,309,2.0,2.0,92,0.00,,CLR,0.00,VWS V14.01,2013-09-14 05:42:00,
2013-09-14 01:43:00,77.9,75.4,29.18,NW,309,3.0,3.0,92,0.00,,CLR,0.00,VWS V14.01,2013-09-14 05:43:00,
2013-09-14 01:44:00,77.9,75.4,29.18,NW,309,1.0,3.0,92,0.00,,CLR,0.00,VWS V14.01,2013-09-14 05:44:00,
2013-09-14 01:45:00,77.9,75.4,29.18,NW,309,1.0,3.0,92,0.00,,CLR,0.00,VWS V14.01,2013-09-14 05:45:00,
2013-09-14 01:46:00,77.9,75.4,29.18,NW,309,2.0,2.0,92,0.00,,FEW090,0.00,VWS V14.01,2013-09-14 05:46:00,
2013-09-14 01:47:00,77.9,75.4,29.18,NW,309,1.0,2.0,92,0.00,,CLR,0.00,VWS V14.01,2013-09-14 05:47:00,
2013-09-14 01:48:00,77.9,75.4,29.18,NW,309,2.0,2.0,92,0.00,,CLR,0.00,VWS V14.01,2013-09-14 05:48:00,
2013-09-14 01:49:00,77.9,75.4,29.18,NW,313,3.0,4.0,92,0.00,,CLR,0.00,VWS V14.01,2013-09-14 05:49:00,
2013-09-14 01:50:00,77.7,75.2,29.18,WNW,292,2.0,4.0,92,0.00,,CLR,0.00,VWS V14.01,2013-09-14 05:50:00,
2013-09-14 01:51:00,77.7,75.5,29.14,NW,304,2.0,3.0,93,0.00,,FEW090,0.00,VWS V14.01,2013-09-14 05:51:00,
2013-09-14 01:52:00,77.7,75.2,29.14,NW,304,3.0,3.0,92,0.00,,CLR,0.00,VWS V14.01,2013-09-14 05:52:00,
2013-09-14 01:53:00,77.7,75.5,29.14,NW,304,1.0,3.0,93,0.00,,CLR,0.00,VWS V14.01,2013-09-14 05:53:00,
2013-09-14 01:54:00,77.7,75.5,29.15,NW,305,4.0,4.0,93,0.00,,CLR,0.00,VWS V14.01,2013-09-14 05:54:00,
2013-09-14 01:55:00,77.7,75.5,29.17,NW,306,2.0,4.0,93,0.00,,CLR,0.00,VWS V14.01,2013-09-14 05:55:00,
2013-09-14 01:56:00,77.7,75.5,29.17,NW,306,1.0,3.0,93,0.00,,FEW090,0.00,VWS V14.01,2013-09-14 05:56:00,
2013-09-14 01:57:00,77.7,75.5,29.17,NW,306,3.0,3.0,93,0.00,,CLR,0.00,VWS V14.01,2013-09-14 05:57:00,
2013-09-14 01:58:00,77.7,75.5,29.17,NW,306,1.0,3.0,93,0.00,,CLR,0.00,VWS V14.01,2013-09-14 05:58:00,
2013-09-14 01:59:00,77.7,75.5,29.17,NW,306,0.0,1.0,93,0.00,,CLR,0.00,VWS V14.01,2013-09-14 05:59:00,
2013-09-14 02:00:00,77.7,75.5,29.17,NW,306,0.0,2.0,93,0.00,,CLR,0.00,VWS V14.01,2013-09-14 06:00:00,
2013-09-14 02:01:00,77.7,75.5,29.22,NW,306,2.0,2.0,93,0.00,,FEW090,0.00,VWS V14.01,2013-09-14 06:01:00,
2013-09-14 02:02:00,77.7,75.5,29.22,NW,306,2.0,2.0,93,0.00,,CLR,0.00,VWS V14.01,2013-09-14 06:02:00,
2013-09-14 02:03:00,77.7,75.5,29.22,NW,306,3.0,3.0,93,0.00,,CLR,0.00,VWS V14.01,2013-09-14 06:03:00,
2013-09-14 02:04:00,77.6,75.4,29.22,NW,306,2.0,3.0,93,0.00,,CLR,0.00,VWS V14.01,2013-09-14 06:04:00,
2013-09-14 02:05:00,77.6,75.4,29.22,NW,323,4.0,4.0,93,0.00,,CLR,0.00,VWS V14.01,2013-09-14 06:05:00,
2013-09-14 02:06:00,77.6,75.4,29.25,NNW,327,2.0,4.0,93,0.00,,FEW090,0.00,VWS V14.01,2013-09-14 06:06:00,
2013-09-14 02:07:00,77.6,75.4,29.25,NNW,327,3.0,3.0,93,0.00,,CLR,0.00,VWS V14.01,2013-09-14 06:07:00,
2013-09-14 02:08:00,77.6,75.4,29.25,NNW,327,1.0,4.0,93,0.00,,CLR,0.00,VWS V14.01,2013-09-14 06:08:00,
2013-09-14 02:09:00,77.6,75.4,29.25,NNW,327,3.0,3.0,93,0.00,,CLR,0.00,VWS V14.01,2013-09-14 06:09:00,
2013-09-14 02:10:00,77.6,75.4,29.11,NNW,327,1.0,3.0,93,0.00,,CLR,0.00,VWS V14.01,2013-09-14 06:10:00,
2013-09-14 02:11:00,77.6,75.4,29.11,NNW,327,1.0,3.0,93,0.00,,FEW090,0.00,VWS V14.01,2013-09-14 06:11:00,
2013-09-14 02:12:00,77.6,75.4,29.11,NNW,327,3.0,3.0,93,0.00,,CLR,0.00,VWS V14.01,2013-09-14 06:12:00,
2013-09-14 02:13:00,77.6,75.4,29.11,NNW,327,3.0,3.0,93,0.00,,CLR,0.00,VWS V14.01,2013-09-14 06:13:00,
2013-09-14 02:14:00,77.6,75.4,29.00,NNW,327,2.0,3.0,93,0.00,,CLR,0.00,VWS V14.01,2013-09-14 06:14:00,
2013-09-14 02:15:00,77.6,75.4,29.00,NNW,327,3.0,3.0,93,0.00,,CLR,0.00,VWS V14.01,2013-09-14 06:15:00,
2013-09-14 02:16:00,77.4,75.2,29.17,NNW,327,3.0,3.0,93,0.00,,FEW090,0.00,VWS V14.01,2013-09-14 06:16:00,
2013-09-14 02:17:00,77.4,75.2,29.17,NNW,327,2.0,3.0,93,0.00,,CLR,0.00,VWS V14.01,2013-09-14 06:17:00,
2013-09-14 02:18:00,77.4,75.2,29.17,NNW,327,1.0,3.0,93,0.00,,CLR,0.00,VWS V14.01,2013-09-14 06:18:00,
2013-09-14 02:19:00,77.4,75.2,29.17,NNW,327,2.0,2.0,93,0.00,,CLR,0.00,VWS V14.01,2013-09-14 06:19:00,
2013-09-14 02:20:00,77.4,75.2,29.17,NNW,327,1.0,3.0,93,0.00,,CLR,0.00,VWS V14.01,2013-09-14 06:20:00,
2013-09-14 02:21:00,77.4,75.5,29.17,NNW,327,0.0,0.0,94,0.00,,FEW090,0.00,VWS V14.01,2013-09-14 06:21:00,
2013-09-14 02:22:00,77.4,75.5,29.17,NNW,327,0.0,3.0,94,0.00,,CLR,0.00,VWS V14.01,2013-09-14 06:22:00,
2013-09-14 02:23:00,77.4,75.2,29.17,NNW,327,0.0,0.0,93,0.00,,CLR,0.00,VWS V14.01,2013-09-14 06:23:00,
2013-09-14 02:24:00,77.4,75.5,29.17,NNW,327,0.0,0.0,94,0.00,,CLR,0.00,VWS V14.01,2013-09-14 06:24:00,
2013-09-14 02:25:00,77.4,75.5,29.17,NNW,327,0.0,0.0,94,0.00,,CLR,0.00,VWS V14.01,2013-09-14 06:25:00,
2013-09-14 02:26:00,77.4,75.5,29.17,NNW,327,1.0,1.0,94,0.00,,FEW090,0.00,VWS V14.01,2013-09-14 06:26:00,
2013-09-14 02:27:00,77.4,75.5,29.17,NNW,327,1.0,2.0,94,0.00,,CLR,0.00,VWS V14.01,2013-09-14 06:27:00,
2013-09-14 02:28:00,77.4,75.5,29.17,NNW,327,2.0,2.0,94,0.00,,CLR,0.00,VWS V14.01,2013-09-14 06:28:00,
2013-09-14 02:29:00,77.4,75.5,29.17,NNW,327,1.0,3.0,94,0.00,,CLR,0.00,VWS V14.01,2013-09-14 06:29:00,
2013-09-14 02:30:00,77.4,75.5,29.17,NNW,327,1.0,3.0,94,0.00,,CLR,0.00,VWS V14.01,2013-09-14 06:30:00,
2013-09-14 02:31:00,77.4,75.5,28.95,NNW,329,1.0,3.0,94,0.00,,FEW090,0.00,VWS V14.01,2013-09-14 06:31:00,
2013-09-14 02:32:00,77.4,75.5,28.95,NNW,329,3.0,3.0,94,0.00,,CLR,0.00,VWS V14.01,2013-09-14 06:32:00,
2013-09-14 02:33:00,77.4,75.5,28.95,NNW,328,3.0,3.0,94,0.00,,CLR,0.00,VWS V14.01,2013-09-14 06:33:00,
2013-09-14 02:34:00,77.4,75.5,28.95,NNW,328,2.0,3.0,94,0.00,,CLR,0.00,VWS V14.01,2013-09-14 06:34:00,
2013-09-14 02:35:00,77.4,75.5,28.95,NNW,328,3.0,3.0,94,0.00,,CLR,0.00,VWS V14.01,2013-09-14 06:35:00,
2013-09-14 02:36:00,77.4,75.5,28.95,NNW,328,2.0,3.0,94,0.00,,CLR,0.00,VWS V14.01,2013-09-14 06:36:00,
2013-09-14 02:37:00,77.4,75.5,28.95,NNW,328,2.0,3.0,94,0.00,,CLR,0.00,VWS V14.01,2013-09-14 06:37:00,
2013-09-14 02:38:00,77.4,75.5,28.95,NNW,328,3.0,4.0,94,0.00,,CLR,0.00,VWS V14.01,2013-09-14 06:38:00,
2013-09-14 02:39:00,77.2,75.3,28.95,NNW,331,3.0,4.0,94,0.00,,CLR,0.00,VWS V14.01,2013-09-14 06:39:00,
2013-09-14 02:40:00,77.2,75.3,28.95,NNW,327,3.0,4.0,94,0.00,,CLR,0.00,VWS V14.01,2013-09-14 06:40:00,
2013-09-14 02:41:00,77.2,75.3,28.95,NNW,327,1.0,2.0,94,0.00,,CLR,0.00,VWS V14.01,2013-09-14 06:41:00,
2013-09-14 02:42:00,77.2,75.3,28.95,NNW,327,2.0,3.0,94,0.00,,CLR,0.00,VWS V14.01,2013-09-14 06:42:00,
2013-09-14 02:43:00,77.2,75.3,28.95,NNW,327,2.0,2.0,94,0.00,,CLR,0.00,VWS V14.01,2013-09-14 06:43:00,
2013-09-14 02:44:00,77.2,75.3,28.95,NNW,327,2.0,2.0,94,0.00,,CLR,0.00,VWS V14.01,2013-09-14 06:44:00,
2013-09-14 02:45:00,77.2,75.3,28.95,NNW,327,1.0,2.0,94,0.00,,CLR,0.00,VWS V14.01,2013-09-14 06:45:00,
2013-09-14 02:46:00,77.2,75.7,28.95,NNW,327,1.0,2.0,95,0.00,,CLR,0.00,VWS V14.01,2013-09-14 06:46:00,
2013-09-14 02:47:00,77.2,75.3,28.95,NNW,327,2.0,2.0,94,0.00,,CLR,0.00,VWS V14.01,2013-09-14 06:47:00,
2013-09-14 02:48:00,77.2,75.7,28.95,NNW,327,2.0,2.0,95,0.00,,CLR,0.00,VWS V14.01,2013-09-14 06:48:00,
2013-09-14 02:49:00,77.2,75.3,28.97,NNW,327,2.0,2.0,94,0.00,,CLR,0.00,VWS V14.01,2013-09-14 06:49:00,
2013-09-14 02:50:00,77.2,75.7,28.97,NW,326,3.0,3.0,95,0.00,,CLR,0.00,VWS V14.01,2013-09-14 06:50:00,
2013-09-14 02:51:00,77.2,75.7,28.97,NNW,327,3.0,3.0,95,0.00,,CLR,0.00,VWS V14.01,2013-09-14 06:51:00,
2013-09-14 02:52:00,77.2,75.7,28.97,NNW,327,3.0,3.0,95,0.00,,CLR,0.00,VWS V14.01,2013-09-14 06:52:00,
2013-09-14 02:53:00,77.2,75.7,28.97,NNW,327,3.0,3.0,95,0.00,,CLR,0.00,VWS V14.01,2013-09-14 06:53:00,
2013-09-14 02:54:00,77.2,75.7,28.97,NNW,327,1.0,3.0,95,0.00,,CLR,0.00,VWS V14.01,2013-09-14 06:54:00,
2013-09-14 02:55:00,77.2,75.7,28.97,NW,325,4.0,4.0,95,0.00,,CLR,0.00,VWS V14.01,2013-09-14 06:55:00,
2013-09-14 02:56:00,77.2,75.7,28.97,NW,321,4.0,4.0,95,0.00,,CLR,0.00,VWS V14.01,2013-09-14 06:56:00,
2013-09-14 02:57:00,77.2,75.7,28.97,NW,325,2.0,6.0,95,0.00,,CLR,0.00,VWS V14.01,2013-09-14 06:57:00,
2013-09-14 02:58:00,77.2,75.7,28.97,NW,321,3.0,4.0,95,0.00,,CLR,0.00,VWS V14.01,2013-09-14 06:58:00,
2013-09-14 02:59:00,77.0,75.5,28.97,NW,319,3.0,5.0,95,0.00,,CLR,0.00,VWS V14.01,2013-09-14 06:59:00,
2013-09-14 03:00:00,77.0,75.5,28.97,NW,317,5.0,5.0,95,0.00,,CLR,0.00,VWS V14.01,2013-09-14 07:00:00,
2013-09-14 03:01:00,77.0,75.5,28.97,NW,315,2.0,3.0,95,0.00,,CLR,0.00,VWS V14.01,2013-09-14 07:01:00,
2013-09-14 03:02:00,77.0,75.5,28.97,NW,315,3.0,3.0,95,0.00,,CLR,0.00,VWS V14.01,2013-09-14 07:02:00,
2013-09-14 03:03:00,77.0,75.5,28.97,NW,319,6.0,6.0,95,0.00,,CLR,0.00,VWS V14.01,2013-09-14 07:03:00,
2013-09-14 03:04:00,77.0,75.5,28.97,WNW,292,3.0,6.0,95,0.00,,CLR,0.00,VWS V14.01,2013-09-14 07:04:00,
2013-09-14 03:05:00,77.0,75.5,28.97,WNW,300,4.0,4.0,95,0.00,,CLR,0.00,VWS V14.01,2013-09-14 07:05:00,
2013-09-14 03:06:00,77.0,75.5,28.97,NW,305,4.0,4.0,95,0.00,,CLR,0.00,VWS V14.01,2013-09-14 07:06:00,
2013-09-14 03:07:00,77.0,75.5,28.97,NW,304,3.0,3.0,95,0.00,,CLR,0.00,VWS V14.01,2013-09-14 07:07:00,
2013-09-14 03:08:00,77.0,75.5,28.97,NW,323,3.0,4.0,95,0.00,,CLR,0.00,VWS V14.01,2013-09-14 07:08:00,
2013-09-14 03:09:00,77.0,75.5,28.97,NW,323,1.0,3.0,95,0.00,,CLR,0.00,VWS V14.01,2013-09-14 07:09:00,
2013-09-14 03:10:00,77.0,75.5,28.97,NW,324,2.0,4.0,95,0.00,,CLR,0.00,VWS V14.01,2013-09-14 07:10:00,
2013-09-14 03:11:00,77.0,75.5,28.97,NNW,331,4.0,4.0,95,0.00,,CLR,0.00,VWS V14.01,2013-09-14 07:11:00,
2013-09-14 03:12:00,77.0,75.5,28.97,NNW,336,2.0,3.0,95,0.00,,CLR,0.00,VWS V14.01,2013-09-14 07:12:00,
2013-09-14 03:13:00,77.0,75.5,28.97,NW,312,3.0,5.0,95,0.00,,CLR,0.00,VWS V14.01,2013-09-14 07:13:00,
2013-09-14 03:14:00,77.0,75.5,28.97,NW,319,4.0,4.0,95,0.00,,CLR,0.00,VWS V14.01,2013-09-14 07:14:00,
2013-09-14 03:15:00,76.8,75.3,28.97,NNW,327,4.0,4.0,95,0.00,,CLR,0.00,VWS V14.01,2013-09-14 07:15:00,
2013-09-14 03:16:00,76.8,75.3,28.97,NNW,331,3.0,3.0,95,0.00,,CLR,0.00,VWS V14.01,2013-09-14 07:16:00,
2013-09-14 03:17:00,76.8,75.3,28.97,NNW,331,2.0,3.0,95,0.00,,CLR,0.00,VWS V14.01,2013-09-14 07:17:00,
2013-09-14 03:18:00,76.8,75.3,28.97,NNW,331,3.0,3.0,95,0.00,,CLR,0.00,VWS V14.01,2013-09-14 07:18:00,
2013-09-14 03:19:00,76.8,75.3,28.97,NNW,331,3.0,3.0,95,0.00,,CLR,0.00,VWS V14.01,2013-09-14 07:19:00,
2013-09-14 03:20:00,76.8,75.3,29.40,NNW,331,1.0,3.0,95,0.00,,CLR,0.00,VWS V14.01,2013-09-14 07:20:00,
2013-09-14 03:21:00,76.8,75.3,29.40,NNW,330,3.0,4.0,95,0.00,,CLR,0.00,VWS V14.01,2013-09-14 07:21:00,
2013-09-14 03:22:00,76.8,75.3,29.40,NNW,330,4.0,4.0,95,0.00,,CLR,0.00,VWS V14.01,2013-09-14 07:22:00,
2013-09-14 03:23:00,76.8,75.6,29.29,NNW,330,3.0,4.0,96,0.00,,CLR,0.00,VWS V14.01,2013-09-14 07:23:00,
2013-09-14 03:24:00,76.8,75.3,29.29,NNW,330,2.0,3.0,95,0.00,,CLR,0.00,VWS V14.01,2013-09-14 07:24:00,
2013-09-14 03:25:00,76.8,75.6,29.29,NNW,329,3.0,3.0,96,0.00,,CLR,0.00,VWS V14.01,2013-09-14 07:25:00,
2013-09-14 03:26:00,76.8,75.6,29.29,NNW,333,2.0,4.0,96,0.00,,CLR,0.00,VWS V14.01,2013-09-14 07:26:00,
2013-09-14 03:27:00,76.8,75.6,29.29,NNW,333,4.0,4.0,96,0.00,,CLR,0.00,VWS V14.01,2013-09-14 07:27:00,
2013-09-14 03:28:00,76.8,75.6,29.29,NNW,340,3.0,4.0,96,0.00,,CLR,0.00,VWS V14.01,2013-09-14 07:28:00,
2013-09-14 03:29:00,76.8,75.6,29.47,NW,316,4.0,4.0,96,0.00,,CLR,0.00,VWS V14.01,2013-09-14 07:29:00,
2013-09-14 03:30:00,76.8,75.6,29.47,NW,321,1.0,4.0,96,0.00,,CLR,0.00,VWS V14.01,2013-09-14 07:30:00,
2013-09-14 03:31:00,76.8,75.6,29.22,NNW,334,3.0,4.0,96,0.00,,CLR,0.00,VWS V14.01,2013-09-14 07:31:00,
2013-09-14 03:32:00,76.8,75.6,29.22,NNW,334,4.0,5.0,96,0.00,,CLR,0.00,VWS V14.01,2013-09-14 07:32:00,
2013-09-14 03:33:00,76.8,75.6,29.22,NNW,334,3.0,4.0,96,0.00,,CLR,0.00,VWS V14.01,2013-09-14 07:33:00,
2013-09-14 03:34:00,76.8,75.6,29.22,NW,309,2.0,4.0,96,0.00,,CLR,0.00,VWS V14.01,2013-09-14 07:34:00,
2013-09-14 03:35:00,76.8,75.6,29.22,NW,319,2.0,2.0,96,0.00,,CLR,0.00,VWS V14.01,2013-09-14 07:35:00,
2013-09-14 03:36:00,76.8,75.6,29.22,NNW,342,2.0,4.0,96,0.00,,CLR,0.00,VWS V14.01,2013-09-14 07:36:00,
2013-09-14 03:37:00,76.8,75.6,29.22,NNW,343,4.0,6.0,96,0.00,,CLR,0.00,VWS V14.01,2013-09-14 07:37:00,
2013-09-14 03:38:00,76.8,75.6,29.22,NNW,342,2.0,4.0,96,0.00,,CLR,0.00,VWS V14.01,2013-09-14 07:38:00,
2013-09-14 03:39:00,76.8,75.6,29.22,NNW,330,3.0,5.0,96,0.00,,CLR,0.00,VWS V14.01,2013-09-14 07:39:00,
2013-09-14 03:40:00,76.8,75.6,29.22,NW,317,5.0,5.0,96,0.00,,CLR,0.00,VWS V14.01,2013-09-14 07:40:00,
2013-09-14 03:41:00,76.8,75.6,29.22,NW,323,2.0,2.0,96,0.00,,CLR,0.00,VWS V14.01,2013-09-14 07:41:00,
2013-09-14 03:42:00,76.8,75.6,29.22,NW,323,2.0,4.0,96,0.00,,CLR,0.00,VWS V14.01,2013-09-14 07:42:00,
2013-09-14 03:43:00,76.8,75.6,29.22,NW,323,2.0,2.0,96,0.00,,CLR,0.00,VWS V14.01,2013-09-14 07:43:00,
2013-09-14 03:44:00,76.8,75.6,29.22,NNW,328,2.0,3.0,96,0.00,,CLR,0.00,VWS V14.01,2013-09-14 07:44:00,
2013-09-14 03:45:00,76.8,75.6,29.22,NNW,328,4.0,4.0,96,0.00,,CLR,0.00,VWS V14.01,2013-09-14 07:45:00,
2013-09-14 03:46:00,76.8,75.6,29.22,NNW,329,3.0,3.0,96,0.00,,CLR,0.00,VWS V14.01,2013-09-14 07:46:00,
2013-09-14 03:47:00,76.8,75.6,29.22,NNW,328,2.0,3.0,96,0.00,,CLR,0.00,VWS V14.01,2013-09-14 07:47:00,
2013-09-14 03:48:00,76.8,75.6,29.22,NNW,336,4.0,5.0,96,0.00,,CLR,0.00,VWS V14.01,2013-09-14 07:48:00,
2013-09-14 03:49:00,76.8,75.6,29.22,NW,326,4.0,6.0,96,0.00,,CLR,0.00,VWS V14.01,2013-09-14 07:49:00,
2013-09-14 03:50:00,76.8,75.6,29.22,NW,326,4.0,5.0,96,0.00,,CLR,0.00,VWS V14.01,2013-09-14 07:50:00,
2013-09-14 03:51:00,77.0,75.8,29.22,NNW,327,5.0,5.0,96,0.00,,CLR,0.00,VWS V14.01,2013-09-14 07:51:00,
2013-09-14 03:52:00,76.8,75.6,29.22,NNW,327,5.0,5.0,96,0.00,,CLR,0.00,VWS V14.01,2013-09-14 07:52:00,
2013-09-14 03:53:00,77.0,76.1,29.22,NNW,344,6.0,6.0,97,0.00,,CLR,0.00,VWS V14.01,2013-09-14 07:53:00,
2013-09-14 03:54:00,77.0,76.1,29.22,NW,324,3.0,6.0,97,0.00,,CLR,0.00,VWS V14.01,2013-09-14 07:54:00,
2013-09-14 03:55:00,77.0,76.1,29.22,NNW,330,5.0,6.0,97,0.00,,CLR,0.00,VWS V14.01,2013-09-14 07:55:00,
2013-09-14 03:56:00,77.0,76.1,29.15,NW,313,1.0,3.0,97,0.00,,CLR,0.00,VWS V14.01,2013-09-14 07:56:00,
2013-09-14 03:57:00,77.0,76.1,29.17,NW,313,3.0,6.0,97,0.00,,CLR,0.00,VWS V14.01,2013-09-14 07:57:00,
2013-09-14 03:58:00,77.0,76.1,29.15,NNW,331,5.0,7.0,97,0.00,,CLR,0.00,VWS V14.01,2013-09-14 07:58:00,
2013-09-14 03:59:00,77.0,76.1,29.15,NNW,344,3.0,5.0,97,0.00,,CLR,0.00,VWS V14.01,2013-09-14 07:59:00,
2013-09-14 04:00:00,77.0,76.1,29.15,NNW,327,3.0,5.0,97,0.00,,CLR,0.00,VWS V14.01,2013-09-14 08:00:00,
2013-09-14 04:01:00,77.0,76.1,29.15,NNW,331,2.0,6.0,97,0.00,,CLR,0.00,VWS V14.01,2013-09-14 08:01:00,
2013-09-14 04:02:00,77.0,76.1,29.15,NW,315,6.0,8.0,97,0.00,,CLR,0.00,VWS V14.01,2013-09-14 08:02:00,
2013-09-14 04:03:00,77.0,76.1,29.15,North,360,4.0,6.0,97,0.00,,CLR,0.00,VWS V14.01,2013-09-14 08:03:00,
2013-09-14 04:04:00,77.0,76.1,29.15,North,5,3.0,10.0,97,0.00,,CLR,0.00,VWS V14.01,2013-09-14 08:04:00,
2013-09-14 04:05:00,77.2,76.3,29.15,NNW,329,10.0,10.0,97,0.00,,CLR,0.00,VWS V14.01,2013-09-14 08:05:00,
2013-09-14 04:06:00,77.2,76.3,29.42,NNW,333,5.0,5.0,97,0.00,,CLR,0.00,VWS V14.01,2013-09-14 08:06:00,
2013-09-14 04:07:00,77.2,76.3,29.15,NNE,19,3.0,4.0,97,0.00,,CLR,0.00,VWS V14.01,2013-09-14 08:07:00,
2013-09-14 04:08:00,77.2,76.3,29.42,WNW,292,5.0,6.0,97,0.00,,CLR,0.00,VWS V14.01,2013-09-14 08:08:00,
2013-09-14 04:09:00,77.2,76.3,29.42,NNW,344,5.0,7.0,97,0.00,,CLR,0.00,VWS V14.01,2013-09-14 08:09:00,
2013-09-14 04:10:00,77.2,76.3,29.42,North,349,5.0,9.0,97,0.00,,CLR,0.00,VWS V14.01,2013-09-14 08:10:00,
2013-09-14 04:11:00,77.0,75.8,29.42,NNE,24,2.0,3.0,96,0.00,,CLR,0.00,VWS V14.01,2013-09-14 08:11:00,
2013-09-14 04:12:00,77.0,75.8,29.42,NNE,17,3.0,5.0,96,0.00,,CLR,0.00,VWS V14.01,2013-09-14 08:12:00,
2013-09-14 04:13:00,77.0,75.8,29.42,NNE,26,2.0,3.0,96,0.00,,CLR,0.00,VWS V14.01,2013-09-14 08:13:00,
2013-09-14 04:14:00,77.0,75.8,29.42,North,5,3.0,6.0,96,0.00,,CLR,0.00,VWS V14.01,2013-09-14 08:14:00,
2013-09-14 04:15:00,77.0,75.8,29.42,NE,40,4.0,5.0,96,0.00,,CLR,0.00,VWS V14.01,2013-09-14 08:15:00,
2013-09-14 04:16:00,76.8,75.6,29.29,NE,35,2.0,2.0,96,0.00,,CLR,0.00,VWS V14.01,2013-09-14 08:16:00,
2013-09-14 04:17:00,76.8,75.6,29.27,NNE,22,1.0,6.0,96,0.00,,CLR,0.00,VWS V14.01,2013-09-14 08:17:00,
2013-09-14 04:18:00,76.7,75.5,29.29,North,355,5.0,6.0,96,0.00,,CLR,0.00,VWS V14.01,2013-09-14 08:18:00,
2013-09-14 04:19:00,76.7,75.5,29.29,North,11,2.0,5.0,96,0.00,,CLR,0.00,VWS V14.01,2013-09-14 08:19:00,
2013-09-14 04:20:00,76.7,75.5,29.29,NE,39,4.0,4.0,96,0.00,,CLR,0.00,VWS V14.01,2013-09-14 08:20:00,
2013-09-14 04:21:00,76.7,75.2,29.27,ENE,58,3.0,3.0,95,0.00,,CLR,0.00,VWS V14.01,2013-09-14 08:21:00,
2013-09-14 04:22:00,76.7,75.5,29.27,ENE,57,2.0,6.0,96,0.00,,CLR,0.00,VWS V14.01,2013-09-14 08:22:00,
2013-09-14 04:23:00,76.5,75.0,29.27,NE,46,4.0,4.0,95,0.00,,CLR,0.00,VWS V14.01,2013-09-14 08:23:00,
2013-09-14 04:24:00,76.5,75.0,29.27,WNW,300,3.0,10.0,95,0.00,,CLR,0.00,VWS V14.01,2013-09-14 08:24:00,
2013-09-14 04:25:00,76.5,75.0,29.27,ENE,63,5.0,6.0,95,0.00,,CLR,0.00,VWS V14.01,2013-09-14 08:25:00,
2013-09-14 04:26:00,76.3,74.4,29.27,ENE,77,6.0,6.0,94,0.00,,CLR,0.00,VWS V14.01,2013-09-14 08:26:00,
2013-09-14 04:27:00,76.3,74.4,29.27,ENE,59,4.0,6.0,94,0.00,,CLR,0.00,VWS V14.01,2013-09-14 08:27:00,
2013-09-14 04:28:00,76.1,74.2,29.27,NE,53,2.0,6.0,94,0.00,,CLR,0.00,VWS V14.01,2013-09-14 08:28:00,
2013-09-14 04:29:00,76.1,74.2,29.27,NNE,13,3.0,8.0,94,0.00,,CLR,0.00,VWS V14.01,2013-09-14 08:29:00,
2013-09-14 04:30:00,76.1,74.2,29.27,NNE,29,5.0,13.0,94,0.00,,CLR,0.00,VWS V14.01,2013-09-14 08:30:00,
2013-09-14 04:31:00,76.0,73.8,29.35,NE,50,9.0,9.0,93,0.00,,CLR,0.00,VWS V14.01,2013-09-14 08:31:00,
2013-09-14 04:32:00,76.0,74.2,29.35,NE,51,6.0,7.0,94,0.00,,CLR,0.00,VWS V14.01,2013-09-14 08:32:00,
2013-09-14 04:33:00,75.8,73.6,29.35,ENE,70,6.0,9.0,93,0.00,,CLR,0.00,VWS V14.01,2013-09-14 08:33:00,
2013-09-14 04:34:00,75.6,73.1,29.35,ENE,63,7.0,10.0,92,0.00,,CLR,0.00,VWS V14.01,2013-09-14 08:34:00,
2013-09-14 04:35:00,75.6,72.8,29.35,ENE,57,3.0,7.0,91,0.00,,CLR,0.00,VWS V14.01,2013-09-14 08:35:00,
2013-09-14 04:36:00,75.4,72.3,29.27,ENE,58,6.0,6.0,90,0.00,,CLR,0.00,VWS V14.01,2013-09-14 08:36:00,
2013-09-14 04:37:00,75.4,72.3,29.27,ENE,65,5.0,7.0,90,0.00,,CLR,0.00,VWS V14.01,2013-09-14 08:37:00,
2013-09-14 04:38:00,75.4,72.3,29.27,NE,34,6.0,6.0,90,0.00,,CLR,0.00,VWS V14.01,2013-09-14 08:38:00,
2013-09-14 04:39:00,75.4,71.9,29.27,ENE,62,7.0,7.0,89,0.00,,CLR,0.00,VWS V14.01,2013-09-14 08:39:00,
2013-09-14 04:40:00,75.4,71.9,29.27,NE,55,3.0,7.0,89,0.00,,CLR,0.00,VWS V14.01,2013-09-14 08:40:00,
2013-09-14 04:41:00,75.3,71.5,29.27,NE,45,11.0,12.0,88,0.00,,CLR,0.00,VWS V14.01,2013-09-14 08:41:00,
2013-09-14 04:42:00,75.3,71.5,29.27,NE,51,4.0,13.0,88,0.00,,CLR,0.00,VWS V14.01,2013-09-14 08:42:00,
2013-09-14 04:43:00,75.3,71.2,29.27,NE,41,4.0,12.0,87,0.00,,CLR,0.00,VWS V14.01,2013-09-14 08:43:00,
2013-09-14 04:44:00,75.3,71.2,29.27,NE,37,6.0,10.0,87,0.00,,CLR,0.00,VWS V14.01,2013-09-14 08:44:00,
2013-09-14 04:45:00,75.4,71.3,29.27,NE,55,5.0,7.0,87,0.00,,CLR,0.00,VWS V14.01,2013-09-14 08:45:00,
2013-09-14 04:46:00,75.4,70.9,29.63,NE,50,3.0,5.0,86,0.00,,CLR,0.00,VWS V14.01,2013-09-14 08:46:00,
2013-09-14 04:47:00,75.4,70.9,29.52,ENE,60,5.0,8.0,86,0.00,,CLR,0.00,VWS V14.01,2013-09-14 08:47:00,
2013-09-14 04:48:00,75.4,70.9,29.63,NE,46,11.0,11.0,86,0.00,,CLR,0.00,VWS V14.01,2013-09-14 08:48:00,
2013-09-14 04:49:00,75.4,70.6,29.63,NE,51,8.0,11.0,85,0.00,,CLR,0.00,VWS V14.01,2013-09-14 08:49:00,
2013-09-14 04:50:00,75.6,70.8,29.73,ENE,59,6.0,8.0,85,0.00,,CLR,0.00,VWS V14.01,2013-09-14 08:50:00,
2013-09-14 04:51:00,75.6,70.4,29.73,ENE,57,9.0,9.0,84,0.00,,CLR,0.00,VWS V14.01,2013-09-14 08:51:00,
2013-09-14 04:52:00,75.6,70.4,29.73,ENE,57,6.0,7.0,84,0.00,,CLR,0.00,VWS V14.01,2013-09-14 08:52:00,
2013-09-14 04:53:00,75.6,70.4,29.73,NE,56,4.0,9.0,84,0.00,,CLR,0.00,VWS V14.01,2013-09-14 08:53:00,
2013-09-14 04:54:00,75.8,70.6,29.73,NE,39,7.0,7.0,84,0.00,,CLR,0.00,VWS V14.01,2013-09-14 08:54:00,
2013-09-14 04:55:00,75.8,70.3,29.73,NE,53,5.0,14.0,83,0.00,,CLR,0.00,VWS V14.01,2013-09-14 08:55:00,
2013-09-14 04:56:00,75.8,69.9,29.73,ENE,57,10.0,10.0,82,0.00,,CLR,0.00,VWS V14.01,2013-09-14 08:56:00,
2013-09-14 04:57:00,75.8,69.9,29.73,ENE,69,6.0,14.0,82,0.00,,CLR,0.00,VWS V14.01,2013-09-14 08:57:00,
2013-09-14 04:58:00,75.8,69.9,29.73,NE,34,5.0,10.0,82,0.00,,CLR,0.00,VWS V14.01,2013-09-14 08:58:00,
2013-09-14 04:59:00,75.8,69.9,29.53,ENE,59,14.0,14.0,82,0.00,,CLR,0.00,VWS V14.01,2013-09-14 08:59:00,
2013-09-14 05:00:00,76.0,69.8,29.53,NE,48,4.0,14.0,81,0.00,,CLR,0.00,VWS V14.01,2013-09-14 09:00:00,
2013-09-14 05:01:00,76.0,69.8,29.53,ENE,57,5.0,8.0,81,0.00,,CLR,0.00,VWS V14.01,2013-09-14 09:01:00,
2013-09-14 05:02:00,76.0,69.8,29.53,NE,39,8.0,8.0,81,0.00,,CLR,0.00,VWS V14.01,2013-09-14 09:02:00,
2013-09-14 05:03:00,76.0,69.4,29.53,ENE,57,4.0,8.0,80,0.00,,CLR,0.00,VWS V14.01,2013-09-14 09:03:00,
2013-09-14 05:04:00,76.0,69.4,29.53,NNE,32,6.0,10.0,80,0.00,,CLR,0.00,VWS V14.01,2013-09-14 09:04:00,
2013-09-14 05:05:00,76.1,69.5,29.53,North,355,7.0,11.0,80,0.00,,CLR,0.00,VWS V14.01,2013-09-14 09:05:00,
2013-09-14 05:06:00,76.1,69.1,29.53,ENE,68,5.0,6.0,79,0.00,,CLR,0.00,VWS V14.01,2013-09-14 09:06:00,
2013-09-14 05:07:00,76.1,69.1,29.53,NE,53,6.0,7.0,79,0.00,,CLR,0.00,VWS V14.01,2013-09-14 09:07:00,
2013-09-14 05:08:00,76.1,69.1,29.53,NE,49,3.0,6.0,79,0.00,,CLR,0.00,VWS V14.01,2013-09-14 09:08:00,
2013-09-14 05:09:00,76.1,69.1,29.53,ENE,57,0.0,5.0,79,0.00,,CLR,0.00,VWS V14.01,2013-09-14 09:09:00,
2013-09-14 05:10:00,76.1,69.5,29.53,NNE,26,3.0,3.0,80,0.00,,CLR,0.00,VWS V14.01,2013-09-14 09:10:00,
2013-09-14 05:11:00,76.1,69.5,29.28,North,355,4.0,4.0,80,0.00,,CLR,0.00,VWS V14.01,2013-09-14 09:11:00,
2013-09-14 05:12:00,76.1,69.5,29.28,NNW,333,4.0,5.0,80,0.00,,CLR,0.00,VWS V14.01,2013-09-14 09:12:00,
2013-09-14 05:13:00,76.1,69.5,29.28,NNE,22,3.0,4.0,80,0.00,,CLR,0.00,VWS V14.01,2013-09-14 09:13:00,
2013-09-14 05:14:00,76.1,69.5,29.28,NNW,337,6.0,6.0,80,0.00,,CLR,0.00,VWS V14.01,2013-09-14 09:14:00,
2013-09-14 05:15:00,76.0,69.0,29.26,NNE,13,2.0,6.0,79,0.00,,CLR,0.00,VWS V14.01,2013-09-14 09:15:00,
2013-09-14 05:16:00,76.0,69.0,29.31,North,355,3.0,6.0,79,0.00,,CLR,0.00,VWS V14.01,2013-09-14 09:16:00,
2013-09-14 05:17:00,76.0,69.0,29.29,NNE,12,6.0,6.0,79,0.00,,CLR,0.00,VWS V14.01,2013-09-14 09:17:00,
2013-09-14 05:18:00,75.8,68.8,29.31,NE,36,3.0,6.0,79,0.00,,CLR,0.00,VWS V14.01,2013-09-14 09:18:00,
2013-09-14 05:19:00,75.8,68.8,29.32,NNW,342,5.0,5.0,79,0.00,,CLR,0.00,VWS V14.01,2013-09-14 09:19:00,
2013-09-14 05:20:00,75.8,68.8,29.32,North,355,7.0,7.0,79,0.00,,CLR,0.00,VWS V14.01,2013-09-14 09:20:00,
2013-09-14 05:21:00,75.6,68.3,29.28,NNE,25,8.0,8.0,78,0.00,,CLR,0.00,VWS V14.01,2013-09-14 09:21:00,
2013-09-14 05:22:00,75.6,68.3,29.28,NNE,33,4.0,5.0,78,0.00,,CLR,0.00,VWS V14.01,2013-09-14 09:22:00,
2013-09-14 05:23:00,75.6,68.3,29.28,North,11,3.0,8.0,78,0.00,,CLR,0.00,VWS V14.01,2013-09-14 09:23:00,
2013-09-14 05:24:00,75.4,68.1,29.28,NNE,30,4.0,5.0,78,0.00,,CLR,0.00,VWS V14.01,2013-09-14 09:24:00,
2013-09-14 05:25:00,75.4,68.1,29.28,North,350,9.0,9.0,78,0.00,,CLR,0.00,VWS V14.01,2013-09-14 09:25:00,
2013-09-14 05:26:00,75.3,67.6,29.28,North,355,3.0,4.0,77,0.00,,CLR,0.00,VWS V14.01,2013-09-14 09:26:00,
2013-09-14 05:27:00,75.3,67.6,29.28,North,355,4.0,11.0,77,0.00,,CLR,0.00,VWS V14.01,2013-09-14 09:27:00,
2013-09-14 05:28:00,75.3,67.6,29.28,NNW,335,5.0,11.0,77,0.00,,CLR,0.00,VWS V14.01,2013-09-14 09:28:00,
2013-09-14 05:29:00,75.3,67.6,29.28,NNE,16,5.0,7.0,77,0.00,,CLR,0.00,VWS V14.01,2013-09-14 09:29:00,
2013-09-14 05:30:00,75.3,67.6,29.27,North,11,3.0,11.0,77,0.00,,CLR,0.00,VWS V14.01,2013-09-14 09:30:00,
2013-09-14 05:31:00,75.1,67.4,29.33,NNW,327,5.0,5.0,77,0.00,,CLR,0.00,VWS V14.01,2013-09-14 09:31:00,
2013-09-14 05:32:00,75.1,67.4,29.27,NE,42,2.0,4.0,77,0.00,,CLR,0.00,VWS V14.01,2013-09-14 09:32:00,
2013-09-14 05:33:00,75.1,67.4,29.33,North,5,2.0,5.0,77,0.00,,CLR,0.00,VWS V14.01,2013-09-14 09:33:00,
2013-09-14 05:34:00,75.1,67.4,29.32,ENE,57,6.0,6.0,77,0.00,,CLR,0.00,VWS V14.01,2013-09-14 09:34:00,
2013-09-14 05:35:00,75.1,67.4,29.32,NW,323,6.0,6.0,77,0.00,,CLR,0.00,VWS V14.01,2013-09-14 09:35:00,
2013-09-14 05:36:00,74.9,67.2,29.31,NE,37,4.0,4.0,77,0.00,,CLR,0.00,VWS V14.01,2013-09-14 09:36:00,
2013-09-14 05:37:00,74.9,67.2,29.31,NE,37,4.0,6.0,77,0.00,,CLR,0.00,VWS V14.01,2013-09-14 09:37:00,
2013-09-14 05:38:00,74.9,67.2,29.31,North,355,4.0,8.0,77,0.00,,CLR,0.00,VWS V14.01,2013-09-14 09:38:00,
2013-09-14 05:39:00,74.9,67.2,29.32,NE,36,4.0,7.0,77,0.00,,CLR,0.00,VWS V14.01,2013-09-14 09:39:00,
2013-09-14 05:40:00,74.7,66.6,29.32,NE,44,7.0,7.0,76,0.00,,CLR,0.00,VWS V14.01,2013-09-14 09:40:00,
2013-09-14 05:41:00,74.7,66.6,29.32,NNW,333,6.0,6.0,76,0.00,,CLR,0.00,VWS V14.01,2013-09-14 09:41:00,
2013-09-14 05:42:00,74.7,66.6,29.32,NNW,333,6.0,6.0,76,0.00,,CLR,0.00,VWS V14.01,2013-09-14 09:42:00,
2013-09-14 05:43:00,74.7,66.6,29.32,NNE,32,4.0,11.0,76,0.00,,CLR,0.00,VWS V14.01,2013-09-14 09:43:00,
2013-09-14 05:44:00,74.7,66.6,29.32,NE,47,6.0,10.0,76,0.00,,CLR,0.00,VWS V14.01,2013-09-14 09:44:00,
2013-09-14 05:45:00,74.6,66.5,29.32,NNE,31,3.0,6.0,76,0.00,,CLR,0.00,VWS V14.01,2013-09-14 09:45:00,
2013-09-14 05:46:00,74.6,66.5,29.32,NNW,341,6.0,12.0,76,0.00,,CLR,0.00,VWS V14.01,2013-09-14 09:46:00,
2013-09-14 05:47:00,74.6,66.5,29.32,NE,50,12.0,12.0,76,0.00,,CLR,0.00,VWS V14.01,2013-09-14 09:47:00,
2013-09-14 05:48:00,74.6,66.2,29.32,NE,44,3.0,12.0,75,0.00,,CLR,0.00,VWS V14.01,2013-09-14 09:48:00,
2013-09-14 05:49:00,74.6,66.2,29.32,North,11,4.0,7.0,75,0.00,,CLR,0.00,VWS V14.01,2013-09-14 09:49:00,
2013-09-14 05:50:00,74.6,66.2,29.45,NE,49,3.0,4.0,75,0.00,,CLR,0.00,VWS V14.01,2013-09-14 09:50:00,
2013-09-14 05:51:00,74.6,66.2,29.36,North,349,4.0,4.0,75,0.00,,CLR,0.00,VWS V14.01,2013-09-14 09:51:00,
2013-09-14 05:52:00,74.6,66.2,29.45,NNW,334,4.0,5.0,75,0.00,,CLR,0.00,VWS V14.01,2013-09-14 09:52:00,
2013-09-14 05:53:00,74.6,66.2,29.36,North,11,4.0,4.0,75,0.00,,CLR,0.00,VWS V14.01,2013-09-14 09:53:00,
2013-09-14 05:54:00,74.6,66.2,29.36,North,5,1.0,5.0,75,0.00,,CLR,0.00,VWS V14.01,2013-09-14 09:54:00,
2013-09-14 05:55:00,74.6,66.2,29.36,ENE,60,3.0,3.0,75,0.00,,CLR,0.00,VWS V14.01,2013-09-14 09:55:00,
2013-09-14 05:56:00,74.6,66.5,29.36,NW,325,7.0,7.0,76,0.00,,CLR,0.00,VWS V14.01,2013-09-14 09:56:00,
2013-09-14 05:57:00,74.6,66.2,29.36,WNW,284,1.0,4.0,75,0.00,,CLR,0.00,VWS V14.01,2013-09-14 09:57:00,
2013-09-14 05:58:00,74.6,66.5,29.36,North,360,6.0,7.0,76,0.00,,CLR,0.00,VWS V14.01,2013-09-14 09:58:00,
2013-09-14 05:59:00,74.6,66.5,29.34,North,11,5.0,9.0,76,0.00,,CLR,0.00,VWS V14.01,2013-09-14 09:59:00,
2013-09-14 06:00:00,74.4,66.3,29.34,North,355,3.0,10.0,76,0.00,,CLR,0.00,VWS V14.01,2013-09-14 10:00:00,
2013-09-14 06:01:00,74.6,66.5,29.33,North,360,3.0,5.0,76,0.00,,CLR,0.00,VWS V14.01,2013-09-14 10:01:00,
2013-09-14 06:02:00,74.6,66.5,29.33,North,360,3.0,5.0,76,0.00,,CLR,0.00,VWS V14.01,2013-09-14 10:02:00,
2013-09-14 06:03:00,74.6,66.5,29.33,North,355,2.0,9.0,76,0.00,,CLR,0.00,VWS V14.01,2013-09-14 10:03:00,
2013-09-14 06:04:00,74.6,66.9,29.33,NE,40,3.0,4.0,77,0.00,,CLR,0.00,VWS V14.01,2013-09-14 10:04:00,
2013-09-14 06:05:00,74.6,66.9,29.33,NNW,344,4.0,5.0,77,0.00,,CLR,0.00,VWS V14.01,2013-09-14 10:05:00,
2013-09-14 06:06:00,74.4,66.3,29.36,NE,49,4.0,4.0,76,0.00,,CLR,0.00,VWS V14.01,2013-09-14 10:06:00,
2013-09-14 06:07:00,74.4,66.3,29.36,North,360,4.0,5.0,76,0.00,,CLR,0.00,VWS V14.01,2013-09-14 10:07:00,
2013-09-14 06:08:00,74.4,66.3,29.36,NE,53,9.0,9.0,76,0.00,,CLR,0.00,VWS V14.01,2013-09-14 10:08:00,
2013-09-14 06:09:00,74.4,66.3,29.36,NE,48,4.0,9.0,76,0.00,,CLR,0.00,VWS V14.01,2013-09-14 10:09:00,
2013-09-14 06:10:00,74.4,66.3,29.27,NNE,19,3.0,9.0,76,0.00,,CLR,0.00,VWS V14.01,2013-09-14 10:10:00,
2013-09-14 06:11:00,74.4,66.3,29.28,NE,40,1.0,1.0,76,0.00,,CLR,0.00,VWS V14.01,2013-09-14 10:11:00,
2013-09-14 06:12:00,74.4,66.3,29.27,NE,40,1.0,4.0,76,0.00,,CLR,0.00,VWS V14.01,2013-09-14 10:12:00,
2013-09-14 06:13:00,74.4,66.3,29.28,NNW,342,4.0,4.0,76,0.00,,CLR,0.00,VWS V14.01,2013-09-14 10:13:00,
2013-09-14 06:14:00,74.4,66.7,29.28,North,360,2.0,5.0,77,0.00,,CLR,0.00,VWS V14.01,2013-09-14 10:14:00,
2013-09-14 06:15:00,74.4,66.7,29.28,North,360,0.0,2.0,77,0.00,,CLR,0.00,VWS V14.01,2013-09-14 10:15:00,
2013-09-14 06:16:00,74.4,67.1,29.34,NNE,15,3.0,3.0,78,0.00,,CLR,0.00,VWS V14.01,2013-09-14 10:16:00,
2013-09-14 06:17:00,74.4,67.1,29.22,NNE,15,2.0,4.0,78,0.00,,CLR,0.00,VWS V14.01,2013-09-14 10:17:00,
2013-09-14 06:18:00,74.4,67.1,29.34,North,355,1.0,5.0,78,0.00,,CLR,0.00,VWS V14.01,2013-09-14 10:18:00,
2013-09-14 06:19:00,74.4,67.5,29.33,NNE,12,3.0,4.0,79,0.00,,CLR,0.00,VWS V14.01,2013-09-14 10:19:00,
2013-09-14 06:20:00,74.4,67.5,29.33,North,5,3.0,6.0,79,0.00,,CLR,0.00,VWS V14.01,2013-09-14 10:20:00,
2013-09-14 06:21:00,74.4,67.8,29.29,NNW,328,4.0,5.0,80,0.00,,CLR,0.00,VWS V14.01,2013-09-14 10:21:00,
2013-09-14 06:22:00,74.4,67.8,29.29,NNW,328,4.0,5.0,80,0.00,,CLR,0.00,VWS V14.01,2013-09-14 10:22:00,
2013-09-14 06:23:00,74.2,67.6,29.28,NNE,18,4.0,6.0,80,0.00,,CLR,0.00,VWS V14.01,2013-09-14 10:23:00,
2013-09-14 06:24:00,74.2,67.6,29.28,NW,311,1.0,4.0,80,0.00,,CLR,0.00,VWS V14.01,2013-09-14 10:24:00,
2013-09-14 06:25:00,74.2,67.6,29.28,NNE,28,4.0,4.0,80,0.00,,CLR,0.00,VWS V14.01,2013-09-14 10:25:00,
2013-09-14 06:26:00,74.0,67.4,29.28,North,5,4.0,4.0,80,0.00,,CLR,0.00,VWS V14.01,2013-09-14 10:26:00,
2013-09-14 06:27:00,74.0,67.4,29.28,North,5,4.0,4.0,80,0.00,,CLR,0.00,VWS V14.01,2013-09-14 10:27:00,
2013-09-14 06:28:00,74.0,67.4,29.28,NNE,22,6.0,9.0,80,0.00,,CLR,0.00,VWS V14.01,2013-09-14 10:28:00,
2013-09-14 06:29:00,73.9,67.3,29.28,NNW,342,9.0,9.0,80,0.00,,CLR,0.00,VWS V14.01,2013-09-14 10:29:00,
2013-09-14 06:30:00,73.9,67.3,29.28,North,5,5.0,9.0,80,0.00,,CLR,0.00,VWS V14.01,2013-09-14 10:30:00,
2013-09-14 06:31:00,73.7,67.5,29.28,North,355,4.0,7.0,81,0.00,,CLR,0.00,VWS V14.01,2013-09-14 10:31:00,
2013-09-14 06:32:00,73.7,67.5,29.28,North,355,4.0,7.0,81,0.00,,CLR,0.00,VWS V14.01,2013-09-14 10:32:00,
2013-09-14 06:33:00,73.7,67.5,29.28,NNE,14,2.0,7.0,81,0.00,,CLR,0.00,VWS V14.01,2013-09-14 10:33:00,
2013-09-14 06:34:00,73.5,67.3,29.28,NNE,22,3.0,11.0,81,0.00,,CLR,0.00,VWS V14.01,2013-09-14 10:34:00,
2013-09-14 06:35:00,73.5,67.3,29.28,NNW,336,7.0,7.0,81,0.00,,CLR,0.00,VWS V14.01,2013-09-14 10:35:00,
2013-09-14 06:36:00,73.5,67.3,28.97,NW,324,4.0,4.0,81,0.00,,OVC100,0.00,VWS V14.01,2013-09-14 10:36:00,
2013-09-14 06:37:00,73.5,67.3,28.96,NNE,13,3.0,4.0,81,0.00,,CLR,0.00,VWS V14.01,2013-09-14 10:37:00,
2013-09-14 06:38:00,73.3,67.1,28.97,NE,39,1.0,4.0,81,0.00,,CLR,0.00,VWS V14.01,2013-09-14 10:38:00,
2013-09-14 06:39:00,73.3,67.1,28.86,ENE,63,5.0,5.0,81,0.00,,CLR,0.00,VWS V14.01,2013-09-14 10:39:00,
2013-09-14 06:40:00,73.3,67.1,28.86,ENE,62,3.0,5.0,81,0.00,,CLR,0.00,VWS V14.01,2013-09-14 10:40:00,
2013-09-14 06:41:00,73.2,67.0,28.86,NNW,333,7.0,7.0,81,0.00,,OVC100,0.00,VWS V14.01,2013-09-14 10:41:00,
2013-09-14 06:42:00,73.2,67.0,28.86,NW,325,6.0,7.0,81,0.00,,CLR,0.00,VWS V14.01,2013-09-14 10:42:00,
2013-09-14 06:43:00,73.2,67.0,28.86,NE,44,3.0,7.0,81,0.00,,CLR,0.00,VWS V14.01,2013-09-14 10:43:00,
2013-09-14 06:44:00,73.0,66.8,28.86,North,355,5.0,6.0,81,0.00,,CLR,0.00,VWS V14.01,2013-09-14 10:44:00,
2013-09-14 06:45:00,73.0,66.8,28.86,NNW,348,7.0,7.0,81,0.00,,CLR,0.00,VWS V14.01,2013-09-14 10:45:00,
2013-09-14 06:46:00,72.8,66.6,28.86,North,360,4.0,4.0,81,0.00,,OVC100,0.00,VWS V14.01,2013-09-14 10:46:00,
2013-09-14 06:47:00,72.8,66.6,28.86,NNW,333,3.0,4.0,81,0.00,,CLR,0.00,VWS V14.01,2013-09-14 10:47:00,
2013-09-14 06:48:00,72.8,66.6,28.86,North,5,4.0,4.0,81,0.00,,CLR,0.00,VWS V14.01,2013-09-14 10:48:00,
2013-09-14 06:49:00,72.8,66.6,28.86,North,355,6.0,6.0,81,0.00,,CLR,0.00,VWS V14.01,2013-09-14 10:49:00,
2013-09-14 06:50:00,72.8,66.6,28.86,North,350,5.0,10.0,81,0.00,,CLR,0.00,VWS V14.01,2013-09-14 10:50:00,
2013-09-14 06:51:00,72.7,66.5,28.86,NNE,22,5.0,5.0,81,0.00,,OVC100,0.00,VWS V14.01,2013-09-14 10:51:00,
2013-09-14 06:52:00,72.7,66.5,28.86,NE,37,3.0,5.0,81,0.00,,CLR,0.00,VWS V14.01,2013-09-14 10:52:00,
2013-09-14 06:53:00,72.7,66.5,28.86,NE,42,3.0,5.0,81,0.00,,CLR,0.00,VWS V14.01,2013-09-14 10:53:00,
2013-09-14 06:54:00,72.7,66.5,29.21,North,9,3.0,4.0,81,0.00,,CLR,0.00,VWS V14.01,2013-09-14 10:54:00,
2013-09-14 06:55:00,72.7,66.5,29.21,North,355,5.0,5.0,81,0.00,,CLR,0.00,VWS V14.01,2013-09-14 10:55:00,
2013-09-14 06:56:00,72.7,66.5,29.38,NE,34,1.0,1.0,81,0.00,,OVC100,0.00,VWS V14.01,2013-09-14 10:56:00,
2013-09-14 06:57:00,72.7,66.5,29.33,NE,34,0.0,5.0,81,0.00,,CLR,0.00,VWS V14.01,2013-09-14 10:57:00,
2013-09-14 06:58:00,72.7,66.5,29.38,NE,50,2.0,5.0,81,0.00,,CLR,0.00,VWS V14.01,2013-09-14 10:58:00,
2013-09-14 06:59:00,72.7,66.5,29.38,NNW,342,5.0,6.0,81,0.00,,CLR,0.00,VWS V14.01,2013-09-14 10:59:00,
2013-09-14 07:00:00,72.7,66.5,29.38,NNE,22,2.0,6.0,81,0.00,,CLR,0.00,VWS V14.01,2013-09-14 11:00:00,
2013-09-14 07:01:00,72.7,66.9,29.38,North,355,4.0,4.0,82,0.00,,OVC100,0.00,VWS V14.01,2013-09-14 11:01:00,
2013-09-14 07:02:00,72.7,66.9,29.38,North,360,3.0,5.0,82,0.00,,CLR,0.00,VWS V14.01,2013-09-14 11:02:00,
2013-09-14 07:03:00,72.7,66.9,29.38,ENE,62,3.0,5.0,82,0.00,,CLR,0.00,VWS V14.01,2013-09-14 11:03:00,
2013-09-14 07:04:00,72.7,66.9,29.38,NE,36,6.0,6.0,82,0.00,,CLR,0.00,VWS V14.01,2013-09-14 11:04:00,
2013-09-14 07:05:00,72.7,66.9,29.38,NNE,17,5.0,6.0,82,0.00,,CLR,0.00,VWS V14.01,2013-09-14 11:05:00,
2013-09-14 07:06:00,72.5,66.7,29.38,NE,42,6.0,6.0,82,0.00,,OVC100,0.00,VWS V14.01,2013-09-14 11:06:00,
2013-09-14 07:07:00,72.5,66.7,29.38,NE,42,5.0,5.0,82,0.00,,CLR,0.00,VWS V14.01,2013-09-14 11:07:00,
2013-09-14 07:08:00,72.5,66.7,29.38,NNE,32,2.0,7.0,82,0.00,,CLR,0.00,VWS V14.01,2013-09-14 11:08:00,
2013-09-14 07:09:00,72.5,66.7,29.38,NNW,329,5.0,6.0,82,0.00,,CLR,0.00,VWS V14.01,2013-09-14 11:09:00,
2013-09-14 07:10:00,72.5,66.7,29.30,NNE,21,3.0,5.0,82,0.00,,CLR,0.00,VWS V14.01,2013-09-14 11:10:00,
2013-09-14 07:11:00,72.5,66.7,29.30,NE,36,3.0,5.0,82,0.00,,OVC100,0.00,VWS V14.01,2013-09-14 11:11:00,
2013-09-14 07:12:00,72.5,66.7,29.30,NNE,26,5.0,7.0,82,0.00,,CLR,0.00,VWS V14.01,2013-09-14 11:12:00,
2013-09-14 07:13:00,72.5,66.7,29.30,NE,36,3.0,6.0,82,0.00,,CLR,0.00,VWS V14.01,2013-09-14 11:13:00,
2013-09-14 07:14:00,72.5,66.7,29.30,NE,36,4.0,7.0,82,0.00,,CLR,0.00,VWS V14.01,2013-09-14 11:14:00,
2013-09-14 07:15:00,72.5,66.7,29.30,North,5,4.0,8.0,82,0.00,,CLR,0.00,VWS V14.01,2013-09-14 11:15:00,
2013-09-14 07:16:00,72.5,67.1,29.30,NNE,17,4.0,5.0,83,0.00,,OVC100,0.00,VWS V14.01,2013-09-14 11:16:00,
2013-09-14 07:17:00,72.5,67.1,29.30,North,350,5.0,5.0,83,0.00,,CLR,0.00,VWS V14.01,2013-09-14 11:17:00,
2013-09-14 07:18:00,72.5,67.1,29.30,NE,51,3.0,7.0,83,0.00,,CLR,0.00,VWS V14.01,2013-09-14 11:18:00,
2013-09-14 07:19:00,72.5,67.1,29.30,NNE,17,4.0,6.0,83,0.00,,CLR,0.00,VWS V14.01,2013-09-14 11:19:00,
2013-09-14 07:20:00,72.5,67.1,29.36,NNE,16,5.0,5.0,83,0.00,,CLR,0.00,VWS V14.01,2013-09-14 11:20:00,
2013-09-14 07:21:00,72.5,67.1,29.36,NW,323,6.0,6.0,83,0.00,,OVC100,0.00,VWS V14.01,2013-09-14 11:21:00,
2013-09-14 07:22:00,72.5,67.1,29.36,NE,38,6.0,6.0,83,0.00,,CLR,0.00,VWS V14.01,2013-09-14 11:22:00,
2013-09-14 07:23:00,72.5,67.1,29.36,NE,46,3.0,6.0,83,0.00,,CLR,0.00,VWS V14.01,2013-09-14 11:23:00,
2013-09-14 07:24:00,72.5,67.1,29.36,NNW,342,4.0,9.0,83,0.00,,CLR,0.00,VWS V14.01,2013-09-14 11:24:00,
2013-09-14 07:25:00,72.5,67.1,29.36,North,5,4.0,6.0,83,0.00,,CLR,0.00,VWS V14.01,2013-09-14 11:25:00,
2013-09-14 07:26:00,72.7,67.2,29.36,NNE,26,2.0,5.0,83,0.00,,OVC100,0.00,VWS V14.01,2013-09-14 11:26:00,
2013-09-14 07:27:00,72.7,67.2,29.36,NNE,12,5.0,7.0,83,0.00,,CLR,0.00,VWS V14.01,2013-09-14 11:27:00,
2013-09-14 07:28:00,72.7,67.2,29.36,NNE,26,4.0,6.0,83,0.00,,CLR,0.00,VWS V14.01,2013-09-14 11:28:00,
2013-09-14 07:29:00,72.7,67.2,29.36,NNE,28,5.0,9.0,83,0.00,,CLR,0.00,VWS V14.01,2013-09-14 11:29:00,
2013-09-14 07:30:00,72.7,67.2,29.55,North,355,4.0,6.0,83,0.00,,CLR,0.00,VWS V14.01,2013-09-14 11:30:00,
2013-09-14 07:31:00,72.7,67.6,29.55,North,360,3.0,5.0,84,0.00,,OVC100,0.00,VWS V14.01,2013-09-14 11:31:00,
2013-09-14 07:32:00,72.7,67.6,29.55,NNW,342,5.0,5.0,84,0.00,,CLR,0.00,VWS V14.01,2013-09-14 11:32:00,
2013-09-14 07:33:00,72.7,67.6,29.55,NNE,23,4.0,5.0,84,0.00,,CLR,0.00,VWS V14.01,2013-09-14 11:33:00,
2013-09-14 07:34:00,72.7,67.6,29.55,NNW,339,5.0,5.0,84,0.00,,CLR,0.00,VWS V14.01,2013-09-14 11:34:00,
2013-09-14 07:35:00,72.7,67.6,29.55,North,355,5.0,5.0,84,0.00,,CLR,0.00,VWS V14.01,2013-09-14 11:35:00,
2013-09-14 07:36:00,72.5,67.4,29.55,NE,40,3.0,6.0,84,0.00,,CLR,0.00,VWS V14.01,2013-09-14 11:36:00,
2013-09-14 07:37:00,72.5,67.4,29.55,NE,40,3.0,6.0,84,0.00,,CLR,0.00,VWS V14.01,2013-09-14 11:37:00,
2013-09-14 07:38:00,72.5,67.4,29.64,NNE,29,4.0,4.0,84,0.00,,CLR,0.00,VWS V14.01,2013-09-14 11:38:00,
2013-09-14 07:39:00,72.5,67.4,29.64,NE,40,6.0,6.0,84,0.00,,CLR,0.00,VWS V14.01,2013-09-14 11:39:00,
2013-09-14 07:40:00,72.5,67.4,29.64,NE,34,2.0,6.0,84,0.00,,CLR,0.00,VWS V14.01,2013-09-14 11:40:00,
2013-09-14 07:41:00,72.5,67.4,29.85,NNE,19,5.0,6.0,84,0.00,,CLR,0.00,VWS V14.01,2013-09-14 11:41:00,
2013-09-14 07:42:00,72.5,67.4,29.85,NNE,19,5.0,6.0,84,0.00,,CLR,0.00,VWS V14.01,2013-09-14 11:42:00,
2013-09-14 07:43:00,72.5,67.4,29.85,North,360,3.0,6.0,84,0.00,,CLR,0.00,VWS V14.01,2013-09-14 11:43:00,
2013-09-14 07:44:00,72.5,67.4,29.85,ENE,57,5.0,6.0,84,0.00,,CLR,0.00,VWS V14.01,2013-09-14 11:44:00,
2013-09-14 07:45:00,72.5,67.4,29.85,NNE,33,3.0,6.0,84,0.00,,CLR,0.00,VWS V14.01,2013-09-14 11:45:00,
2013-09-14 07:46:00,72.5,67.4,29.84,North,355,6.0,6.0,84,0.00,,CLR,0.00,VWS V14.01,2013-09-14 11:46:00,
2013-09-14 07:47:00,72.5,67.4,29.84,NNE,18,2.0,5.0,84,0.00,,CLR,0.00,VWS V14.01,2013-09-14 11:47:00,
2013-09-14 07:48:00,72.5,67.4,29.84,NNE,32,3.0,6.0,84,0.00,,CLR,0.00,VWS V14.01,2013-09-14 11:48:00,
2013-09-14 07:49:00,72.5,67.7,29.84,NE,36,1.0,3.0,85,0.00,,CLR,0.00,VWS V14.01,2013-09-14 11:49:00,
2013-09-14 07:50:00,72.5,67.7,29.84,NNE,24,2.0,3.0,85,0.00,,CLR,0.00,VWS V14.01,2013-09-14 11:50:00,
2013-09-14 07:51:00,72.5,67.7,29.84,NE,38,2.0,3.0,85,0.00,,CLR,0.00,VWS V14.01,2013-09-14 11:51:00,
2013-09-14 07:52:00,72.5,67.7,29.84,NE,38,3.0,3.0,85,0.00,,CLR,0.00,VWS V14.01,2013-09-14 11:52:00,
2013-09-14 07:53:00,72.5,67.7,29.84,NE,38,2.0,3.0,85,0.00,,CLR,0.00,VWS V14.01,2013-09-14 11:53:00,
2013-09-14 07:54:00,72.5,67.7,29.84,NE,34,4.0,4.0,85,0.00,,CLR,0.00,VWS V14.01,2013-09-14 11:54:00,
2013-09-14 07:55:00,72.5,67.7,29.84,NNE,20,3.0,4.0,85,0.00,,CLR,0.00,VWS V14.01,2013-09-14 11:55:00,
2013-09-14 07:56:00,72.5,67.7,29.84,NNW,346,3.0,4.0,85,0.00,,CLR,0.00,VWS V14.01,2013-09-14 11:56:00,
2013-09-14 07:57:00,72.5,67.7,29.84,North,360,4.0,5.0,85,0.00,,CLR,0.00,VWS V14.01,2013-09-14 11:57:00,
2013-09-14 07:58:00,72.5,67.7,29.84,NNE,30,3.0,4.0,85,0.00,,CLR,0.00,VWS V14.01,2013-09-14 11:58:00,
2013-09-14 07:59:00,72.5,67.7,29.84,North,360,5.0,5.0,85,0.00,,CLR,0.00,VWS V14.01,2013-09-14 11:59:00,
2013-09-14 08:00:00,72.5,67.7,29.84,NNE,19,1.0,5.0,85,0.00,,CLR,0.00,VWS V14.01,2013-09-14 12:00:00,
2013-09-14 08:01:00,72.5,67.7,29.36,North,355,4.0,4.0,85,0.00,,CLR,0.00,VWS V14.01,2013-09-14 12:01:00,
2013-09-14 08:02:00,72.5,67.7,29.36,NNE,25,3.0,5.0,85,0.00,,CLR,0.00,VWS V14.01,2013-09-14 12:02:00,
2013-09-14 08:03:00,72.5,67.7,29.36,NNE,27,3.0,4.0,85,0.00,,CLR,0.00,VWS V14.01,2013-09-14 12:03:00,
2013-09-14 08:04:00,72.5,68.1,29.36,NE,34,3.0,6.0,86,0.00,,CLR,0.00,VWS V14.01,2013-09-14 12:04:00,
2013-09-14 08:05:00,72.5,68.1,29.16,NNW,346,4.0,5.0,86,0.00,,CLR,0.00,VWS V14.01,2013-09-14 12:05:00,
2013-09-14 08:06:00,72.5,68.1,29.16,NNE,23,6.0,6.0,86,0.00,,CLR,0.00,VWS V14.01,2013-09-14 12:06:00,
2013-09-14 08:07:00,72.5,68.1,29.16,NNE,23,6.0,6.0,86,0.00,,CLR,0.00,VWS V14.01,2013-09-14 12:07:00,
2013-09-14 08:08:00,72.5,68.1,29.16,NNE,15,2.0,6.0,86,0.00,,CLR,0.00,VWS V14.01,2013-09-14 12:08:00,
2013-09-14 08:09:00,72.5,68.1,29.16,NNE,33,1.0,4.0,86,0.00,,CLR,0.00,VWS V14.01,2013-09-14 12:09:00,
2013-09-14 08:10:00,72.5,68.1,29.16,NE,40,2.0,6.0,86,0.00,,CLR,0.00,VWS V14.01,2013-09-14 12:10:00,
2013-09-14 08:11:00,72.5,68.1,29.16,NNW,346,5.0,5.0,86,0.00,,CLR,0.00,VWS V14.01,2013-09-14 12:11:00,
2013-09-14 08:12:00,72.5,68.1,29.16,NNW,346,5.0,5.0,86,0.00,,CLR,0.00,VWS V14.01,2013-09-14 12:12:00,
2013-09-14 08:13:00,72.5,68.1,29.16,NE,45,4.0,6.0,86,0.00,,CLR,0.00,VWS V14.01,2013-09-14 12:13:00,
2013-09-14 08:14:00,72.5,68.1,29.21,NNE,14,4.0,6.0,86,0.00,,CLR,0.00,VWS V14.01,2013-09-14 12:14:00,
2013-09-14 08:15:00,72.3,67.9,29.36,NNW,348,4.0,6.0,86,0.00,,CLR,0.00,VWS V14.01,2013-09-14 12:15:00,
2013-09-14 08:16:00,72.3,67.9,29.36,NW,321,5.0,5.0,86,0.00,,CLR,0.00,VWS V14.01,2013-09-14 12:16:00,
2013-09-14 08:17:00,72.3,67.9,29.36,NW,321,5.0,5.0,86,0.00,,CLR,0.00,VWS V14.01,2013-09-14 12:17:00,
2013-09-14 08:18:00,72.3,67.9,29.36,NNE,24,4.0,5.0,86,0.00,,CLR,0.00,VWS V14.01,2013-09-14 12:18:00,
2013-09-14 08:19:00,72.3,67.9,29.36,North,355,4.0,5.0,86,0.00,,CLR,0.00,VWS V14.01,2013-09-14 12:19:00,
2013-09-14 08:20:00,72.3,67.9,29.36,NNW,331,6.0,6.0,86,0.00,,CLR,0.00,VWS V14.01,2013-09-14 12:20:00,
2013-09-14 08:21:00,72.3,67.9,29.25,North,10,6.0,6.0,86,0.00,,CLR,0.00,VWS V14.01,2013-09-14 12:21:00,
2013-09-14 08:22:00,72.3,67.9,29.36,North,350,3.0,4.0,86,0.00,,CLR,0.00,VWS V14.01,2013-09-14 12:22:00,
2013-09-14 08:23:00,72.3,67.9,29.25,NE,34,9.0,9.0,86,0.00,,CLR,0.00,VWS V14.01,2013-09-14 12:23:00,
2013-09-14 08:24:00,72.3,67.9,29.25,North,10,4.0,9.0,86,0.00,,CLR,0.00,VWS V14.01,2013-09-14 12:24:00,
2013-09-14 08:25:00,72.3,67.9,29.18,NNE,28,4.0,6.0,86,0.00,,CLR,0.00,VWS V14.01,2013-09-14 12:25:00,
2013-09-14 08:26:00,72.5,68.1,29.18,NNW,342,4.0,5.0,86,0.00,,CLR,0.00,VWS V14.01,2013-09-14 12:26:00,
2013-09-14 08:27:00,72.5,68.1,29.18,North,360,5.0,5.0,86,0.00,,CLR,0.00,VWS V14.01,2013-09-14 12:27:00,
2013-09-14 08:28:00,72.5,68.1,29.18,NE,38,5.0,5.0,86,0.00,,CLR,0.00,VWS V14.01,2013-09-14 12:28:00,
2013-09-14 08:29:00,72.5,68.1,29.18,NNW,346,5.0,6.0,86,0.00,,CLR,0.00,VWS V14.01,2013-09-14 12:29:00,
2013-09-14 08:30:00,72.5,68.1,29.32,North,9,3.0,7.0,86,0.00,,CLR,0.00,VWS V14.01,2013-09-14 12:30:00,
2013-09-14 08:31:00,72.5,68.1,29.33,NE,47,8.0,8.0,86,0.00,,CLR,0.00,VWS V14.01,2013-09-14 12:31:00,
2013-09-14 08:32:00,72.5,68.1,29.33,WNW,287,4.0,5.0,86,0.00,,CLR,0.00,VWS V14.01,2013-09-14 12:32:00,
2013-09-14 08:33:00,72.7,68.3,29.33,NNW,340,3.0,8.0,86,0.00,,CLR,0.00,VWS V14.01,2013-09-14 12:33:00,
2013-09-14 08:34:00,72.7,68.3,29.25,North,351,4.0,7.0,86,0.00,,CLR,0.00,VWS V14.01,2013-09-14 12:34:00,
2013-09-14 08:35:00,72.7,68.3,29.25,NNW,346,3.0,4.0,86,0.00,,CLR,0.00,VWS V14.01,2013-09-14 12:35:00,
2013-09-14 08:36:00,72.7,68.3,29.25,NNE,26,4.0,7.0,86,0.00,,CLR,0.00,VWS V14.01,2013-09-14 12:36:00,
2013-09-14 08:37:00,72.7,68.3,29.25,NNE,26,4.0,7.0,86,0.00,,CLR,0.00,VWS V14.01,2013-09-14 12:37:00,
2013-09-14 08:38:00,72.7,68.3,29.24,North,360,4.0,9.0,86,0.00,,CLR,0.00,VWS V14.01,2013-09-14 12:38:00,
2013-09-14 08:39:00,72.7,67.9,29.24,East,96,4.0,7.0,85,0.00,,CLR,0.00,VWS V14.01,2013-09-14 12:39:00,
2013-09-14 08:40:00,72.7,68.3,29.14,NNE,28,4.0,8.0,86,0.00,,CLR,0.00,VWS V14.01,2013-09-14 12:40:00,
2013-09-14 08:41:00,72.8,68.4,29.14,NE,42,6.0,6.0,86,0.00,,CLR,0.00,VWS V14.01,2013-09-14 12:41:00,
2013-09-14 08:42:00,72.8,68.4,29.14,NE,42,6.0,6.0,86,0.00,,CLR,0.00,VWS V14.01,2013-09-14 12:42:00,
2013-09-14 08:43:00,72.8,68.4,29.14,NE,38,4.0,6.0,86,0.00,,CLR,0.00,VWS V14.01,2013-09-14 12:43:00,
2013-09-14 08:44:00,72.8,68.4,29.14,North,11,4.0,7.0,86,0.00,,CLR,0.00,VWS V14.01,2013-09-14 12:44:00,
2013-09-14 08:45:00,73.0,68.6,29.14,NNW,341,6.0,6.0,86,0.00,,CLR,0.00,VWS V14.01,2013-09-14 12:45:00,
2013-09-14 08:46:00,73.2,68.8,29.14,North,10,4.0,5.0,86,0.00,,CLR,0.00,VWS V14.01,2013-09-14 12:46:00,
2013-09-14 08:47:00,73.2,68.8,29.14,North,10,4.0,5.0,86,0.00,,CLR,0.00,VWS V14.01,2013-09-14 12:47:00,
2013-09-14 08:48:00,73.2,68.4,29.14,North,349,5.0,7.0,85,0.00,,CLR,0.00,VWS V14.01,2013-09-14 12:48:00,
2013-09-14 08:49:00,73.2,68.4,29.14,NNW,342,5.0,6.0,85,0.00,,CLR,0.00,VWS V14.01,2013-09-14 12:49:00,
2013-09-14 08:50:00,73.2,68.4,29.14,NNW,338,6.0,7.0,85,0.00,,CLR,0.00,VWS V14.01,2013-09-14 12:50:00,
2013-09-14 08:51:00,73.3,68.5,29.14,WNW,294,7.0,7.0,85,0.00,,CLR,0.00,VWS V14.01,2013-09-14 12:51:00,
2013-09-14 08:52:00,73.3,68.5,29.14,WNW,294,7.0,7.0,85,0.00,,CLR,0.00,VWS V14.01,2013-09-14 12:52:00,
2013-09-14 08:53:00,73.3,68.5,29.23,NNW,336,4.0,7.0,85,0.00,,CLR,0.00,VWS V14.01,2013-09-14 12:53:00,
2013-09-14 08:54:00,73.3,68.5,29.23,NNE,32,5.0,5.0,85,0.00,,CLR,0.00,VWS V14.01,2013-09-14 12:54:00,
2013-09-14 08:55:00,73.3,68.5,29.23,ENE,69,4.0,6.0,85,0.00,,CLR,0.00,VWS V14.01,2013-09-14 12:55:00,
2013-09-14 08:56:00,73.5,68.7,29.26,NE,40,8.0,8.0,85,0.00,,CLR,0.00,VWS V14.01,2013-09-14 12:56:00,
2013-09-14 08:57:00,73.5,68.7,29.23,NW,306,5.0,6.0,85,0.00,,CLR,0.00,VWS V14.01,2013-09-14 12:57:00,
2013-09-14 08:58:00,73.7,68.9,29.26,NE,41,3.0,8.0,85,0.00,,CLR,0.00,VWS V14.01,2013-09-14 12:58:00,
2013-09-14 08:59:00,73.7,68.9,29.26,NNE,28,4.0,4.0,85,0.00,,CLR,0.00,VWS V14.01,2013-09-14 12:59:00,
2013-09-14 09:00:00,73.7,68.9,29.18,NNW,334,6.0,6.0,85,0.00,,CLR,0.00,VWS V14.01,2013-09-14 13:00:00,
2013-09-14 09:01:00,73.7,68.6,29.18,NNE,21,6.0,6.0,84,0.00,,CLR,0.00,VWS V14.01,2013-09-14 13:01:00,
2013-09-14 09:02:00,73.7,68.6,29.18,NNE,24,4.0,9.0,84,0.00,,CLR,0.00,VWS V14.01,2013-09-14 13:02:00,
2013-09-14 09:03:00,73.7,68.9,29.18,North,350,6.0,6.0,85,0.00,,CLR,0.00,VWS V14.01,2013-09-14 13:03:00,
2013-09-14 09:04:00,73.7,68.6,29.18,NNE,13,6.0,7.0,84,0.00,,CLR,0.00,VWS V14.01,2013-09-14 13:04:00,
2013-09-14 09:05:00,73.7,68.9,29.18,NNW,338,7.0,7.0,85,0.00,,CLR,0.00,VWS V14.01,2013-09-14 13:05:00,
2013-09-14 09:06:00,73.7,68.9,29.22,North,11,3.0,3.0,85,0.00,,CLR,0.00,VWS V14.01,2013-09-14 13:06:00,
2013-09-14 09:07:00,73.7,68.9,29.20,North,11,2.0,4.0,85,0.00,,CLR,0.00,VWS V14.01,2013-09-14 13:07:00,
2013-09-14 09:08:00,73.7,68.9,29.22,North,11,3.0,5.0,85,0.00,,CLR,0.00,VWS V14.01,2013-09-14 13:08:00,
2013-09-14 09:09:00,73.7,68.9,29.22,North,350,7.0,10.0,85,0.00,,CLR,0.00,VWS V14.01,2013-09-14 13:09:00,
2013-09-14 09:10:00,73.7,68.9,29.22,NNE,14,7.0,9.0,85,0.00,,CLR,0.00,VWS V14.01,2013-09-14 13:10:00,
2013-09-14 09:11:00,73.5,68.7,29.22,NNE,27,4.0,10.0,85,0.00,,CLR,0.00,VWS V14.01,2013-09-14 13:11:00,
2013-09-14 09:12:00,73.5,68.7,29.22,NNE,27,4.0,10.0,85,0.00,,CLR,0.00,VWS V14.01,2013-09-14 13:12:00,
2013-09-14 09:13:00,73.5,68.7,29.22,NNW,338,7.0,7.0,85,0.00,,CLR,0.00,VWS V14.01,2013-09-14 13:13:00,
2013-09-14 09:14:00,73.5,68.7,29.22,NE,38,4.0,7.0,85,0.00,,CLR,0.00,VWS V14.01,2013-09-14 13:14:00,
2013-09-14 09:15:00,73.7,68.9,29.22,NW,326,5.0,9.0,85,0.00,,CLR,0.00,VWS V14.01,2013-09-14 13:15:00,
2013-09-14 09:16:00,73.9,69.1,29.22,NE,34,2.0,5.0,85,0.00,,CLR,0.00,VWS V14.01,2013-09-14 13:16:00,
2013-09-14 09:17:00,73.9,69.1,29.22,NE,34,2.0,5.0,85,0.00,,CLR,0.00,VWS V14.01,2013-09-14 13:17:00,
2013-09-14 09:18:00,73.9,69.1,29.22,NNW,327,4.0,5.0,85,0.00,,CLR,0.00,VWS V14.01,2013-09-14 13:18:00,
2013-09-14 09:19:00,73.9,69.1,29.22,NNW,327,6.0,6.0,85,0.00,,CLR,0.00,VWS V14.01,2013-09-14 13:19:00,
2013-09-14 09:20:00,73.9,69.1,29.22,WNW,288,5.0,6.0,85,0.00,,CLR,0.00,VWS V14.01,2013-09-14 13:20:00,
2013-09-14 09:21:00,74.0,69.2,29.22,NNW,346,9.0,9.0,85,0.00,,CLR,0.00,VWS V14.01,2013-09-14 13:21:00,
2013-09-14 09:22:00,74.0,69.2,29.22,NNW,346,9.0,9.0,85,0.00,,CLR,0.00,VWS V14.01,2013-09-14 13:22:00,
2013-09-14 09:23:00,74.0,69.2,29.22,NE,43,5.0,9.0,85,0.00,,CLR,0.00,VWS V14.01,2013-09-14 13:23:00,
2013-09-14 09:24:00,74.0,69.2,28.85,NNE,12,3.0,9.0,85,0.00,,CLR,0.00,VWS V14.01,2013-09-14 13:24:00,
2013-09-14 09:25:00,74.0,69.2,28.85,North,360,3.0,4.0,85,0.00,,CLR,0.00,VWS V14.01,2013-09-14 13:25:00,
2013-09-14 09:26:00,74.4,69.6,28.85,NNE,24,4.0,9.0,85,0.00,,CLR,0.00,VWS V14.01,2013-09-14 13:26:00,
2013-09-14 09:27:00,74.4,69.6,28.85,NNE,24,4.0,9.0,85,0.00,,CLR,0.00,VWS V14.01,2013-09-14 13:27:00,
2013-09-14 09:28:00,74.4,69.6,28.85,East,93,2.0,6.0,85,0.00,,CLR,0.00,VWS V14.01,2013-09-14 13:28:00,
2013-09-14 09:29:00,74.4,69.6,28.85,North,360,2.0,5.0,85,0.00,,CLR,0.00,VWS V14.01,2013-09-14 13:29:00,
2013-09-14 09:30:00,74.6,69.8,28.85,North,360,4.0,9.0,85,0.00,,CLR,0.00,VWS V14.01,2013-09-14 13:30:00,
2013-09-14 09:31:00,74.6,69.8,28.85,NNW,340,4.0,9.0,85,0.00,,CLR,0.00,VWS V14.01,2013-09-14 13:31:00,
2013-09-14 09:32:00,74.6,69.8,28.85,NNW,340,4.0,9.0,85,0.00,,CLR,0.00,VWS V14.01,2013-09-14 13:32:00,
2013-09-14 09:33:00,74.6,69.8,28.85,NW,325,6.0,6.0,85,0.00,,CLR,0.00,VWS V14.01,2013-09-14 13:33:00,
2013-09-14 09:34:00,74.6,69.4,28.47,NE,55,2.0,6.0,84,0.00,,CLR,0.00,VWS V14.01,2013-09-14 13:34:00,
2013-09-14 09:35:00,74.6,69.8,28.47,NE,37,5.0,5.0,85,0.00,,CLR,0.00,VWS V14.01,2013-09-14 13:35:00,
2013-09-14 09:36:00,74.6,69.8,28.47,NNW,346,7.0,11.0,85,0.00,,OVC070,0.00,VWS V14.01,2013-09-14 13:36:00,
2013-09-14 09:37:00,74.6,69.8,28.47,North,360,11.0,11.0,85,0.00,,CLR,0.00,VWS V14.01,2013-09-14 13:37:00,
2013-09-14 09:38:00,74.6,69.8,28.47,North,9,8.0,11.0,85,0.00,,CLR,0.00,VWS V14.01,2013-09-14 13:38:00,
2013-09-14 09:39:00,74.4,69.6,28.47,NNE,22,6.0,8.0,85,0.00,,CLR,0.00,VWS V14.01,2013-09-14 13:39:00,
2013-09-14 09:40:00,74.4,69.6,28.47,NNE,33,3.0,7.0,85,0.00,,CLR,0.00,VWS V14.01,2013-09-14 13:40:00,
2013-09-14 09:41:00,74.4,69.6,28.47,NNW,343,9.0,10.0,85,0.00,,OVC070,0.00,VWS V14.01,2013-09-14 13:41:00,
2013-09-14 09:42:00,74.4,69.6,28.47,NNW,343,9.0,10.0,85,0.00,,CLR,0.00,VWS V14.01,2013-09-14 13:42:00,
2013-09-14 09:43:00,74.4,69.6,28.47,NNW,342,2.0,10.0,85,0.00,,CLR,0.00,VWS V14.01,2013-09-14 13:43:00,
2013-09-14 09:44:00,74.4,69.6,28.47,NNE,33,5.0,8.0,85,0.00,,CLR,0.00,VWS V14.01,2013-09-14 13:44:00,
2013-09-14 09:45:00,74.4,69.6,28.47,NE,45,2.0,10.0,85,0.00,,CLR,0.00,VWS V14.01,2013-09-14 13:45:00,
2013-09-14 09:46:00,74.6,69.8,28.47,NNE,16,5.0,9.0,85,0.00,,OVC070,0.00,VWS V14.01,2013-09-14 13:46:00,
2013-09-14 09:47:00,74.6,69.8,28.47,NNE,16,5.0,9.0,85,0.00,,CLR,0.00,VWS V14.01,2013-09-14 13:47:00,
2013-09-14 09:48:00,74.7,69.9,28.47,NW,309,9.0,12.0,85,0.00,,CLR,0.00,VWS V14.01,2013-09-14 13:48:00,
2013-09-14 09:49:00,74.6,69.8,28.47,North,5,4.0,9.0,85,0.00,,CLR,0.00,VWS V14.01,2013-09-14 13:49:00,
2013-09-14 09:50:00,74.6,69.8,28.47,WNW,284,7.0,8.0,85,0.00,,CLR,0.00,VWS V14.01,2013-09-14 13:50:00,
2013-09-14 09:51:00,74.6,69.8,28.47,NE,34,2.0,7.0,85,0.00,,OVC070,0.00,VWS V14.01,2013-09-14 13:51:00,
2013-09-14 09:52:00,74.6,69.8,28.47,NE,34,2.0,7.0,85,0.00,,CLR,0.00,VWS V14.01,2013-09-14 13:52:00,
2013-09-14 09:53:00,74.6,69.8,28.47,NNW,340,7.0,7.0,85,0.00,,CLR,0.00,VWS V14.01,2013-09-14 13:53:00,
2013-09-14 09:54:00,74.6,69.8,28.47,NNW,341,5.0,10.0,85,0.00,,CLR,0.00,VWS V14.01,2013-09-14 13:54:00,
2013-09-14 09:55:00,74.7,69.9,28.47,NNW,345,4.0,9.0,85,0.00,,CLR,0.00,VWS V14.01,2013-09-14 13:55:00,
2013-09-14 09:56:00,74.7,69.9,28.47,WNW,300,17.0,17.0,85,0.00,,OVC070,0.00,VWS V14.01,2013-09-14 13:56:00,
2013-09-14 09:57:00,74.7,69.9,28.47,WNW,300,17.0,17.0,85,0.00,,CLR,0.00,VWS V14.01,2013-09-14 13:57:00,
2013-09-14 09:58:00,74.7,69.9,28.47,North,350,3.0,17.0,85,0.00,,CLR,0.00,VWS V14.01,2013-09-14 13:58:00,
2013-09-14 09:59:00,74.9,70.4,28.47,North,9,4.0,7.0,86,0.00,,CLR,0.00,VWS V14.01,2013-09-14 13:59:00,
2013-09-14 10:00:00,75.1,70.6,28.47,ENE,68,6.0,6.0,86,0.00,,CLR,0.00,VWS V14.01,2013-09-14 14:00:00,
2013-09-14 10:01:00,75.3,70.5,28.47,NNW,334,3.0,7.0,85,0.00,,OVC070,0.00,VWS V14.01,2013-09-14 14:01:00,
2013-09-14 10:02:00,75.3,70.5,28.47,NNW,334,3.0,7.0,85,0.00,,CLR,0.00,VWS V14.01,2013-09-14 14:02:00,
2013-09-14 10:03:00,75.3,70.5,28.47,North,5,6.0,6.0,85,0.00,,CLR,0.00,VWS V14.01,2013-09-14 14:03:00,
2013-09-14 10:04:00,75.3,70.1,28.47,NNW,328,5.0,11.0,84,0.00,,CLR,0.00,VWS V14.01,2013-09-14 14:04:00,
2013-09-14 10:05:00,75.1,69.9,28.79,NNE,13,4.0,8.0,84,0.00,,CLR,0.00,VWS V14.01,2013-09-14 14:05:00,
2013-09-14 10:06:00,74.9,70.1,28.79,NNE,20,3.0,4.0,85,0.00,,OVC070,0.00,VWS V14.01,2013-09-14 14:06:00,
2013-09-14 10:07:00,74.9,70.1,28.79,NNE,21,4.0,4.0,85,0.00,,CLR,0.00,VWS V14.01,2013-09-14 14:07:00,
2013-09-14 10:08:00,75.1,70.3,28.79,NE,36,2.0,4.0,85,0.00,,CLR,0.00,VWS V14.01,2013-09-14 14:08:00,
2013-09-14 10:09:00,75.1,70.3,28.79,North,5,2.0,6.0,85,0.00,,CLR,0.00,VWS V14.01,2013-09-14 14:09:00,
2013-09-14 10:10:00,75.1,70.3,28.79,North,360,5.0,9.0,85,0.00,,CLR,0.00,VWS V14.01,2013-09-14 14:10:00,
2013-09-14 10:11:00,74.9,70.1,28.79,North,355,9.0,9.0,85,0.00,,OVC070,0.00,VWS V14.01,2013-09-14 14:11:00,
2013-09-14 10:12:00,74.9,70.1,28.79,North,355,9.0,9.0,85,0.00,,CLR,0.00,VWS V14.01,2013-09-14 14:12:00,
2013-09-14 10:13:00,74.9,70.1,28.79,NE,41,4.0,9.0,85,0.00,,CLR,0.00,VWS V14.01,2013-09-14 14:13:00,
2013-09-14 10:14:00,74.9,70.1,28.79,NNE,32,4.0,6.0,85,0.00,,CLR,0.00,VWS V14.01,2013-09-14 14:14:00,
2013-09-14 10:15:00,74.9,70.1,28.79,NE,48,2.0,5.0,85,0.00,,CLR,0.00,VWS V14.01,2013-09-14 14:15:00,
2013-09-14 10:16:00,75.1,70.6,28.79,North,5,3.0,4.0,86,0.00,,OVC070,0.00,VWS V14.01,2013-09-14 14:16:00,
2013-09-14 10:17:00,75.1,70.6,28.79,North,5,3.0,4.0,86,0.00,,CLR,0.00,VWS V14.01,2013-09-14 14:17:00,
2013-09-14 10:18:00,75.1,70.3,28.79,NNW,340,4.0,12.0,85,0.00,,CLR,0.00,VWS V14.01,2013-09-14 14:18:00,
2013-09-14 10:19:00,75.1,70.6,28.79,NNE,19,3.0,5.0,86,0.00,,CLR,0.00,VWS V14.01,2013-09-14 14:19:00,
2013-09-14 10:20:00,75.1,70.6,28.79,North,355,5.0,5.0,86,0.00,,CLR,0.00,VWS V14.01,2013-09-14 14:20:00,
2013-09-14 10:21:00,75.3,70.8,28.79,NNE,21,4.0,6.0,86,0.00,,OVC070,0.00,VWS V14.01,2013-09-14 14:21:00,
2013-09-14 10:22:00,75.3,70.8,28.79,NNE,21,4.0,6.0,86,0.00,,CLR,0.00,VWS V14.01,2013-09-14 14:22:00,
2013-09-14 10:23:00,75.4,70.6,28.79,ENE,65,3.0,4.0,85,0.00,,CLR,0.00,VWS V14.01,2013-09-14 14:23:00,
2013-09-14 10:24:00,75.4,70.6,28.79,NNE,14,4.0,9.0,85,0.00,,CLR,0.00,VWS V14.01,2013-09-14 14:24:00,
2013-09-14 10:25:00,75.4,70.6,28.79,North,9,3.0,5.0,85,0.00,,CLR,0.00,VWS V14.01,2013-09-14 14:25:00,
2013-09-14 10:26:00,75.3,70.5,28.79,North,11,5.0,5.0,85,0.00,,OVC070,0.00,VWS V14.01,2013-09-14 14:26:00,
2013-09-14 10:27:00,75.3,70.5,28.79,North,11,5.0,5.0,85,0.00,,CLR,0.00,VWS V14.01,2013-09-14 14:27:00,
2013-09-14 10:28:00,75.3,70.5,28.79,NNE,14,3.0,5.0,85,0.00,,CLR,0.00,VWS V14.01,2013-09-14 14:28:00,
2013-09-14 10:29:00,75.4,70.9,28.79,NE,41,7.0,7.0,86,0.00,,CLR,0.00,VWS V14.01,2013-09-14 14:29:00,
2013-09-14 10:30:00,75.4,70.9,28.79,NE,35,3.0,7.0,86,0.00,,CLR,0.00,VWS V14.01,2013-09-14 14:30:00,
2013-09-14 10:31:00,75.8,71.3,28.79,NNE,30,1.0,3.0,86,0.00,,OVC070,0.00,VWS V14.01,2013-09-14 14:31:00,
2013-09-14 10:32:00,75.8,71.3,28.79,NNE,30,1.0,3.0,86,0.00,,CLR,0.00,VWS V14.01,2013-09-14 14:32:00,
2013-09-14 10:33:00,75.8,71.3,28.79,NNW,329,5.0,5.0,86,0.00,,CLR,0.00,VWS V14.01,2013-09-14 14:33:00,
2013-09-14 10:34:00,76.0,71.5,28.79,North,5,2.0,7.0,86,0.00,,CLR,0.00,VWS V14.01,2013-09-14 14:34:00,
2013-09-14 10:35:00,76.1,71.6,28.79,ENE,58,11.0,11.0,86,0.00,,CLR,0.00,VWS V14.01,2013-09-14 14:35:00,
2013-09-14 10:36:00,76.3,71.8,28.79,NNE,28,3.0,4.0,86,0.00,,CLR,0.00,VWS V14.01,2013-09-14 14:36:00,
2013-09-14 10:37:00,76.3,71.8,28.79,NNE,28,3.0,4.0,86,0.00,,CLR,0.00,VWS V14.01,2013-09-14 14:37:00,
2013-09-14 10:38:00,76.3,71.8,28.79,ENE,58,7.0,11.0,86,0.00,,CLR,0.00,VWS V14.01,2013-09-14 14:38:00,
2013-09-14 10:39:00,76.5,71.7,28.79,NNW,340,4.0,7.0,85,0.00,,CLR,0.00,VWS V14.01,2013-09-14 14:39:00,
2013-09-14 10:40:00,76.5,71.7,28.79,North,355,3.0,4.0,85,0.00,,CLR,0.00,VWS V14.01,2013-09-14 14:40:00,
2013-09-14 10:41:00,76.8,71.9,28.79,ENE,59,2.0,6.0,85,0.00,,CLR,0.00,VWS V14.01,2013-09-14 14:41:00,
2013-09-14 10:42:00,76.8,71.9,28.79,ENE,59,2.0,6.0,85,0.00,,CLR,0.00,VWS V14.01,2013-09-14 14:42:00,
2013-09-14 10:43:00,76.8,71.9,28.79,NE,50,10.0,11.0,85,0.00,,CLR,0.00,VWS V14.01,2013-09-14 14:43:00,
2013-09-14 10:44:00,77.0,72.2,28.79,NE,36,5.0,10.0,85,0.00,,CLR,0.00,VWS V14.01,2013-09-14 14:44:00,
2013-09-14 10:45:00,77.0,72.2,28.79,ENE,62,3.0,7.0,85,0.00,,CLR,0.00,VWS V14.01,2013-09-14 14:45:00,
2013-09-14 10:46:00,77.4,72.5,28.79,NNE,33,4.0,7.0,85,0.00,,CLR,0.00,VWS V14.01,2013-09-14 14:46:00,
2013-09-14 10:47:00,77.4,72.5,28.79,NNE,33,4.0,7.0,85,0.00,,CLR,0.00,VWS V14.01,2013-09-14 14:47:00,
2013-09-14 10:48:00,77.4,72.5,28.79,NE,38,2.0,5.0,85,0.00,,CLR,0.00,VWS V14.01,2013-09-14 14:48:00,
2013-09-14 10:49:00,77.7,72.8,28.79,North,5,6.0,6.0,85,0.00,,CLR,0.00,VWS V14.01,2013-09-14 14:49:00,
2013-09-14 10:50:00,77.7,72.5,28.79,NE,39,3.0,6.0,84,0.00,,CLR,0.00,VWS V14.01,2013-09-14 14:50:00,
2013-09-14 10:51:00,78.1,72.9,28.79,NE,53,4.0,7.0,84,0.00,,CLR,0.00,VWS V14.01,2013-09-14 14:51:00,
2013-09-14 10:52:00,78.1,72.9,28.79,NE,53,4.0,7.0,84,0.00,,CLR,0.00,VWS V14.01,2013-09-14 14:52:00,
2013-09-14 10:53:00,78.3,73.4,28.79,NNE,19,5.0,5.0,85,0.00,,CLR,0.00,VWS V14.01,2013-09-14 14:53:00,
2013-09-14 10:54:00,78.3,73.1,28.79,North,11,3.0,5.0,84,0.00,,CLR,0.00,VWS V14.01,2013-09-14 14:54:00,
2013-09-14 10:55:00,78.5,73.3,28.79,ENE,74,3.0,5.0,84,0.00,,CLR,0.00,VWS V14.01,2013-09-14 14:55:00,
2013-09-14 10:56:00,78.6,73.4,28.18,ENE,58,3.0,5.0,84,0.00,,CLR,0.00,VWS V14.01,2013-09-14 14:56:00,
2013-09-14 10:57:00,78.6,73.4,28.18,NE,36,7.0,7.0,84,0.00,,CLR,0.00,VWS V14.01,2013-09-14 14:57:00,
2013-09-14 10:58:00,78.5,72.9,28.18,NE,53,6.0,11.0,83,0.00,,CLR,0.00,VWS V14.01,2013-09-14 14:58:00,
2013-09-14 10:59:00,78.5,72.9,28.18,NE,44,5.0,13.0,83,0.00,,CLR,0.00,VWS V14.01,2013-09-14 14:59:00,
2013-09-14 11:00:00,78.3,72.7,28.29,NNW,333,4.0,11.0,83,0.00,,CLR,0.00,VWS V14.01,2013-09-14 15:00:00,
2013-09-14 11:01:00,78.3,72.7,28.29,NE,38,4.0,11.0,83,0.00,,CLR,0.00,VWS V14.01,2013-09-14 15:01:00,
2013-09-14 11:02:00,78.3,72.7,28.29,NE,36,2.0,11.0,83,0.00,,CLR,0.00,VWS V14.01,2013-09-14 15:02:00,
2013-09-14 11:03:00,78.3,73.1,28.29,NE,41,6.0,6.0,84,0.00,,CLR,0.00,VWS V14.01,2013-09-14 15:03:00,
2013-09-14 11:04:00,78.3,73.1,28.29,ENE,59,4.0,8.0,84,0.00,,CLR,0.00,VWS V14.01,2013-09-14 15:04:00,
2013-09-14 11:05:00,78.3,73.1,28.29,ENE,71,3.0,6.0,84,0.00,,CLR,0.00,VWS V14.01,2013-09-14 15:05:00,
2013-09-14 11:06:00,78.5,73.3,28.29,North,355,4.0,6.0,84,0.00,,CLR,0.00,VWS V14.01,2013-09-14 15:06:00,
2013-09-14 11:07:00,78.5,73.3,28.29,ESE,112,1.0,6.0,84,0.00,,CLR,0.00,VWS V14.01,2013-09-14 15:07:00,
2013-09-14 11:08:00,78.6,73.4,28.29,East,95,0.0,4.0,84,0.00,,CLR,0.00,VWS V14.01,2013-09-14 15:08:00,
2013-09-14 11:09:00,78.6,73.4,28.29,East,95,1.0,2.0,84,0.00,,CLR,0.00,VWS V14.01,2013-09-14 15:09:00,
2013-09-14 11:10:00,78.8,73.6,28.29,NE,37,5.0,9.0,84,0.00,,CLR,0.00,VWS V14.01,2013-09-14 15:10:00,
2013-09-14 11:11:00,78.8,73.2,28.29,NE,45,5.0,7.0,83,0.00,,CLR,0.00,VWS V14.01,2013-09-14 15:11:00,
2013-09-14 11:12:00,78.8,73.2,28.29,NE,45,5.0,7.0,83,0.00,,CLR,0.00,VWS V14.01,2013-09-14 15:12:00,
2013-09-14 11:13:00,79.0,73.4,28.29,ENE,72,5.0,9.0,83,0.00,,CLR,0.00,VWS V14.01,2013-09-14 15:13:00,
2013-09-14 11:14:00,79.2,73.9,28.29,ENE,59,9.0,9.0,84,0.00,,CLR,0.00,VWS V14.01,2013-09-14 15:14:00,
2013-09-14 11:15:00,79.2,73.6,28.29,ENE,61,3.0,9.0,83,0.00,,CLR,0.00,VWS V14.01,2013-09-14 15:15:00,
2013-09-14 11:16:00,79.4,73.8,28.18,NE,40,4.0,7.0,83,0.00,,CLR,0.00,VWS V14.01,2013-09-14 15:16:00,
2013-09-14 11:17:00,79.4,73.8,28.18,NE,40,4.0,7.0,83,0.00,,CLR,0.00,VWS V14.01,2013-09-14 15:17:00,
2013-09-14 11:18:00,79.4,73.8,28.18,NNE,30,10.0,10.0,83,0.00,,CLR,0.00,VWS V14.01,2013-09-14 15:18:00,
2013-09-14 11:19:00,79.4,73.8,28.18,NE,55,9.0,10.0,83,0.00,,CLR,0.00,VWS V14.01,2013-09-14 15:19:00,
2013-09-14 11:20:00,79.4,73.8,28.18,NE,48,6.0,10.0,83,0.00,,CLR,0.00,VWS V14.01,2013-09-14 15:20:00,
2013-09-14 11:21:00,79.2,73.6,28.18,ENE,69,5.0,5.0,83,0.00,,CLR,0.00,VWS V14.01,2013-09-14 15:21:00,
2013-09-14 11:22:00,79.2,73.6,28.18,ENE,69,5.0,5.0,83,0.00,,CLR,0.00,VWS V14.01,2013-09-14 15:22:00,
2013-09-14 11:23:00,79.4,74.2,28.18,NE,47,8.0,9.0,84,0.00,,CLR,0.00,VWS V14.01,2013-09-14 15:23:00,
2013-09-14 11:24:00,79.4,73.8,29.00,NE,49,5.0,9.0,83,0.00,,CLR,0.00,VWS V14.01,2013-09-14 15:24:00,
2013-09-14 11:25:00,79.4,73.8,29.00,NE,43,7.0,7.0,83,0.00,,CLR,0.00,VWS V14.01,2013-09-14 15:25:00,
2013-09-14 11:26:00,79.6,74.0,29.00,NE,48,11.0,11.0,83,0.00,,CLR,0.00,VWS V14.01,2013-09-14 15:26:00,
2013-09-14 11:27:00,79.6,74.0,29.00,ENE,61,9.0,11.0,83,0.00,,CLR,0.00,VWS V14.01,2013-09-14 15:27:00,
2013-09-14 11:28:00,79.6,74.3,29.00,NE,50,10.0,10.0,84,0.00,,CLR,0.00,VWS V14.01,2013-09-14 15:28:00,
2013-09-14 11:29:00,79.6,74.0,29.00,NE,51,7.0,10.0,83,0.00,,CLR,0.00,VWS V14.01,2013-09-14 15:29:00,
2013-09-14 11:30:00,79.6,74.0,29.00,NE,43,7.0,11.0,83,0.00,,CLR,0.00,VWS V14.01,2013-09-14 15:30:00,
2013-09-14 11:31:00,79.8,74.5,29.00,NE,35,7.0,7.0,84,0.00,,CLR,0.00,VWS V14.01,2013-09-14 15:31:00,
2013-09-14 11:32:00,79.8,74.2,29.00,NE,53,7.0,7.0,83,0.00,,CLR,0.00,VWS V14.01,2013-09-14 15:32:00,
2013-09-14 11:33:00,79.8,74.2,29.00,NE,47,5.0,11.0,83,0.00,,CLR,0.00,VWS V14.01,2013-09-14 15:33:00,
2013-09-14 11:34:00,79.8,74.2,29.00,NE,34,4.0,6.0,83,0.00,,CLR,0.00,VWS V14.01,2013-09-14 15:34:00,
2013-09-14 11:35:00,79.8,74.2,29.00,ENE,73,3.0,4.0,83,0.00,,CLR,0.00,VWS V14.01,2013-09-14 15:35:00,
2013-09-14 11:36:00,79.8,74.2,29.00,NE,36,6.0,9.0,83,0.00,,CLR,0.00,VWS V14.01,2013-09-14 15:36:00,
2013-09-14 11:37:00,79.8,74.2,29.00,NE,36,3.0,9.0,83,0.00,,CLR,0.00,VWS V14.01,2013-09-14 15:37:00,
2013-09-14 11:38:00,79.8,74.2,29.00,ENE,63,6.0,8.0,83,0.00,,CLR,0.00,VWS V14.01,2013-09-14 15:38:00,
2013-09-14 11:39:00,79.8,74.2,29.00,NE,36,7.0,7.0,83,0.00,,CLR,0.00,VWS V14.01,2013-09-14 15:39:00,
2013-09-14 11:40:00,79.8,74.2,29.00,ENE,66,7.0,11.0,83,0.00,,CLR,0.00,VWS V14.01,2013-09-14 15:40:00,
2013-09-14 11:41:00,79.8,74.2,28.83,ENE,67,7.0,13.0,83,0.00,,CLR,0.00,VWS V14.01,2013-09-14 15:41:00,
2013-09-14 11:42:00,79.8,74.2,28.83,ENE,69,7.0,13.0,83,0.00,,CLR,0.00,VWS V14.01,2013-09-14 15:42:00,
2013-09-14 11:43:00,79.6,74.0,28.83,ENE,63,11.0,13.0,83,0.00,,CLR,0.00,VWS V14.01,2013-09-14 15:43:00,
2013-09-14 11:44:00,79.4,73.8,28.83,ENE,67,10.0,11.0,83,0.00,,CLR,0.00,VWS V14.01,2013-09-14 15:44:00,
2013-09-14 11:45:00,79.6,74.3,28.83,NNE,33,5.0,10.0,84,0.00,,CLR,0.00,VWS V14.01,2013-09-14 15:45:00,
2013-09-14 11:46:00,79.6,74.3,28.97,NE,51,5.0,10.0,84,0.00,,CLR,0.00,VWS V14.01,2013-09-14 15:46:00,
2013-09-14 11:47:00,79.6,74.3,28.97,NE,40,9.0,10.0,84,0.00,,CLR,0.00,VWS V14.01,2013-09-14 15:47:00,
2013-09-14 11:48:00,79.4,73.8,28.97,NE,53,6.0,10.0,83,0.00,,CLR,0.00,VWS V14.01,2013-09-14 15:48:00,
2013-09-14 11:49:00,79.4,74.2,28.97,ENE,57,6.0,13.0,84,0.00,,CLR,0.00,VWS V14.01,2013-09-14 15:49:00,
2013-09-14 11:50:00,79.4,74.2,28.97,NE,53,4.0,10.0,84,0.00,,CLR,0.00,VWS V14.01,2013-09-14 15:50:00,
2013-09-14 11:51:00,79.2,73.9,28.97,NE,38,9.0,13.0,84,0.00,,BKN017,0.00,VWS V14.01,2013-09-14 15:51:00,
2013-09-14 11:52:00,79.2,73.9,28.97,ENE,66,10.0,13.0,84,0.00,,CLR,0.00,VWS V14.01,2013-09-14 15:52:00,
2013-09-14 11:53:00,79.4,74.5,28.97,NNE,32,3.0,10.0,85,0.00,,CLR,0.00,VWS V14.01,2013-09-14 15:53:00,
2013-09-14 11:54:00,79.6,74.7,28.97,NE,42,3.0,3.0,85,0.00,,CLR,0.00,VWS V14.01,2013-09-14 15:54:00,
2013-09-14 11:55:00,79.6,74.7,28.97,NE,36,10.0,10.0,85,0.00,,CLR,0.00,VWS V14.01,2013-09-14 15:55:00,
2013-09-14 11:56:00,79.8,74.5,28.97,NE,51,10.0,12.0,84,0.00,,BKN017,0.00,VWS V14.01,2013-09-14 15:56:00,
2013-09-14 11:57:00,79.8,74.5,28.97,NE,51,10.0,12.0,84,0.00,,CLR,0.00,VWS V14.01,2013-09-14 15:57:00,
2013-09-14 11:58:00,79.6,74.0,28.97,ENE,63,4.0,10.0,83,0.00,,CLR,0.00,VWS V14.01,2013-09-14 15:58:00,
2013-09-14 11:59:00,79.8,74.5,28.97,NE,55,5.0,5.0,84,0.00,,CLR,0.00,VWS V14.01,2013-09-14 15:59:00,
2013-09-14 12:00:00,79.8,74.5,28.68,ENE,59,11.0,13.0,84,0.00,,CLR,0.00,VWS V14.01,2013-09-14 16:00:00,
2013-09-14 12:01:00,79.6,74.3,28.68,NW,322,9.0,10.0,84,0.00,,BKN017,0.00,VWS V14.01,2013-09-14 16:01:00,
2013-09-14 12:02:00,79.6,74.3,28.68,NW,322,9.0,10.0,84,0.00,,CLR,0.00,VWS V14.01,2013-09-14 16:02:00,
2013-09-14 12:03:00,79.6,74.3,28.68,NNE,20,4.0,9.0,84,0.00,,CLR,0.00,VWS V14.01,2013-09-14 16:03:00,
2013-09-14 12:04:00,79.6,74.3,28.68,NNW,346,6.0,12.0,84,0.00,,CLR,0.00,VWS V14.01,2013-09-14 16:04:00,
2013-09-14 12:05:00,79.6,74.7,28.68,NNE,29,4.0,6.0,85,0.00,,CLR,0.00,VWS V14.01,2013-09-14 16:05:00,
2013-09-14 12:06:00,79.6,74.3,28.92,NNE,28,7.0,13.0,84,0.00,,BKN017,0.00,VWS V14.01,2013-09-14 16:06:00,
2013-09-14 12:07:00,79.6,74.3,28.92,NNE,28,7.0,13.0,84,0.00,,CLR,0.00,VWS V14.01,2013-09-14 16:07:00,
2013-09-14 12:08:00,79.6,74.7,28.92,ENE,60,2.0,10.0,85,0.00,,CLR,0.00,VWS V14.01,2013-09-14 16:08:00,
2013-09-14 12:09:00,79.8,74.9,28.92,NE,50,6.0,8.0,85,0.00,,CLR,0.00,VWS V14.01,2013-09-14 16:09:00,
2013-09-14 12:10:00,79.8,74.9,28.92,NE,42,11.0,13.0,85,0.00,,CLR,0.00,VWS V14.01,2013-09-14 16:10:00,
2013-09-14 12:11:00,79.8,74.5,28.92,NNE,30,10.0,11.0,84,0.00,,BKN017,0.00,VWS V14.01,2013-09-14 16:11:00,
2013-09-14 12:12:00,79.8,74.5,28.92,NNE,30,10.0,11.0,84,0.00,,CLR,0.00,VWS V14.01,2013-09-14 16:12:00,
2013-09-14 12:13:00,79.8,74.5,28.92,NNE,25,5.0,12.0,84,0.00,,CLR,0.00,VWS V14.01,2013-09-14 16:13:00,
2013-09-14 12:14:00,79.9,75.0,28.92,NNE,15,9.0,9.0,85,0.00,,CLR,0.00,VWS V14.01,2013-09-14 16:14:00,
2013-09-14 12:15:00,79.9,75.0,28.92,ENE,75,12.0,12.0,85,0.00,,CLR,0.00,VWS V14.01,2013-09-14 16:15:00,
2013-09-14 12:16:00,79.9,74.6,28.92,ENE,58,3.0,12.0,84,0.00,,BKN017,0.00,VWS V14.01,2013-09-14 16:16:00,
2013-09-14 12:17:00,80.1,75.2,28.92,East,86,3.0,12.0,85,0.00,,CLR,0.00,VWS V14.01,2013-09-14 16:17:00,
2013-09-14 12:18:00,80.1,75.2,28.92,NE,45,7.0,9.0,85,0.00,,CLR,0.00,VWS V14.01,2013-09-14 16:18:00,
2013-09-14 12:19:00,80.3,75.4,28.92,ENE,76,2.0,7.0,85,0.00,,CLR,0.00,VWS V14.01,2013-09-14 16:19:00,
2013-09-14 12:20:00,80.3,75.4,28.92,ENE,62,7.0,7.0,85,0.00,,CLR,0.00,VWS V14.01,2013-09-14 16:20:00,
2013-09-14 12:21:00,80.5,75.6,28.92,NNE,26,7.0,7.0,85,0.00,,BKN017,0.00,VWS V14.01,2013-09-14 16:21:00,
2013-09-14 12:22:00,80.7,75.8,28.92,North,5,9.0,9.0,85,0.00,,CLR,0.00,VWS V14.01,2013-09-14 16:22:00,
2013-09-14 12:23:00,80.7,75.4,28.92,NNE,19,3.0,10.0,84,0.00,,CLR,0.00,VWS V14.01,2013-09-14 16:23:00,
2013-09-14 12:24:00,80.7,75.4,28.92,NE,42,7.0,9.0,84,0.00,,CLR,0.00,VWS V14.01,2013-09-14 16:24:00,
2013-09-14 12:25:00,80.7,75.4,28.92,North,360,2.0,7.0,84,0.00,,CLR,0.00,VWS V14.01,2013-09-14 16:25:00,
2013-09-14 12:26:00,80.9,75.6,28.92,ENE,76,5.0,12.0,84,0.00,,BKN017,0.00,VWS V14.01,2013-09-14 16:26:00,
2013-09-14 12:27:00,80.9,75.6,28.92,ENE,76,5.0,12.0,84,0.00,,CLR,0.00,VWS V14.01,2013-09-14 16:27:00,
2013-09-14 12:28:00,80.9,75.6,28.92,NNE,32,6.0,7.0,84,0.00,,CLR,0.00,VWS V14.01,2013-09-14 16:28:00,
2013-09-14 12:29:00,81.1,75.8,28.92,NE,51,2.0,8.0,84,0.00,,CLR,0.00,VWS V14.01,2013-09-14 16:29:00,
2013-09-14 12:30:00,81.1,75.8,28.92,ENE,58,13.0,13.0,84,0.00,,CLR,0.00,VWS V14.01,2013-09-14 16:30:00,
2013-09-14 12:31:00,81.1,75.8,28.92,NE,36,5.0,8.0,84,0.00,,BKN017,0.00,VWS V14.01,2013-09-14 16:31:00,
2013-09-14 12:32:00,81.1,75.8,28.92,NE,36,5.0,8.0,84,0.00,,CLR,0.00,VWS V14.01,2013-09-14 16:32:00,
2013-09-14 12:33:00,81.1,76.2,28.92,ENE,57,5.0,6.0,85,0.00,,CLR,0.00,VWS V14.01,2013-09-14 16:33:00,
2013-09-14 12:34:00,81.2,76.3,28.92,NE,51,7.0,7.0,85,0.00,,CLR,0.00,VWS V14.01,2013-09-14 16:34:00,
2013-09-14 12:35:00,81.4,76.5,28.92,East,79,6.0,7.0,85,0.00,,CLR,0.00,VWS V14.01,2013-09-14 16:35:00,
2013-09-14 12:36:00,81.6,76.3,28.92,ENE,68,10.0,12.0,84,0.00,,BKN018,0.00,VWS V14.01,2013-09-14 16:36:00,
2013-09-14 12:37:00,81.6,76.3,28.92,ENE,68,10.0,12.0,84,0.00,,CLR,0.00,VWS V14.01,2013-09-14 16:37:00,
2013-09-14 12:38:00,81.6,76.3,28.58,ENE,64,13.0,16.0,84,0.00,,CLR,0.00,VWS V14.01,2013-09-14 16:38:00,
2013-09-14 12:39:00,81.6,76.3,28.58,NE,49,6.0,14.0,84,0.00,,CLR,0.00,VWS V14.01,2013-09-14 16:39:00,
2013-09-14 12:40:00,81.6,76.3,28.58,NE,45,7.0,14.0,84,0.00,,CLR,0.00,VWS V14.01,2013-09-14 16:40:00,
2013-09-14 12:41:00,81.6,76.3,28.58,East,88,3.0,7.0,84,0.00,,BKN018,0.00,VWS V14.01,2013-09-14 16:41:00,
2013-09-14 12:42:00,81.6,76.3,28.58,East,88,3.0,7.0,84,0.00,,CLR,0.00,VWS V14.01,2013-09-14 16:42:00,
2013-09-14 12:43:00,81.8,76.8,28.58,NE,42,5.0,8.0,85,0.00,,CLR,0.00,VWS V14.01,2013-09-14 16:43:00,
2013-09-14 12:44:00,82.0,77.1,28.58,ENE,66,5.0,6.0,85,0.00,,CLR,0.00,VWS V14.01,2013-09-14 16:44:00,
2013-09-14 12:45:00,82.0,77.1,28.58,NE,49,11.0,11.0,85,0.00,,CLR,0.00,VWS V14.01,2013-09-14 16:45:00,
2013-09-14 12:46:00,81.8,76.5,28.58,ENE,73,4.0,11.0,84,0.00,,BKN018,0.00,VWS V14.01,2013-09-14 16:46:00,
2013-09-14 12:47:00,81.8,76.5,28.58,ENE,73,4.0,11.0,84,0.00,,CLR,0.00,VWS V14.01,2013-09-14 16:47:00,
2013-09-14 12:48:00,81.8,76.5,28.58,ENE,67,5.0,7.0,84,0.00,,CLR,0.00,VWS V14.01,2013-09-14 16:48:00,
2013-09-14 12:49:00,82.0,76.7,28.58,ENE,69,6.0,9.0,84,0.00,,CLR,0.00,VWS V14.01,2013-09-14 16:49:00,
2013-09-14 12:50:00,82.0,76.7,28.58,NE,41,10.0,10.0,84,0.00,,CLR,0.00,VWS V14.01,2013-09-14 16:50:00,
2013-09-14 12:51:00,82.2,76.9,28.58,ENE,59,9.0,9.0,84,0.00,,SCT021,0.00,VWS V14.01,2013-09-14 16:51:00,
2013-09-14 12:52:00,82.2,76.9,28.58,ENE,59,9.0,9.0,84,0.00,,CLR,0.00,VWS V14.01,2013-09-14 16:52:00,
2013-09-14 12:53:00,82.2,76.9,28.58,NE,53,5.0,9.0,84,0.00,,CLR,0.00,VWS V14.01,2013-09-14 16:53:00,
2013-09-14 12:54:00,82.2,76.9,28.58,NNE,26,5.0,13.0,84,0.00,,CLR,0.00,VWS V14.01,2013-09-14 16:54:00,
2013-09-14 12:55:00,82.2,76.9,28.58,ENE,69,6.0,10.0,84,0.00,,CLR,0.00,VWS V14.01,2013-09-14 16:55:00,
2013-09-14 12:56:00,82.0,76.3,28.58,ENE,73,7.0,13.0,83,0.00,,SCT021,0.00,VWS V14.01,2013-09-14 16:56:00,
2013-09-14 12:57:00,82.0,76.3,28.58,NE,51,3.0,13.0,83,0.00,,CLR,0.00,VWS V14.01,2013-09-14 16:57:00,
2013-09-14 12:58:00,82.0,76.7,28.58,ENE,72,1.0,5.0,84,0.00,,CLR,0.00,VWS V14.01,2013-09-14 16:58:00,
2013-09-14 12:59:00,82.0,76.7,28.58,NNE,17,6.0,6.0,84,0.00,,CLR,0.00,VWS V14.01,2013-09-14 16:59:00,
2013-09-14 13:00:00,82.0,76.7,28.91,NE,54,14.0,14.0,84,0.00,,CLR,0.00,VWS V14.01,2013-09-14 17:00:00,
2013-09-14 13:01:00,81.8,76.5,28.91,NE,51,5.0,11.0,84,0.00,,SCT021,0.00,VWS V14.01,2013-09-14 17:01:00,
2013-09-14 13:02:00,81.8,76.8,28.91,ENE,67,5.0,11.0,85,0.00,,CLR,0.00,VWS V14.01,2013-09-14 17:02:00,
2013-09-14 13:03:00,81.8,76.8,28.91,NE,36,5.0,13.0,85,0.00,,CLR,0.00,VWS V14.01,2013-09-14 17:03:00,
2013-09-14 13:04:00,81.8,76.8,28.91,ENE,59,9.0,10.0,85,0.00,,CLR,0.00,VWS V14.01,2013-09-14 17:04:00,
2013-09-14 13:05:00,81.8,76.8,28.91,NW,304,6.0,9.0,85,0.00,,CLR,0.00,VWS V14.01,2013-09-14 17:05:00,
2013-09-14 13:06:00,82.0,77.4,28.91,NE,55,8.0,9.0,86,0.00,,SCT021,0.00,VWS V14.01,2013-09-14 17:06:00,
2013-09-14 13:07:00,82.0,77.4,28.91,NE,55,8.0,9.0,86,0.00,,CLR,0.00,VWS V14.01,2013-09-14 17:07:00,
2013-09-14 13:08:00,82.0,77.1,28.91,NE,39,8.0,10.0,85,0.00,,CLR,0.00,VWS V14.01,2013-09-14 17:08:00,
2013-09-14 13:09:00,82.2,77.2,28.91,ENE,60,5.0,8.0,85,0.00,,CLR,0.00,VWS V14.01,2013-09-14 17:09:00,
2013-09-14 13:10:00,82.2,77.2,28.91,ENE,60,7.0,8.0,85,0.00,,CLR,0.00,VWS V14.01,2013-09-14 17:10:00,
2013-09-14 13:11:00,82.2,77.2,28.91,NE,55,3.0,9.0,85,0.00,,SCT021,0.00,VWS V14.01,2013-09-14 17:11:00,
2013-09-14 13:12:00,82.2,77.2,28.91,NE,55,3.0,9.0,85,0.00,,CLR,0.00,VWS V14.01,2013-09-14 17:12:00,
2013-09-14 13:13:00,82.2,77.2,28.91,NNW,343,5.0,5.0,85,0.00,,CLR,0.00,VWS V14.01,2013-09-14 17:13:00,
2013-09-14 13:14:00,82.4,77.4,28.91,NE,56,4.0,5.0,85,0.00,,CLR,0.00,VWS V14.01,2013-09-14 17:14:00,
2013-09-14 13:15:00,82.4,77.4,28.91,NNE,27,3.0,4.0,85,0.00,,CLR,0.00,VWS V14.01,2013-09-14 17:15:00,
2013-09-14 13:16:00,82.6,77.6,28.91,ENE,66,4.0,5.0,85,0.00,,SCT021,0.00,VWS V14.01,2013-09-14 17:16:00,
2013-09-14 13:17:00,82.6,77.6,28.91,ENE,66,4.0,5.0,85,0.00,,CLR,0.00,VWS V14.01,2013-09-14 17:17:00,
2013-09-14 13:18:00,82.6,77.6,28.91,NE,53,14.0,14.0,85,0.00,,CLR,0.00,VWS V14.01,2013-09-14 17:18:00,
2013-09-14 13:19:00,82.4,76.7,28.91,NNE,29,12.0,15.0,83,0.00,,CLR,0.00,VWS V14.01,2013-09-14 17:19:00,
2013-09-14 13:20:00,82.2,76.9,28.91,NE,39,12.0,12.0,84,0.00,,CLR,0.00,VWS V14.01,2013-09-14 17:20:00,
2013-09-14 13:21:00,82.2,76.9,28.91,NNE,28,9.0,11.0,84,0.00,,SCT021,0.00,VWS V14.01,2013-09-14 17:21:00,
2013-09-14 13:22:00,82.2,76.9,28.91,NNE,28,9.0,11.0,84,0.00,,CLR,0.00,VWS V14.01,2013-09-14 17:22:00,
2013-09-14 13:23:00,82.2,77.2,28.91,ENE,65,9.0,9.0,85,0.00,,CLR,0.00,VWS V14.01,2013-09-14 17:23:00,
2013-09-14 13:24:00,82.2,76.9,28.91,ENE,58,6.0,11.0,84,0.00,,CLR,0.00,VWS V14.01,2013-09-14 17:24:00,
2013-09-14 13:25:00,82.4,77.4,28.91,NE,48,9.0,9.0,85,0.00,,CLR,0.00,VWS V14.01,2013-09-14 17:25:00,
2013-09-14 13:26:00,82.4,77.1,29.17,ENE,58,4.0,9.0,84,0.00,,SCT021,0.00,VWS V14.01,2013-09-14 17:26:00,
2013-09-14 13:27:00,82.4,77.1,29.17,NE,48,6.0,9.0,84,0.00,,CLR,0.00,VWS V14.01,2013-09-14 17:27:00,
2013-09-14 13:28:00,82.4,77.4,29.17,NE,46,3.0,6.0,85,0.00,,CLR,0.00,VWS V14.01,2013-09-14 17:28:00,
2013-09-14 13:29:00,82.4,77.4,29.01,NE,36,3.0,15.0,85,0.00,,CLR,0.00,VWS V14.01,2013-09-14 17:29:00,
2013-09-14 13:30:00,82.6,77.6,29.01,NNW,342,9.0,9.0,85,0.00,,CLR,0.00,VWS V14.01,2013-09-14 17:30:00,
2013-09-14 13:31:00,82.6,77.6,29.14,NE,40,10.0,10.0,85,0.00,,SCT021,0.00,VWS V14.01,2013-09-14 17:31:00,
2013-09-14 13:32:00,82.6,77.6,29.14,NE,44,12.0,12.0,85,0.00,,CLR,0.00,VWS V14.01,2013-09-14 17:32:00,
2013-09-14 13:33:00,82.6,77.6,29.14,ENE,62,8.0,14.0,85,0.00,,CLR,0.00,VWS V14.01,2013-09-14 17:33:00,
2013-09-14 13:34:00,82.6,77.6,29.14,NE,55,2.0,8.0,85,0.00,,CLR,0.00,VWS V14.01,2013-09-14 17:34:00,
2013-09-14 13:35:00,82.6,77.6,29.14,NE,56,4.0,4.0,85,0.00,,CLR,0.00,VWS V14.01,2013-09-14 17:35:00,
2013-09-14 13:36:00,82.6,77.3,29.14,ENE,76,10.0,13.0,84,0.00,,FEW024,0.00,VWS V14.01,2013-09-14 17:36:00,
2013-09-14 13:37:00,82.6,77.3,29.14,NE,49,12.0,13.0,84,0.00,,CLR,0.00,VWS V14.01,2013-09-14 17:37:00,
2013-09-14 13:38:00,82.6,77.3,29.14,NE,47,13.0,13.0,84,0.00,,CLR,0.00,VWS V14.01,2013-09-14 17:38:00,
2013-09-14 13:39:00,82.6,77.3,28.75,NE,55,12.0,13.0,84,0.00,,CLR,0.00,VWS V14.01,2013-09-14 17:39:00,
2013-09-14 13:40:00,82.4,77.1,28.75,NE,53,14.0,14.0,84,0.00,,CLR,0.00,VWS V14.01,2013-09-14 17:40:00,
2013-09-14 13:41:00,82.2,76.9,28.75,ENE,70,11.0,12.0,84,0.00,,FEW024,0.00,VWS V14.01,2013-09-14 17:41:00,
2013-09-14 13:42:00,82.2,76.9,28.75,North,360,7.0,12.0,84,0.00,,CLR,0.00,VWS V14.01,2013-09-14 17:42:00,
2013-09-14 13:43:00,82.2,77.2,28.75,ENE,67,13.0,13.0,85,0.00,,CLR,0.00,VWS V14.01,2013-09-14 17:43:00,
2013-09-14 13:44:00,82.4,77.4,28.75,NE,49,7.0,13.0,85,0.00,,CLR,0.00,VWS V14.01,2013-09-14 17:44:00,
2013-09-14 13:45:00,82.4,77.4,28.75,ENE,76,4.0,7.0,85,0.00,,CLR,0.00,VWS V14.01,2013-09-14 17:45:00,
2013-09-14 13:46:00,82.6,77.6,28.75,North,355,6.0,9.0,85,0.00,,FEW024,0.00,VWS V14.01,2013-09-14 17:46:00,
2013-09-14 13:47:00,82.6,77.6,28.75,ENE,59,9.0,9.0,85,0.00,,CLR,0.00,VWS V14.01,2013-09-14 17:47:00,
2013-09-14 13:48:00,82.8,77.5,28.75,NE,49,9.0,11.0,84,0.00,,CLR,0.00,VWS V14.01,2013-09-14 17:48:00,
2013-09-14 13:49:00,82.8,77.5,28.75,ENE,65,10.0,10.0,84,0.00,,CLR,0.00,VWS V14.01,2013-09-14 17:49:00,
2013-09-14 13:50:00,83.0,77.7,29.11,ENE,61,2.0,10.0,84,0.00,,CLR,0.00,VWS V14.01,2013-09-14 17:50:00,
2013-09-14 13:51:00,83.0,77.7,29.11,ENE,64,4.0,10.0,84,0.00,,FEW024,0.00,VWS V14.01,2013-09-14 17:51:00,
2013-09-14 13:52:00,83.0,77.7,29.11,NE,55,9.0,10.0,84,0.00,,CLR,0.00,VWS V14.01,2013-09-14 17:52:00,
2013-09-14 13:53:00,83.2,77.9,29.11,North,355,10.0,10.0,84,0.00,,CLR,0.00,VWS V14.01,2013-09-14 17:53:00,
2013-09-14 13:54:00,83.2,77.9,29.11,NE,52,7.0,12.0,84,0.00,,CLR,0.00,VWS V14.01,2013-09-14 17:54:00,
2013-09-14 13:55:00,83.2,77.9,29.11,NE,50,10.0,10.0,84,0.00,,CLR,0.00,VWS V14.01,2013-09-14 17:55:00,
2013-09-14 13:56:00,83.0,77.7,29.11,NNW,340,7.0,15.0,84,0.00,,FEW024,0.00,VWS V14.01,2013-09-14 17:56:00,
2013-09-14 13:57:00,83.0,77.7,29.11,NNW,340,7.0,15.0,84,0.00,,CLR,0.00,VWS V14.01,2013-09-14 17:57:00,
2013-09-14 13:58:00,83.0,77.7,29.11,NE,54,2.0,7.0,84,0.00,,CLR,0.00,VWS V14.01,2013-09-14 17:58:00,
2013-09-14 13:59:00,82.8,77.5,29.11,ENE,71,15.0,15.0,84,0.00,,CLR,0.00,VWS V14.01,2013-09-14 17:59:00,
2013-09-14 14:00:00,82.8,77.5,29.11,NE,53,8.0,15.0,84,0.00,,CLR,0.00,VWS V14.01,2013-09-14 18:00:00,
2013-09-14 14:01:00,83.0,77.7,29.11,NE,36,2.0,5.0,84,0.00,,FEW024,0.00,VWS V14.01,2013-09-14 18:01:00,
2013-09-14 14:02:00,83.0,77.7,29.11,NE,36,2.0,5.0,84,0.00,,CLR,0.00,VWS V14.01,2013-09-14 18:02:00,
2013-09-14 14:03:00,83.0,77.7,29.11,NE,54,4.0,10.0,84,0.00,,CLR,0.00,VWS V14.01,2013-09-14 18:03:00,
2013-09-14 14:04:00,83.0,77.7,29.11,North,355,5.0,11.0,84,0.00,,CLR,0.00,VWS V14.01,2013-09-14 18:04:00,
2013-09-14 14:05:00,83.2,77.9,29.11,NE,46,8.0,8.0,84,0.00,,CLR,0.00,VWS V14.01,2013-09-14 18:05:00,
2013-09-14 14:06:00,83.2,77.9,29.11,ENE,58,5.0,7.0,84,0.00,,FEW024,0.00,VWS V14.01,2013-09-14 18:06:00,
2013-09-14 14:07:00,83.2,77.9,29.11,ENE,59,5.0,7.0,84,0.00,,CLR,0.00,VWS V14.01,2013-09-14 18:07:00,
2013-09-14 14:08:00,83.2,77.5,29.11,NNE,33,3.0,7.0,83,0.00,,CLR,0.00,VWS V14.01,2013-09-14 18:08:00,
2013-09-14 14:09:00,83.4,77.7,29.11,NE,48,6.0,7.0,83,0.00,,CLR,0.00,VWS V14.01,2013-09-14 18:09:00,
2013-09-14 14:10:00,83.4,77.7,29.11,East,80,5.0,9.0,83,0.00,,CLR,0.00,VWS V14.01,2013-09-14 18:10:00,
2013-09-14 14:11:00,83.8,78.1,29.11,ENE,57,11.0,11.0,83,0.00,,FEW024,0.00,VWS V14.01,2013-09-14 18:11:00,
2013-09-14 14:12:00,83.8,78.1,29.11,ENE,61,13.0,13.0,83,0.00,,CLR,0.00,VWS V14.01,2013-09-14 18:12:00,
2013-09-14 14:13:00,83.6,77.5,29.11,NE,40,14.0,14.0,82,0.00,,CLR,0.00,VWS V14.01,2013-09-14 18:13:00,
2013-09-14 14:14:00,83.4,77.3,29.11,NE,55,6.0,14.0,82,0.00,,CLR,0.00,VWS V14.01,2013-09-14 18:14:00,
2013-09-14 14:15:00,83.4,77.7,29.11,NW,313,6.0,10.0,83,0.00,,CLR,0.00,VWS V14.01,2013-09-14 18:15:00,
2013-09-14 14:16:00,83.6,77.9,29.11,NNE,24,7.0,8.0,83,0.00,,FEW024,0.00,VWS V14.01,2013-09-14 18:16:00,
2013-09-14 14:17:00,83.6,77.9,29.11,NNE,13,4.0,8.0,83,0.00,,CLR,0.00,VWS V14.01,2013-09-14 18:17:00,
2013-09-14 14:18:00,83.6,77.9,29.11,NE,47,12.0,12.0,83,0.00,,CLR,0.00,VWS V14.01,2013-09-14 18:18:00,
2013-09-14 14:19:00,83.6,77.5,29.11,NE,41,10.0,12.0,82,0.00,,CLR,0.00,VWS V14.01,2013-09-14 18:19:00,
2013-09-14 14:20:00,83.4,77.3,29.11,NNE,28,13.0,13.0,82,0.00,,CLR,0.00,VWS V14.01,2013-09-14 18:20:00,
2013-09-14 14:21:00,83.4,77.3,29.11,ENE,63,7.0,12.0,82,0.00,,FEW024,0.00,VWS V14.01,2013-09-14 18:21:00,
2013-09-14 14:22:00,83.4,77.3,29.11,ENE,71,12.0,12.0,82,0.00,,CLR,0.00,VWS V14.01,2013-09-14 18:22:00,
2013-09-14 14:23:00,83.4,77.3,29.11,NE,42,12.0,14.0,82,0.00,,CLR,0.00,VWS V14.01,2013-09-14 18:23:00,
2013-09-14 14:24:00,83.4,77.7,29.11,NNE,27,5.0,12.0,83,0.00,,CLR,0.00,VWS V14.01,2013-09-14 18:24:00,
2013-09-14 14:25:00,83.4,77.7,29.11,ENE,67,13.0,13.0,83,0.00,,CLR,0.00,VWS V14.01,2013-09-14 18:25:00,
2013-09-14 14:26:00,83.2,77.1,29.11,ENE,61,4.0,11.0,82,0.00,,FEW024,0.00,VWS V14.01,2013-09-14 18:26:00,
2013-09-14 14:27:00,83.2,77.1,29.11,ENE,61,4.0,11.0,82,0.00,,CLR,0.00,VWS V14.01,2013-09-14 18:27:00,
2013-09-14 14:28:00,83.4,77.7,29.11,NNE,12,4.0,7.0,83,0.00,,CLR,0.00,VWS V14.01,2013-09-14 18:28:00,
2013-09-14 14:29:00,83.6,77.9,29.11,NE,50,4.0,7.0,83,0.00,,CLR,0.00,VWS V14.01,2013-09-14 18:29:00,
2013-09-14 14:30:00,83.6,77.5,29.11,North,5,7.0,8.0,82,0.00,,CLR,0.00,VWS V14.01,2013-09-14 18:30:00,
2013-09-14 14:31:00,83.6,77.5,29.11,NE,43,4.0,9.0,82,0.00,,FEW024,0.00,VWS V14.01,2013-09-14 18:31:00,
2013-09-14 14:32:00,83.6,77.5,29.11,NE,43,4.0,9.0,82,0.00,,CLR,0.00,VWS V14.01,2013-09-14 18:32:00,
2013-09-14 14:33:00,83.8,77.7,27.62,NE,43,3.0,8.0,82,0.00,,CLR,0.00,VWS V14.01,2013-09-14 18:33:00,
2013-09-14 14:34:00,83.8,77.7,27.62,NE,56,4.0,11.0,82,0.00,,CLR,0.00,VWS V14.01,2013-09-14 18:34:00,
2013-09-14 14:35:00,84.0,77.9,27.62,NNE,26,8.0,9.0,82,0.00,,CLR,0.00,VWS V14.01,2013-09-14 18:35:00,
2013-09-14 14:36:00,83.8,77.3,27.62,ENE,65,9.0,11.0,81,0.00,,SCT044,0.00,VWS V14.01,2013-09-14 18:36:00,
2013-09-14 14:37:00,83.8,77.3,27.62,NE,34,4.0,11.0,81,0.00,,CLR,0.00,VWS V14.01,2013-09-14 18:37:00,
2013-09-14 14:38:00,84.0,77.5,27.62,ENE,61,5.0,6.0,81,0.00,,CLR,0.00,VWS V14.01,2013-09-14 18:38:00,
2013-09-14 14:39:00,84.0,77.5,27.62,ENE,76,4.0,7.0,81,0.00,,CLR,0.00,VWS V14.01,2013-09-14 18:39:00,
2013-09-14 14:40:00,84.1,78.0,27.62,ENE,59,12.0,12.0,82,0.00,,CLR,0.00,VWS V14.01,2013-09-14 18:40:00,
2013-09-14 14:41:00,84.1,77.6,27.74,ENE,59,15.0,15.0,81,0.00,,SCT044,0.00,VWS V14.01,2013-09-14 18:41:00,
2013-09-14 14:42:00,84.1,77.6,27.74,NE,36,10.0,15.0,81,0.00,,CLR,0.00,VWS V14.01,2013-09-14 18:42:00,
2013-09-14 14:43:00,84.1,78.0,27.74,NE,38,6.0,10.0,82,0.00,,CLR,0.00,VWS V14.01,2013-09-14 18:43:00,
2013-09-14 14:44:00,84.1,78.0,27.74,NNE,28,6.0,10.0,82,0.00,,CLR,0.00,VWS V14.01,2013-09-14 18:44:00,
2013-09-14 14:45:00,84.1,78.0,27.74,NE,35,4.0,6.0,82,0.00,,CLR,0.00,VWS V14.01,2013-09-14 18:45:00,
2013-09-14 14:46:00,84.3,78.2,28.15,ENE,57,7.0,10.0,82,0.00,,SCT044,0.00,VWS V14.01,2013-09-14 18:46:00,
2013-09-14 14:47:00,84.3,78.2,28.15,ENE,74,6.0,10.0,82,0.00,,CLR,0.00,VWS V14.01,2013-09-14 18:47:00,
2013-09-14 14:48:00,84.3,77.8,28.15,ENE,65,17.0,17.0,81,0.00,,CLR,0.00,VWS V14.01,2013-09-14 18:48:00,
2013-09-14 14:49:00,84.3,77.8,28.15,ENE,62,10.0,17.0,81,0.00,,CLR,0.00,VWS V14.01,2013-09-14 18:49:00,
2013-09-14 14:50:00,84.3,78.2,28.15,NE,55,5.0,10.0,82,0.00,,CLR,0.00,VWS V14.01,2013-09-14 18:50:00,
2013-09-14 14:51:00,84.3,78.2,28.15,NE,53,14.0,14.0,82,0.00,,SCT044,0.00,VWS V14.01,2013-09-14 18:51:00,
2013-09-14 14:52:00,84.3,78.2,28.15,ENE,66,9.0,14.0,82,0.00,,CLR,0.00,VWS V14.01,2013-09-14 18:52:00,
2013-09-14 14:53:00,84.3,78.2,28.15,ENE,57,8.0,10.0,82,0.00,,CLR,0.00,VWS V14.01,2013-09-14 18:53:00,
2013-09-14 14:54:00,84.3,78.2,28.15,NE,54,10.0,13.0,82,0.00,,CLR,0.00,VWS V14.01,2013-09-14 18:54:00,
2013-09-14 14:55:00,84.3,78.2,28.15,ENE,63,14.0,14.0,82,0.00,,CLR,0.00,VWS V14.01,2013-09-14 18:55:00,
2013-09-14 14:56:00,84.5,78.4,28.15,ENE,69,7.0,13.0,82,0.00,,SCT044,0.00,VWS V14.01,2013-09-14 18:56:00,
2013-09-14 14:57:00,84.5,78.4,28.15,ENE,61,16.0,16.0,82,0.00,,CLR,0.00,VWS V14.01,2013-09-14 18:57:00,
2013-09-14 14:58:00,84.5,78.0,28.15,ENE,74,14.0,16.0,81,0.00,,CLR,0.00,VWS V14.01,2013-09-14 18:58:00,
2013-09-14 14:59:00,84.5,78.0,28.15,NE,51,12.0,14.0,81,0.00,,CLR,0.00,VWS V14.01,2013-09-14 18:59:00,
2013-09-14 15:00:00,84.5,78.0,28.15,ENE,57,9.0,13.0,81,0.00,,CLR,0.00,VWS V14.01,2013-09-14 19:00:00,
2013-09-14 15:01:00,84.5,78.0,28.15,NE,53,11.0,15.0,81,0.00,,SCT044,0.00,VWS V14.01,2013-09-14 19:01:00,
2013-09-14 15:02:00,84.5,78.0,28.15,NE,40,12.0,15.0,81,0.00,,CLR,0.00,VWS V14.01,2013-09-14 19:02:00,
2013-09-14 15:03:00,84.3,77.8,28.15,NE,42,12.0,12.0,81,0.00,,CLR,0.00,VWS V14.01,2013-09-14 19:03:00,
2013-09-14 15:04:00,84.5,78.4,28.15,ENE,67,13.0,15.0,82,0.00,,CLR,0.00,VWS V14.01,2013-09-14 19:04:00,
2013-09-14 15:05:00,84.5,78.4,28.15,ENE,72,7.0,14.0,82,0.00,,CLR,0.00,VWS V14.01,2013-09-14 19:05:00,
2013-09-14 15:06:00,84.7,78.6,28.15,ENE,62,10.0,14.0,82,0.00,,SCT044,0.00,VWS V14.01,2013-09-14 19:06:00,
2013-09-14 15:07:00,84.7,78.6,28.15,ENE,62,10.0,14.0,82,0.00,,CLR,0.00,VWS V14.01,2013-09-14 19:07:00,
2013-09-14 15:08:00,84.7,78.6,28.15,ENE,63,12.0,12.0,82,0.00,,CLR,0.00,VWS V14.01,2013-09-14 19:08:00,
2013-09-14 15:09:00,84.7,78.2,28.15,ENE,71,7.0,13.0,81,0.00,,CLR,0.00,VWS V14.01,2013-09-14 19:09:00,
2013-09-14 15:10:00,84.7,78.2,28.15,North,9,6.0,7.0,81,0.00,,CLR,0.00,VWS V14.01,2013-09-14 19:10:00,
2013-09-14 15:11:00,84.7,78.2,28.15,ENE,77,12.0,13.0,81,0.00,,SCT044,0.00,VWS V14.01,2013-09-14 19:11:00,
2013-09-14 15:12:00,84.5,78.0,28.15,ENE,65,14.0,14.0,81,0.00,,CLR,0.00,VWS V14.01,2013-09-14 19:12:00,
2013-09-14 15:13:00,84.5,78.0,28.15,ENE,65,14.0,16.0,81,0.00,,CLR,0.00,VWS V14.01,2013-09-14 19:13:00,
2013-09-14 15:14:00,84.3,77.8,28.15,NE,44,11.0,19.0,81,0.00,,CLR,0.00,VWS V14.01,2013-09-14 19:14:00,
2013-09-14 15:15:00,84.0,77.5,28.15,ENE,71,15.0,16.0,81,0.00,,CLR,0.00,VWS V14.01,2013-09-14 19:15:00,
2013-09-14 15:16:00,83.6,77.5,28.17,NE,51,13.0,13.0,82,0.00,,SCT044,0.00,VWS V14.01,2013-09-14 19:16:00,
2013-09-14 15:17:00,83.6,77.5,28.17,NE,35,14.0,14.0,82,0.00,,CLR,0.00,VWS V14.01,2013-09-14 19:17:00,
2013-09-14 15:18:00,83.6,77.5,28.17,NE,46,13.0,17.0,82,0.00,,CLR,0.00,VWS V14.01,2013-09-14 19:18:00,
2013-09-14 15:19:00,83.6,77.9,28.17,ENE,67,14.0,14.0,83,0.00,,CLR,0.00,VWS V14.01,2013-09-14 19:19:00,
2013-09-14 15:20:00,83.6,77.9,27.59,East,80,10.0,14.0,83,0.00,,CLR,0.00,VWS V14.01,2013-09-14 19:20:00,
2013-09-14 15:21:00,83.8,77.7,27.59,ENE,57,15.0,15.0,82,0.00,,SCT044,0.00,VWS V14.01,2013-09-14 19:21:00,
2013-09-14 15:22:00,83.8,77.7,27.59,ENE,67,16.0,16.0,82,0.00,,CLR,0.00,VWS V14.01,2013-09-14 19:22:00,
2013-09-14 15:23:00,83.8,77.7,27.59,NNE,29,17.0,17.0,82,0.00,,CLR,0.00,VWS V14.01,2013-09-14 19:23:00,
2013-09-14 15:24:00,83.8,77.7,27.59,ENE,78,10.0,17.0,82,0.00,,CLR,0.00,VWS V14.01,2013-09-14 19:24:00,
2013-09-14 15:25:00,83.6,77.9,28.00,ENE,59,14.0,18.0,83,0.00,,CLR,0.00,VWS V14.01,2013-09-14 19:25:00,
2013-09-14 15:26:00,83.6,77.9,28.00,NE,34,12.0,15.0,83,0.00,,SCT044,0.00,VWS V14.01,2013-09-14 19:26:00,
2013-09-14 15:27:00,83.6,77.9,28.00,NE,55,9.0,15.0,83,0.00,,CLR,0.00,VWS V14.01,2013-09-14 19:27:00,
2013-09-14 15:28:00,83.6,77.9,28.00,NE,54,13.0,13.0,83,0.00,,CLR,0.00,VWS V14.01,2013-09-14 19:28:00,
2013-09-14 15:29:00,83.6,78.3,28.00,ENE,62,17.0,17.0,84,0.00,,CLR,0.00,VWS V14.01,2013-09-14 19:29:00,
2013-09-14 15:30:00,83.6,77.9,28.00,ENE,75,11.0,17.0,83,0.00,,CLR,0.00,VWS V14.01,2013-09-14 19:30:00,
2013-09-14 15:31:00,83.8,78.1,28.00,ENE,78,12.0,12.0,83,0.00,,SCT044,0.00,VWS V14.01,2013-09-14 19:31:00,
2013-09-14 15:32:00,83.8,78.4,28.00,ENE,68,16.0,16.0,84,0.00,,CLR,0.00,VWS V14.01,2013-09-14 19:32:00,
2013-09-14 15:33:00,83.8,77.0,28.00,ENE,62,11.0,16.0,80,0.00,,CLR,0.00,VWS V14.01,2013-09-14 19:33:00,
2013-09-14 15:34:00,83.8,78.4,28.00,ENE,72,15.0,15.0,84,0.00,,CLR,0.00,VWS V14.01,2013-09-14 19:34:00,
2013-09-14 15:35:00,83.6,77.9,28.00,NE,46,12.0,20.0,83,0.00,,CLR,0.00,VWS V14.01,2013-09-14 19:35:00,
2013-09-14 15:36:00,83.6,78.3,28.00,NE,41,18.0,18.0,84,0.00,,SCT049,0.00,VWS V14.01,2013-09-14 19:36:00,
2013-09-14 15:37:00,83.6,78.3,28.00,NE,49,16.0,18.0,84,0.00,,CLR,0.00,VWS V14.01,2013-09-14 19:37:00,
2013-09-14 15:38:00,83.4,78.1,28.00,NE,41,15.0,16.0,84,0.00,,CLR,0.00,VWS V14.01,2013-09-14 19:38:00,
2013-09-14 15:39:00,83.4,78.1,28.00,ENE,70,18.0,18.0,84,0.00,,CLR,0.00,VWS V14.01,2013-09-14 19:39:00,
2013-09-14 15:40:00,83.2,78.2,28.00,ENE,59,9.0,18.0,85,0.00,,CLR,0.00,VWS V14.01,2013-09-14 19:40:00,
2013-09-14 15:41:00,83.2,78.6,28.00,ENE,64,15.0,20.0,86,0.00,,SCT049,0.00,VWS V14.01,2013-09-14 19:41:00,
2013-09-14 15:42:00,83.2,78.6,28.00,ENE,64,15.0,20.0,86,0.00,,CLR,0.00,VWS V14.01,2013-09-14 19:42:00,
2013-09-14 15:43:00,83.2,78.2,28.00,NNE,26,16.0,16.0,85,0.00,,CLR,0.00,VWS V14.01,2013-09-14 19:43:00,
2013-09-14 15:44:00,83.2,78.2,28.00,ENE,70,17.0,17.0,85,0.00,,CLR,0.00,VWS V14.01,2013-09-14 19:44:00,
2013-09-14 15:45:00,83.2,78.6,28.00,ENE,67,13.0,17.0,86,0.00,,CLR,0.00,VWS V14.01,2013-09-14 19:45:00,
2013-09-14 15:46:00,83.2,77.9,28.00,NE,42,14.0,16.0,84,0.00,,SCT049,0.00,VWS V14.01,2013-09-14 19:46:00,
2013-09-14 15:47:00,83.2,77.9,28.00,ENE,58,16.0,16.0,84,0.00,,CLR,0.00,VWS V14.01,2013-09-14 19:47:00,
2013-09-14 15:48:00,83.0,78.0,28.00,ENE,65,15.0,16.0,85,0.00,,CLR,0.00,VWS V14.01,2013-09-14 19:48:00,
2013-09-14 15:49:00,83.0,78.0,28.00,ENE,71,10.0,15.0,85,0.00,,CLR,0.00,VWS V14.01,2013-09-14 19:49:00,
2013-09-14 15:50:00,83.0,78.0,28.00,ENE,61,16.0,16.0,85,0.00,,CLR,0.00,VWS V14.01,2013-09-14 19:50:00,
2013-09-14 15:51:00,82.8,77.8,28.00,ENE,74,12.0,16.0,85,0.00,,SCT049,0.00,VWS V14.01,2013-09-14 19:51:00,
2013-09-14 15:52:00,82.8,77.8,28.00,ENE,65,17.0,17.0,85,0.00,,CLR,0.00,VWS V14.01,2013-09-14 19:52:00,
2013-09-14 15:53:00,82.8,78.2,28.00,East,88,11.0,17.0,86,0.00,,CLR,0.00,VWS V14.01,2013-09-14 19:53:00,
2013-09-14 15:54:00,83.0,78.7,28.00,NE,54,14.0,15.0,87,0.00,,CLR,0.00,VWS V14.01,2013-09-14 19:54:00,
2013-09-14 15:55:00,83.0,78.0,27.14,ENE,74,16.0,18.0,85,0.00,,CLR,0.00,VWS V14.01,2013-09-14 19:55:00,
2013-09-14 15:56:00,82.8,77.8,27.14,ENE,63,12.0,16.0,85,0.00,,SCT049,0.00,VWS V14.01,2013-09-14 19:56:00,
2013-09-14 15:57:00,82.8,77.8,27.14,ENE,62,20.0,20.0,85,0.00,,CLR,0.00,VWS V14.01,2013-09-14 19:57:00,
2013-09-14 15:58:00,82.6,77.6,27.14,ENE,63,12.0,20.0,85,0.00,,CLR,0.00,VWS V14.01,2013-09-14 19:58:00,
2013-09-14 15:59:00,82.6,77.6,27.14,ESE,104,9.0,19.0,85,0.00,,CLR,0.00,VWS V14.01,2013-09-14 19:59:00,
2013-09-14 16:00:00,82.6,78.0,27.14,ENE,63,19.0,19.0,86,0.00,,CLR,0.00,VWS V14.01,2013-09-14 20:00:00,
2013-09-14 16:01:00,82.4,77.4,27.14,NE,54,14.0,20.0,85,0.00,,SCT049,0.00,VWS V14.01,2013-09-14 20:01:00,
2013-09-14 16:02:00,82.4,77.4,27.14,ENE,76,14.0,20.0,85,0.00,,CLR,0.00,VWS V14.01,2013-09-14 20:02:00,
2013-09-14 16:03:00,82.6,78.0,27.14,ENE,57,13.0,20.0,86,0.00,,CLR,0.00,VWS V14.01,2013-09-14 20:03:00,
2013-09-14 16:04:00,82.6,78.0,27.14,NNE,28,17.0,21.0,86,0.00,,CLR,0.00,VWS V14.01,2013-09-14 20:04:00,
2013-09-14 16:05:00,82.6,78.0,27.14,ENE,65,16.0,17.0,86,0.00,,CLR,0.00,VWS V14.01,2013-09-14 20:05:00,
2013-09-14 16:06:00,82.6,78.0,27.14,NE,53,6.0,16.0,86,0.00,,SCT049,0.00,VWS V14.01,2013-09-14 20:06:00,
2013-09-14 16:07:00,82.6,78.0,27.14,ENE,69,11.0,16.0,86,0.00,,CLR,0.00,VWS V14.01,2013-09-14 20:07:00,
2013-09-14 16:08:00,82.6,78.3,27.14,NE,55,17.0,24.0,87,0.00,,CLR,0.00,VWS V14.01,2013-09-14 20:08:00,
2013-09-14 16:09:00,82.6,78.0,27.14,ENE,65,17.0,17.0,86,0.00,,CLR,0.00,VWS V14.01,2013-09-14 20:09:00,
2013-09-14 16:10:00,82.8,78.2,27.14,East,84,6.0,17.0,86,0.00,,CLR,0.00,VWS V14.01,2013-09-14 20:10:00,
2013-09-14 16:11:00,82.6,77.6,27.14,ENE,59,17.0,21.0,85,0.00,,SCT049,0.00,VWS V14.01,2013-09-14 20:11:00,
2013-09-14 16:12:00,82.6,77.6,27.14,ENE,63,18.0,21.0,85,0.00,,CLR,0.00,VWS V14.01,2013-09-14 20:12:00,
2013-09-14 16:13:00,82.6,77.6,27.14,ENE,65,21.0,21.0,85,0.00,,CLR,0.00,VWS V14.01,2013-09-14 20:13:00,
2013-09-14 16:14:00,82.4,77.8,27.14,ENE,59,17.0,21.0,86,0.00,,CLR,0.00,VWS V14.01,2013-09-14 20:14:00,
2013-09-14 16:15:00,82.6,78.3,27.14,ENE,59,14.0,17.0,87,0.00,,CLR,0.00,VWS V14.01,2013-09-14 20:15:00,
2013-09-14 16:16:00,82.6,78.3,27.14,NE,56,15.0,17.0,87,0.00,,SCT049,0.00,VWS V14.01,2013-09-14 20:16:00,
2013-09-14 16:17:00,82.6,78.3,27.14,NNE,33,17.0,17.0,87,0.00,,CLR,0.00,VWS V14.01,2013-09-14 20:17:00,
2013-09-14 16:18:00,82.6,78.0,27.14,ENE,59,16.0,17.0,86,0.00,,CLR,0.00,VWS V14.01,2013-09-14 20:18:00,
2013-09-14 16:19:00,82.6,78.3,27.14,ENE,63,18.0,19.0,87,0.00,,CLR,0.00,VWS V14.01,2013-09-14 20:19:00,
2013-09-14 16:20:00,82.6,78.3,27.14,NE,55,10.0,20.0,87,0.00,,CLR,0.00,VWS V14.01,2013-09-14 20:20:00,
2013-09-14 16:21:00,82.4,77.8,27.14,ENE,78,13.0,17.0,86,0.00,,SCT049,0.00,VWS V14.01,2013-09-14 20:21:00,
2013-09-14 16:22:00,82.4,78.1,27.14,ENE,63,12.0,17.0,87,0.00,,CLR,0.00,VWS V14.01,2013-09-14 20:22:00,
2013-09-14 16:23:00,82.4,78.1,27.14,ENE,75,13.0,15.0,87,0.00,,CLR,0.00,VWS V14.01,2013-09-14 20:23:00,
2013-09-14 16:24:00,82.4,78.1,27.14,ENE,63,18.0,18.0,87,0.00,,CLR,0.00,VWS V14.01,2013-09-14 20:24:00,
2013-09-14 16:25:00,82.4,78.1,27.14,ENE,63,14.0,18.0,87,0.00,,CLR,0.00,VWS V14.01,2013-09-14 20:25:00,
2013-09-14 16:26:00,82.4,78.1,27.14,ENE,63,14.0,16.0,87,0.00,,SCT049,0.00,VWS V14.01,2013-09-14 20:26:00,
2013-09-14 16:27:00,82.4,78.1,27.14,ENE,70,21.0,21.0,87,0.00,,CLR,0.00,VWS V14.01,2013-09-14 20:27:00,
2013-09-14 16:28:00,82.4,78.1,27.14,ENE,59,14.0,21.0,87,0.00,,CLR,0.00,VWS V14.01,2013-09-14 20:28:00,
2013-09-14 16:29:00,82.2,78.3,27.14,NE,50,17.0,17.0,88,0.00,,CLR,0.00,VWS V14.01,2013-09-14 20:29:00,
2013-09-14 16:30:00,82.2,77.9,27.14,East,93,9.0,18.0,87,0.00,,CLR,0.00,VWS V14.01,2013-09-14 20:30:00,
2013-09-14 16:31:00,82.2,78.3,27.14,NE,36,14.0,20.0,88,0.00,,SCT049,0.00,VWS V14.01,2013-09-14 20:31:00,
2013-09-14 16:32:00,82.4,78.5,27.14,NE,40,15.0,20.0,88,0.00,,CLR,0.00,VWS V14.01,2013-09-14 20:32:00,
2013-09-14 16:33:00,82.4,78.5,27.14,ENE,57,12.0,16.0,88,0.00,,CLR,0.00,VWS V14.01,2013-09-14 20:33:00,
2013-09-14 16:34:00,82.4,78.1,27.14,NE,40,16.0,16.0,87,0.00,,CLR,0.00,VWS V14.01,2013-09-14 20:34:00,
2013-09-14 16:35:00,82.4,78.5,27.14,NE,52,15.0,16.0,88,0.00,,CLR,0.00,VWS V14.01,2013-09-14 20:35:00,
2013-09-14 16:36:00,82.4,78.1,27.14,ENE,58,14.0,14.0,87,0.00,,FEW041,0.00,VWS V14.01,2013-09-14 20:36:00,
2013-09-14 16:37:00,82.4,78.1,27.14,NE,45,16.0,16.0,87,0.00,,CLR,0.00,VWS V14.01,2013-09-14 20:37:00,
2013-09-14 16:38:00,82.4,78.1,27.14,NE,53,14.0,17.0,87,0.00,,CLR,0.00,VWS V14.01,2013-09-14 20:38:00,
2013-09-14 16:39:00,82.4,78.5,27.14,ENE,60,17.0,17.0,88,0.00,,CLR,0.00,VWS V14.01,2013-09-14 20:39:00,
2013-09-14 16:40:00,82.4,78.1,27.14,ENE,60,18.0,21.0,87,0.00,,CLR,0.00,VWS V14.01,2013-09-14 20:40:00,
2013-09-14 16:41:00,82.2,77.9,27.14,ENE,59,21.0,21.0,87,0.00,,FEW041,0.00,VWS V14.01,2013-09-14 20:41:00,
2013-09-14 16:42:00,82.2,77.9,27.14,ENE,61,15.0,21.0,87,0.00,,CLR,0.00,VWS V14.01,2013-09-14 20:42:00,
2013-09-14 16:43:00,82.2,77.9,27.14,ENE,59,14.0,16.0,87,0.00,,CLR,0.00,VWS V14.01,2013-09-14 20:43:00,
2013-09-14 16:44:00,82.2,77.9,27.14,NE,54,19.0,19.0,87,0.00,,CLR,0.00,VWS V14.01,2013-09-14 20:44:00,
2013-09-14 16:45:00,82.2,78.3,27.14,ENE,59,11.0,19.0,88,0.00,,CLR,0.00,VWS V14.01,2013-09-14 20:45:00,
2013-09-14 16:46:00,82.2,78.3,27.14,NE,50,17.0,17.0,88,0.00,,FEW041,0.00,VWS V14.01,2013-09-14 20:46:00,
2013-09-14 16:47:00,82.2,78.3,27.14,NE,51,13.0,17.0,88,0.00,,CLR,0.00,VWS V14.01,2013-09-14 20:47:00,
2013-09-14 16:48:00,82.4,78.5,27.14,ENE,67,12.0,16.0,88,0.00,,CLR,0.00,VWS V14.01,2013-09-14 20:48:00,
2013-09-14 16:49:00,82.4,78.5,27.14,ENE,64,10.0,23.0,88,0.00,,CLR,0.00,VWS V14.01,2013-09-14 20:49:00,
2013-09-14 16:50:00,82.4,78.1,27.14,NE,50,14.0,14.0,87,0.00,,CLR,0.00,VWS V14.01,2013-09-14 20:50:00,
2013-09-14 16:51:00,82.2,77.9,23.80,ENE,64,14.0,22.0,87,0.00,,FEW041,0.00,VWS V14.01,2013-09-14 20:51:00,
2013-09-14 16:52:00,82.2,77.9,23.80,NE,44,17.0,22.0,87,0.00,,CLR,0.00,VWS V14.01,2013-09-14 20:52:00,
2013-09-14 16:53:00,82.0,77.8,23.80,ENE,78,13.0,18.0,87,0.00,,CLR,0.00,VWS V14.01,2013-09-14 20:53:00,
2013-09-14 16:54:00,82.0,77.8,23.80,NNE,26,15.0,20.0,87,0.00,,CLR,0.00,VWS V14.01,2013-09-14 20:54:00,
2013-09-14 16:55:00,81.8,77.9,23.80,ENE,65,14.0,15.0,88,0.00,,CLR,0.00,VWS V14.01,2013-09-14 20:55:00,
2013-09-14 16:56:00,81.8,77.9,23.80,ENE,69,10.0,15.0,88,0.00,,FEW041,0.00,VWS V14.01,2013-09-14 20:56:00,
2013-09-14 16:57:00,81.8,77.9,23.80,ENE,66,8.0,15.0,88,0.00,,CLR,0.00,VWS V14.01,2013-09-14 20:57:00,
2013-09-14 16:59:00,81.8,77.9,23.80,East,84,10.0,17.0,88,0.00,,CLR,0.00,VWS V14.01,2013-09-14 20:59:00,
2013-09-14 17:00:00,81.6,77.7,23.80,NE,40,13.0,21.0,88,0.00,,CLR,0.00,VWS V14.01,2013-09-14 21:00:00,
2013-09-14 17:01:00,81.6,77.7,23.80,ENE,66,15.0,19.0,88,0.00,,FEW041,0.00,VWS V14.01,2013-09-14 21:01:00,
2013-09-14 17:02:00,81.6,77.7,23.80,ENE,73,13.0,19.0,88,0.00,,CLR,0.00,VWS V14.01,2013-09-14 21:02:00,
2013-09-14 17:03:00,81.4,77.5,23.80,NE,53,15.0,15.0,88,0.00,,CLR,0.00,VWS V14.01,2013-09-14 21:03:00,
2013-09-14 17:04:00,81.4,77.5,23.80,ENE,61,12.0,22.0,88,0.00,,CLR,0.00,VWS V14.01,2013-09-14 21:04:00,
2013-09-14 17:05:00,81.4,77.5,23.80,NE,48,5.0,12.0,88,0.00,,CLR,0.00,VWS V14.01,2013-09-14 21:05:00,
2013-09-14 17:06:00,81.4,77.5,23.80,NE,47,11.0,18.0,88,0.00,,FEW041,0.00,VWS V14.01,2013-09-14 21:06:00,
2013-09-14 17:07:00,81.4,77.5,23.80,NE,39,12.0,18.0,88,0.00,,CLR,0.00,VWS V14.01,2013-09-14 21:07:00,
2013-09-14 17:08:00,81.4,77.5,23.80,ENE,66,14.0,15.0,88,0.00,,CLR,0.00,VWS V14.01,2013-09-14 21:08:00,
2013-09-14 17:09:00,81.4,77.5,23.80,ENE,71,15.0,15.0,88,0.00,,CLR,0.00,VWS V14.01,2013-09-14 21:09:00,
2013-09-14 17:10:00,81.4,77.5,23.80,ENE,67,15.0,19.0,88,0.00,,CLR,0.00,VWS V14.01,2013-09-14 21:10:00,
2013-09-14 17:11:00,81.6,77.7,23.80,ENE,69,9.0,16.0,88,0.00,,FEW041,0.00,VWS V14.01,2013-09-14 21:11:00,
2013-09-14 17:12:00,81.6,77.7,23.80,ENE,67,13.0,16.0,88,0.00,,CLR,0.00,VWS V14.01,2013-09-14 21:12:00,
2013-09-14 17:13:00,81.6,77.7,23.80,ENE,58,19.0,19.0,88,0.00,,CLR,0.00,VWS V14.01,2013-09-14 21:13:00,
2013-09-14 17:14:00,81.6,77.4,23.80,NE,40,11.0,19.0,87,0.00,,CLR,0.00,VWS V14.01,2013-09-14 21:14:00,
2013-09-14 17:15:00,81.6,77.4,23.80,NE,55,13.0,15.0,87,0.00,,CLR,0.00,VWS V14.01,2013-09-14 21:15:00,
2013-09-14 17:16:00,81.6,77.7,23.80,ENE,59,9.0,16.0,88,0.00,,FEW041,0.00,VWS V14.01,2013-09-14 21:16:00,
2013-09-14 17:17:00,81.6,77.7,23.80,ENE,62,15.0,16.0,88,0.00,,CLR,0.00,VWS V14.01,2013-09-14 21:17:00,
2013-09-14 17:18:00,81.6,77.7,23.80,ENE,63,13.0,15.0,88,0.00,,CLR,0.00,VWS V14.01,2013-09-14 21:18:00,
2013-09-14 17:19:00,81.6,77.7,23.80,NE,36,13.0,14.0,88,0.00,,CLR,0.00,VWS V14.01,2013-09-14 21:19:00,
2013-09-14 17:20:00,81.6,77.4,23.80,ENE,60,13.0,17.0,87,0.00,,CLR,0.00,VWS V14.01,2013-09-14 21:20:00,
2013-09-14 17:21:00,81.4,77.2,23.80,ENE,60,9.0,15.0,87,0.00,,FEW041,0.00,VWS V14.01,2013-09-14 21:21:00,
2013-09-14 17:22:00,81.4,77.2,23.80,ENE,69,3.0,15.0,87,0.00,,CLR,0.00,VWS V14.01,2013-09-14 21:22:00,
2013-09-14 17:23:00,81.4,77.5,23.80,NE,46,12.0,16.0,88,0.00,,CLR,0.00,VWS V14.01,2013-09-14 21:23:00,
2013-09-14 17:24:00,81.2,77.3,23.80,ENE,60,13.0,17.0,88,0.00,,CLR,0.00,VWS V14.01,2013-09-14 21:24:00,
2013-09-14 17:25:00,81.1,77.2,23.80,NE,53,11.0,14.0,88,0.00,,CLR,0.00,VWS V14.01,2013-09-14 21:25:00,
2013-09-14 17:26:00,81.1,77.6,23.80,NE,54,6.0,14.0,89,0.00,,FEW041,0.00,VWS V14.01,2013-09-14 21:26:00,
2013-09-14 17:27:00,81.1,77.6,23.80,ENE,72,6.0,14.0,89,0.00,,CLR,0.00,VWS V14.01,2013-09-14 21:27:00,
2013-09-14 17:28:00,81.1,77.6,23.80,ENE,57,11.0,13.0,89,0.00,,CLR,0.00,VWS V14.01,2013-09-14 21:28:00,
2013-09-14 17:29:00,81.1,77.6,23.80,ENE,66,6.0,12.0,89,0.00,,CLR,0.00,VWS V14.01,2013-09-14 21:29:00,
2013-09-14 17:30:00,81.1,77.6,23.80,NNE,25,10.0,13.0,89,0.00,,CLR,0.00,VWS V14.01,2013-09-14 21:30:00,
2013-09-14 17:31:00,81.1,77.6,23.80,East,81,6.0,11.0,89,0.00,,FEW041,0.00,VWS V14.01,2013-09-14 21:31:00,
2013-09-14 17:32:00,81.1,77.6,23.80,ENE,57,9.0,11.0,89,0.00,,CLR,0.00,VWS V14.01,2013-09-14 21:32:00,
2013-09-14 17:33:00,81.1,77.6,23.80,ENE,71,9.0,11.0,89,0.00,,CLR,0.00,VWS V14.01,2013-09-14 21:33:00,
2013-09-14 17:34:00,81.1,77.2,23.80,ENE,76,11.0,11.0,88,0.00,,CLR,0.00,VWS V14.01,2013-09-14 21:34:00,
2013-09-14 17:35:00,81.1,77.6,23.80,ENE,60,13.0,14.0,89,0.00,,FEW034,0.00,VWS V14.01,2013-09-14 21:35:00,
2013-09-14 17:36:00,81.1,77.2,23.80,ENE,57,11.0,16.0,88,0.00,,CLR,0.00,VWS V14.01,2013-09-14 21:36:00,
2013-09-14 17:37:00,81.1,77.6,23.80,ENE,58,14.0,14.0,89,0.00,,CLR,0.00,VWS V14.01,2013-09-14 21:37:00,
2013-09-14 17:38:00,80.9,77.0,23.80,NE,55,20.0,20.0,88,0.00,,CLR,0.00,VWS V14.01,2013-09-14 21:38:00,
2013-09-14 17:39:00,80.7,76.8,23.80,ENE,68,16.0,20.0,88,0.00,,CLR,0.00,VWS V14.01,2013-09-14 21:39:00,
2013-09-14 17:40:00,80.7,77.2,26.71,NE,38,15.0,15.0,89,0.00,,FEW034,0.00,VWS V14.01,2013-09-14 21:40:00,
2013-09-14 17:41:00,80.7,77.2,26.71,ENE,71,13.0,13.0,89,0.00,,CLR,0.00,VWS V14.01,2013-09-14 21:41:00,
2013-09-14 17:42:00,80.7,77.2,26.71,NE,41,9.0,15.0,89,0.00,,CLR,0.00,VWS V14.01,2013-09-14 21:42:00,
2013-09-14 17:43:00,80.5,76.6,26.71,NNE,26,12.0,12.0,88,0.00,,CLR,0.00,VWS V14.01,2013-09-14 21:43:00,
2013-09-14 17:44:00,80.5,77.0,26.71,NE,44,16.0,16.0,89,0.00,,CLR,0.00,VWS V14.01,2013-09-14 21:44:00,
2013-09-14 17:45:00,80.3,76.8,26.71,NE,45,12.0,22.0,89,0.00,,FEW034,0.00,VWS V14.01,2013-09-14 21:45:00,
2013-09-14 17:46:00,80.3,76.8,26.71,ENE,57,22.0,22.0,89,0.00,,CLR,0.00,VWS V14.01,2013-09-14 21:46:00,
2013-09-14 17:47:00,80.3,76.8,26.71,ENE,57,12.0,22.0,89,0.00,,CLR,0.00,VWS V14.01,2013-09-14 21:47:00,
2013-09-14 17:48:00,80.1,76.6,26.71,NE,46,6.0,15.0,89,0.00,,CLR,0.00,VWS V14.01,2013-09-14 21:48:00,
2013-09-14 17:49:00,80.1,76.6,26.71,NE,46,13.0,14.0,89,0.00,,CLR,0.00,VWS V14.01,2013-09-14 21:49:00,
2013-09-14 17:50:00,80.1,76.6,26.71,ENE,63,18.0,18.0,89,0.00,,FEW034,0.00,VWS V14.01,2013-09-14 21:50:00,
2013-09-14 17:51:00,80.1,76.6,26.71,NE,37,10.0,16.0,89,0.00,,CLR,0.00,VWS V14.01,2013-09-14 21:51:00,
2013-09-14 17:52:00,80.1,76.6,26.71,NE,56,9.0,18.0,89,0.00,,CLR,0.00,VWS V14.01,2013-09-14 21:52:00,
2013-09-14 17:53:00,80.1,76.6,26.71,NE,55,6.0,10.0,89,0.00,,CLR,0.00,VWS V14.01,2013-09-14 21:53:00,
2013-09-14 17:54:00,79.9,76.4,26.71,ENE,61,8.0,14.0,89,0.00,,CLR,0.00,VWS V14.01,2013-09-14 21:54:00,
2013-09-14 17:55:00,79.9,76.4,26.71,NE,53,13.0,14.0,89,0.00,,FEW034,0.00,VWS V14.01,2013-09-14 21:55:00,
2013-09-14 17:56:00,79.9,76.4,26.71,NE,55,6.0,13.0,89,0.00,,CLR,0.00,VWS V14.01,2013-09-14 21:56:00,
2013-09-14 17:57:00,79.9,76.4,26.71,ENE,61,18.0,18.0,89,0.00,,CLR,0.00,VWS V14.01,2013-09-14 21:57:00,
2013-09-14 17:58:00,79.9,76.4,26.71,NE,54,14.0,18.0,89,0.00,,CLR,0.00,VWS V14.01,2013-09-14 21:58:00,
2013-09-14 17:59:00,79.8,76.3,26.71,NE,42,16.0,16.0,89,0.00,,CLR,0.00,VWS V14.01,2013-09-14 21:59:00,
2013-09-14 18:00:00,79.9,76.4,26.71,ENE,66,6.0,11.0,89,0.00,,FEW034,0.00,VWS V14.01,2013-09-14 22:00:00,
2013-09-14 18:01:00,79.9,76.4,26.71,NE,44,11.0,18.0,89,0.00,,CLR,0.00,VWS V14.01,2013-09-14 22:01:00,
2013-09-14 18:02:00,79.9,76.4,26.71,ENE,57,11.0,11.0,89,0.00,,CLR,0.00,VWS V14.01,2013-09-14 22:02:00,
2013-09-14 18:03:00,80.1,76.6,26.71,NE,53,9.0,11.0,89,0.00,,CLR,0.00,VWS V14.01,2013-09-14 22:03:00,
2013-09-14 18:04:00,80.1,76.6,28.50,NNE,33,4.0,15.0,89,0.00,,CLR,0.00,VWS V14.01,2013-09-14 22:04:00,
2013-09-14 18:05:00,80.1,76.6,28.50,ENE,76,5.0,15.0,89,0.00,,FEW034,0.00,VWS V14.01,2013-09-14 22:05:00,
2013-09-14 18:06:00,80.1,76.6,28.50,ENE,66,5.0,13.0,89,0.00,,CLR,0.00,VWS V14.01,2013-09-14 22:06:00,
2013-09-14 18:07:00,80.1,76.6,28.50,ENE,58,6.0,15.0,89,0.00,,CLR,0.00,VWS V14.01,2013-09-14 22:07:00,
2013-09-14 18:08:00,80.1,76.6,28.50,NE,44,11.0,15.0,89,0.00,,CLR,0.00,VWS V14.01,2013-09-14 22:08:00,
2013-09-14 18:09:00,80.1,76.6,28.50,NE,42,15.0,15.0,89,0.00,,CLR,0.00,VWS V14.01,2013-09-14 22:09:00,
2013-09-14 18:10:00,79.9,76.4,28.50,NE,44,14.0,17.0,89,0.00,,FEW034,0.00,VWS V14.01,2013-09-14 22:10:00,
2013-09-14 18:11:00,79.9,76.0,28.50,ENE,76,16.0,17.0,88,0.00,,CLR,0.00,VWS V14.01,2013-09-14 22:11:00,
2013-09-14 18:12:00,79.9,76.4,28.50,ENE,57,19.0,19.0,89,0.00,,CLR,0.00,VWS V14.01,2013-09-14 22:12:00,
2013-09-14 18:13:00,79.9,76.4,28.50,ENE,65,6.0,19.0,89,0.00,,CLR,0.00,VWS V14.01,2013-09-14 22:13:00,
2013-09-14 18:14:00,79.9,76.4,28.50,ENE,60,10.0,10.0,89,0.00,,CLR,0.00,VWS V14.01,2013-09-14 22:14:00,
2013-09-14 18:15:00,79.9,76.4,28.50,ENE,67,5.0,11.0,89,0.00,,FEW034,0.00,VWS V14.01,2013-09-14 22:15:00,
2013-09-14 18:16:00,79.9,76.4,28.50,ENE,65,11.0,13.0,89,0.00,,CLR,0.00,VWS V14.01,2013-09-14 22:16:00,
2013-09-14 18:17:00,79.9,76.4,28.50,ENE,61,9.0,11.0,89,0.00,,CLR,0.00,VWS V14.01,2013-09-14 22:17:00,
2013-09-14 18:18:00,79.9,76.4,28.50,NE,41,8.0,9.0,89,0.00,,CLR,0.00,VWS V14.01,2013-09-14 22:18:00,
2013-09-14 18:19:00,79.9,76.4,28.50,NE,40,12.0,12.0,89,0.00,,CLR,0.00,VWS V14.01,2013-09-14 22:19:00,
2013-09-14 18:20:00,79.8,76.3,28.50,ENE,57,10.0,13.0,89,0.00,,FEW034,0.00,VWS V14.01,2013-09-14 22:20:00,
2013-09-14 18:21:00,79.9,76.4,28.50,East,81,13.0,13.0,89,0.00,,CLR,0.00,VWS V14.01,2013-09-14 22:21:00,
2013-09-14 18:22:00,79.8,76.3,28.50,ENE,57,15.0,15.0,89,0.00,,CLR,0.00,VWS V14.01,2013-09-14 22:22:00,
2013-09-14 18:23:00,79.8,76.3,28.50,ENE,62,7.0,15.0,89,0.00,,CLR,0.00,VWS V14.01,2013-09-14 22:23:00,
2013-09-14 18:24:00,79.8,76.6,28.50,NE,36,10.0,10.0,90,0.00,,CLR,0.00,VWS V14.01,2013-09-14 22:24:00,
2013-09-14 18:25:00,79.8,76.6,28.50,NNE,33,12.0,12.0,90,0.00,,FEW034,0.00,VWS V14.01,2013-09-14 22:25:00,
2013-09-14 18:26:00,79.8,76.6,28.50,ENE,58,7.0,14.0,90,0.00,,CLR,0.00,VWS V14.01,2013-09-14 22:26:00,
2013-09-14 18:27:00,79.8,76.6,28.50,ENE,65,10.0,12.0,90,0.00,,CLR,0.00,VWS V14.01,2013-09-14 22:27:00,
2013-09-14 18:28:00,79.8,76.6,27.53,ENE,65,10.0,13.0,90,0.00,,CLR,0.00,VWS V14.01,2013-09-14 22:28:00,
2013-09-14 18:29:00,79.8,76.6,27.53,NE,51,12.0,12.0,90,0.00,,CLR,0.00,VWS V14.01,2013-09-14 22:29:00,
2013-09-14 18:30:00,79.8,76.6,27.53,NE,47,8.0,16.0,90,0.00,,FEW034,0.00,VWS V14.01,2013-09-14 22:30:00,
2013-09-14 18:31:00,79.8,76.6,27.53,NE,40,7.0,17.0,90,0.00,,CLR,0.00,VWS V14.01,2013-09-14 22:31:00,
2013-09-14 18:32:00,79.8,76.6,27.53,NNE,17,8.0,16.0,90,0.00,,CLR,0.00,VWS V14.01,2013-09-14 22:32:00,
2013-09-14 18:33:00,79.8,76.6,27.53,NE,55,14.0,14.0,90,0.00,,CLR,0.00,VWS V14.01,2013-09-14 22:33:00,
2013-09-14 18:34:00,79.8,76.6,27.53,NE,46,17.0,17.0,90,0.00,,CLR,0.00,VWS V14.01,2013-09-14 22:34:00,
2013-09-14 18:35:00,79.6,76.4,27.53,ENE,68,12.0,14.0,90,0.00,,SCT065,0.00,VWS V14.01,2013-09-14 22:35:00,
2013-09-14 18:36:00,79.6,76.4,27.53,ENE,73,14.0,15.0,90,0.00,,CLR,0.00,VWS V14.01,2013-09-14 22:36:00,
2013-09-14 18:37:00,79.6,76.4,27.53,ENE,68,11.0,14.0,90,0.00,,CLR,0.00,VWS V14.01,2013-09-14 22:37:00,
2013-09-14 18:38:00,79.6,76.4,28.80,ENE,71,8.0,12.0,90,0.00,,CLR,0.00,VWS V14.01,2013-09-14 22:38:00,
2013-09-14 18:39:00,79.6,76.4,28.80,NE,40,11.0,11.0,90,0.00,,CLR,0.00,VWS V14.01,2013-09-14 22:39:00,
2013-09-14 18:40:00,79.6,76.4,28.80,NE,55,11.0,16.0,90,0.00,,SCT065,0.00,VWS V14.01,2013-09-14 22:40:00,
2013-09-14 18:41:00,79.6,76.4,28.80,NE,49,16.0,16.0,90,0.00,,CLR,0.00,VWS V14.01,2013-09-14 22:41:00,
2013-09-14 18:42:00,79.6,76.4,28.80,NE,41,11.0,16.0,90,0.00,,CLR,0.00,VWS V14.01,2013-09-14 22:42:00,
2013-09-14 18:43:00,79.6,76.4,28.80,ENE,57,11.0,18.0,90,0.00,,CLR,0.00,VWS V14.01,2013-09-14 22:43:00,
2013-09-14 18:44:00,79.6,76.4,28.80,NE,49,13.0,13.0,90,0.00,,CLR,0.00,VWS V14.01,2013-09-14 22:44:00,
2013-09-14 18:45:00,79.6,76.4,28.80,ENE,72,4.0,14.0,90,0.00,,SCT065,0.00,VWS V14.01,2013-09-14 22:45:00,
2013-09-14 18:46:00,79.6,76.4,28.80,NNE,30,14.0,17.0,90,0.00,,CLR,0.00,VWS V14.01,2013-09-14 22:46:00,
2013-09-14 18:47:00,79.6,76.4,28.80,ENE,65,10.0,14.0,90,0.00,,CLR,0.00,VWS V14.01,2013-09-14 22:47:00,
2013-09-14 18:48:00,79.6,76.4,28.80,NE,43,15.0,15.0,90,0.00,,CLR,0.00,VWS V14.01,2013-09-14 22:48:00,
2013-09-14 18:49:00,79.6,76.4,28.80,NE,52,19.0,19.0,90,0.00,,SCT065,0.00,VWS V14.01,2013-09-14 22:49:00,
2013-09-14 18:50:00,79.6,76.4,28.80,ENE,61,12.0,19.0,90,0.00,,CLR,0.00,VWS V14.01,2013-09-14 22:50:00,
2013-09-14 18:51:00,79.4,76.2,28.80,NE,47,8.0,13.0,90,0.00,,CLR,0.00,VWS V14.01,2013-09-14 22:51:00,
2013-09-14 18:52:00,79.4,76.2,28.80,ENE,58,10.0,12.0,90,0.00,,CLR,0.00,VWS V14.01,2013-09-14 22:52:00,
2013-09-14 18:53:00,79.4,76.2,28.80,ENE,58,15.0,15.0,90,0.00,,CLR,0.00,VWS V14.01,2013-09-14 22:53:00,
2013-09-14 18:54:00,79.4,76.2,28.80,NE,43,12.0,17.0,90,0.00,,SCT065,0.00,VWS V14.01,2013-09-14 22:54:00,
2013-09-14 18:55:00,79.4,76.2,28.80,NE,34,11.0,17.0,90,0.00,,CLR,0.00,VWS V14.01,2013-09-14 22:55:00,
2013-09-14 18:56:00,79.4,76.2,28.80,NE,49,18.0,18.0,90,0.00,,CLR,0.00,VWS V14.01,2013-09-14 22:56:00,
2013-09-14 18:57:00,79.4,76.2,28.80,ENE,61,14.0,18.0,90,0.00,,CLR,0.00,VWS V14.01,2013-09-14 22:57:00,
2013-09-14 18:58:00,79.2,76.0,28.80,ENE,62,8.0,14.0,90,0.00,,CLR,0.00,VWS V14.01,2013-09-14 22:58:00,
2013-09-14 18:59:00,79.4,76.6,28.80,ENE,59,11.0,17.0,91,0.00,,SCT065,0.00,VWS V14.01,2013-09-14 22:59:00,
2013-09-14 19:00:00,79.4,76.6,28.80,ENE,59,11.0,17.0,91,0.00,,CLR,0.00,VWS V14.01,2013-09-14 23:00:00,
2013-09-14 19:01:00,79.2,76.0,28.80,ENE,65,18.0,18.0,90,0.00,,CLR,0.00,VWS V14.01,2013-09-14 23:01:00,
2013-09-14 19:02:00,79.2,76.0,28.69,ENE,58,11.0,18.0,90,0.00,,CLR,0.00,VWS V14.01,2013-09-14 23:02:00,
2013-09-14 19:03:00,79.2,76.3,28.69,NE,38,12.0,12.0,91,0.00,,CLR,0.00,VWS V14.01,2013-09-14 23:03:00,
2013-09-14 19:04:00,79.2,76.0,28.69,NE,43,16.0,16.0,90,0.00,,SCT065,0.00,VWS V14.01,2013-09-14 23:04:00,
2013-09-14 19:05:00,79.2,76.0,28.69,NE,43,16.0,16.0,90,0.00,,CLR,0.00,VWS V14.01,2013-09-14 23:05:00,
2013-09-14 19:06:00,79.2,76.0,28.75,ENE,75,11.0,16.0,90,0.00,,CLR,0.00,VWS V14.01,2013-09-14 23:06:00,
2013-09-14 19:07:00,79.2,76.3,28.75,ENE,59,18.0,18.0,91,0.00,,CLR,0.00,VWS V14.01,2013-09-14 23:07:00,
2013-09-14 19:08:00,79.2,76.3,28.75,ENE,58,11.0,18.0,91,0.00,,CLR,0.00,VWS V14.01,2013-09-14 23:08:00,
2013-09-14 19:09:00,79.2,76.3,28.75,NE,54,16.0,16.0,91,0.00,,SCT065,0.00,VWS V14.01,2013-09-14 23:09:00,
2013-09-14 19:10:00,79.2,76.3,28.75,NE,38,7.0,16.0,91,0.00,,CLR,0.00,VWS V14.01,2013-09-14 23:10:00,
2013-09-14 19:11:00,79.2,76.3,28.75,ENE,65,10.0,12.0,91,0.00,,CLR,0.00,VWS V14.01,2013-09-14 23:11:00,
2013-09-14 19:12:00,79.2,76.3,28.75,ENE,70,3.0,12.0,91,0.00,,CLR,0.00,VWS V14.01,2013-09-14 23:12:00,
2013-09-14 19:13:00,79.2,76.3,28.75,NE,49,12.0,12.0,91,0.00,,CLR,0.00,VWS V14.01,2013-09-14 23:13:00,
2013-09-14 19:14:00,79.2,76.3,28.75,ENE,63,10.0,14.0,91,0.00,,SCT065,0.00,VWS V14.01,2013-09-14 23:14:00,
2013-09-14 19:15:00,79.2,76.3,28.75,ENE,58,11.0,14.0,91,0.00,,CLR,0.00,VWS V14.01,2013-09-14 23:15:00,
2013-09-14 19:16:00,79.2,76.3,28.75,NE,55,5.0,11.0,91,0.00,,CLR,0.00,VWS V14.01,2013-09-14 23:16:00,
2013-09-14 19:17:00,79.2,76.3,28.75,ENE,57,8.0,8.0,91,0.00,,CLR,0.00,VWS V14.01,2013-09-14 23:17:00,
2013-09-14 19:18:00,79.2,76.3,28.75,NE,48,12.0,12.0,91,0.00,,CLR,0.00,VWS V14.01,2013-09-14 23:18:00,
2013-09-14 19:19:00,79.0,76.2,28.75,NE,54,8.0,13.0,91,0.00,,SCT065,0.00,VWS V14.01,2013-09-14 23:19:00,
2013-09-14 19:20:00,79.0,76.2,28.75,NE,38,9.0,13.0,91,0.00,,CLR,0.00,VWS V14.01,2013-09-14 23:20:00,
2013-09-14 19:21:00,79.0,76.2,28.75,NNE,25,8.0,14.0,91,0.00,,CLR,0.00,VWS V14.01,2013-09-14 23:21:00,
2013-09-14 19:22:00,79.0,76.2,28.75,NE,35,10.0,11.0,91,0.00,,CLR,0.00,VWS V14.01,2013-09-14 23:22:00,
2013-09-14 19:23:00,79.0,76.2,28.75,ENE,59,13.0,13.0,91,0.00,,CLR,0.00,VWS V14.01,2013-09-14 23:23:00,
2013-09-14 19:24:00,79.0,76.2,28.75,ENE,69,12.0,13.0,91,0.00,,SCT065,0.00,VWS V14.01,2013-09-14 23:24:00,
2013-09-14 19:25:00,79.0,76.2,28.75,NE,34,12.0,13.0,91,0.00,,CLR,0.00,VWS V14.01,2013-09-14 23:25:00,
2013-09-14 19:26:00,79.0,76.2,28.75,NE,49,5.0,12.0,91,0.00,,CLR,0.00,VWS V14.01,2013-09-14 23:26:00,
2013-09-14 19:27:00,79.0,76.2,28.75,ENE,65,7.0,9.0,91,0.00,,CLR,0.00,VWS V14.01,2013-09-14 23:27:00,
2013-09-14 19:28:00,79.0,76.2,28.75,NE,56,9.0,12.0,91,0.00,,CLR,0.00,VWS V14.01,2013-09-14 23:28:00,
2013-09-14 19:29:00,79.0,76.2,28.75,ENE,57,14.0,16.0,91,0.00,,SCT065,0.00,VWS V14.01,2013-09-14 23:29:00,
2013-09-14 19:30:00,79.0,76.2,28.75,NE,54,9.0,16.0,91,0.00,,CLR,0.00,VWS V14.01,2013-09-14 23:30:00,
2013-09-14 19:31:00,79.0,76.2,28.75,NE,44,9.0,12.0,91,0.00,,CLR,0.00,VWS V14.01,2013-09-14 23:31:00,
2013-09-14 19:32:00,79.0,76.2,28.75,ENE,59,12.0,14.0,91,0.00,,CLR,0.00,VWS V14.01,2013-09-14 23:32:00,
2013-09-14 19:33:00,78.8,75.9,28.75,ENE,60,13.0,16.0,91,0.00,,CLR,0.00,VWS V14.01,2013-09-14 23:33:00,
2013-09-14 19:34:00,78.8,75.9,28.75,ENE,59,14.0,16.0,91,0.00,,SCT065,0.00,VWS V14.01,2013-09-14 23:34:00,
2013-09-14 19:35:00,78.8,75.9,28.75,ENE,59,14.0,16.0,91,0.00,,CLR,0.00,VWS V14.01,2013-09-14 23:35:00,
2013-09-14 19:36:00,78.8,75.9,28.75,NE,49,18.0,18.0,91,0.00,,CLR,0.00,VWS V14.01,2013-09-14 23:36:00,
2013-09-14 19:37:00,78.8,75.9,28.75,NE,49,11.0,18.0,91,0.00,,CLR,0.00,VWS V14.01,2013-09-14 23:37:00,
2013-09-14 19:38:00,78.8,75.9,28.75,NE,43,12.0,17.0,91,0.00,,CLR,0.00,VWS V14.01,2013-09-14 23:38:00,
2013-09-14 19:39:00,78.8,75.9,28.75,ENE,62,10.0,11.0,91,0.00,,BKN048,0.00,VWS V14.01,2013-09-14 23:39:00,
2013-09-14 19:40:00,78.8,75.9,28.75,NE,55,10.0,11.0,91,0.00,,CLR,0.00,VWS V14.01,2013-09-14 23:40:00,
2013-09-14 19:41:00,78.6,75.8,28.75,NE,48,6.0,14.0,91,0.00,,CLR,0.00,VWS V14.01,2013-09-14 23:41:00,
2013-09-14 19:42:00,78.6,75.8,29.15,NE,44,11.0,11.0,91,0.00,,CLR,0.00,VWS V14.01,2013-09-14 23:42:00,
2013-09-14 19:43:00,78.6,75.8,29.15,NE,47,15.0,15.0,91,0.00,,CLR,0.00,VWS V14.01,2013-09-14 23:43:00,
2013-09-14 19:44:00,78.6,75.8,29.15,NE,49,15.0,15.0,91,0.00,,BKN048,0.00,VWS V14.01,2013-09-14 23:44:00,
2013-09-14 19:45:00,78.6,75.8,29.15,NE,55,16.0,16.0,91,0.00,,CLR,0.00,VWS V14.01,2013-09-14 23:45:00,
2013-09-14 19:46:00,78.6,75.8,29.15,NE,44,10.0,16.0,91,0.00,,CLR,0.00,VWS V14.01,2013-09-14 23:46:00,
2013-09-14 19:47:00,78.6,75.8,29.15,NE,53,13.0,14.0,91,0.00,,CLR,0.00,VWS V14.01,2013-09-14 23:47:00,
2013-09-14 19:48:00,78.6,75.8,29.15,ENE,57,10.0,15.0,91,0.00,,CLR,0.00,VWS V14.01,2013-09-14 23:48:00,
2013-09-14 19:49:00,78.6,75.8,29.15,NE,52,15.0,17.0,91,0.00,,BKN048,0.00,VWS V14.01,2013-09-14 23:49:00,
2013-09-14 19:50:00,78.6,75.8,29.15,NE,55,7.0,17.0,91,0.00,,CLR,0.00,VWS V14.01,2013-09-14 23:50:00,
2013-09-14 19:51:00,78.6,75.8,29.15,NNE,15,16.0,16.0,91,0.00,,CLR,0.00,VWS V14.01,2013-09-14 23:51:00,
2013-09-14 19:52:00,78.6,75.8,29.15,ENE,64,17.0,17.0,91,0.00,,CLR,0.00,VWS V14.01,2013-09-14 23:52:00,
2013-09-14 19:53:00,78.6,75.8,29.15,NE,53,12.0,17.0,91,0.00,,CLR,0.00,VWS V14.01,2013-09-14 23:53:00,
2013-09-14 19:54:00,78.6,75.8,29.15,NE,50,15.0,15.0,91,0.00,,BKN048,0.00,VWS V14.01,2013-09-14 23:54:00,
2013-09-14 19:55:00,78.6,75.8,29.15,NE,55,12.0,15.0,91,0.00,,CLR,0.00,VWS V14.01,2013-09-14 23:55:00,
2013-09-14 19:56:00,78.6,75.8,29.15,NNE,31,10.0,12.0,91,0.00,,CLR,0.00,VWS V14.01,2013-09-14 23:56:00,
2013-09-14 19:57:00,78.6,75.8,29.15,ENE,60,4.0,11.0,91,0.00,,CLR,0.00,VWS V14.01,2013-09-14 23:57:00,
2013-09-14 19:58:00,78.6,75.8,29.15,ENE,58,12.0,17.0,91,0.00,,CLR,0.00,VWS V14.01,2013-09-14 23:58:00,
2013-09-14 19:59:00,78.6,75.8,29.15,ENE,62,13.0,13.0,91,0.00,,BKN048,0.00,VWS V14.01,2013-09-14 23:59:00,
2013-09-14 20:00:00,78.6,75.8,29.15,NE,49,9.0,13.0,91,0.00,,CLR,0.00,VWS V14.01,2013-09-15 00:00:00,
2013-09-14 20:01:00,78.6,75.8,29.15,ENE,67,10.0,14.0,91,0.00,,CLR,0.00,VWS V14.01,2013-09-15 00:01:00,
2013-09-14 20:02:00,78.6,75.8,29.15,ENE,63,14.0,14.0,91,0.00,,CLR,0.00,VWS V14.01,2013-09-15 00:02:00,
2013-09-14 20:03:00,78.6,75.8,29.15,NE,45,11.0,14.0,91,0.00,,CLR,0.00,VWS V14.01,2013-09-15 00:03:00,
2013-09-14 20:04:00,78.8,75.9,29.08,ENE,63,13.0,13.0,91,0.00,,BKN048,0.00,VWS V14.01,2013-09-15 00:04:00,
2013-09-14 20:05:00,78.8,75.9,29.08,NE,35,10.0,13.0,91,0.00,,CLR,0.00,VWS V14.01,2013-09-15 00:05:00,
2013-09-14 20:06:00,78.8,75.9,29.07,North,9,9.0,10.0,91,0.00,,CLR,0.00,VWS V14.01,2013-09-15 00:06:00,
2013-09-14 20:07:00,78.8,75.9,29.07,ENE,59,2.0,13.0,91,0.00,,CLR,0.00,VWS V14.01,2013-09-15 00:07:00,
2013-09-14 20:08:00,78.8,75.9,29.07,ENE,71,9.0,11.0,91,0.00,,CLR,0.00,VWS V14.01,2013-09-15 00:08:00,
2013-09-14 20:09:00,78.8,75.9,29.07,ENE,61,12.0,15.0,91,0.00,,BKN048,0.00,VWS V14.01,2013-09-15 00:09:00,
2013-09-14 20:10:00,78.8,75.9,29.07,NE,46,15.0,15.0,91,0.00,,CLR,0.00,VWS V14.01,2013-09-15 00:10:00,
2013-09-14 20:11:00,78.8,75.9,29.07,NE,54,9.0,15.0,91,0.00,,CLR,0.00,VWS V14.01,2013-09-15 00:11:00,
2013-09-14 20:12:00,78.6,75.8,29.07,NE,53,12.0,18.0,91,0.00,,CLR,0.00,VWS V14.01,2013-09-15 00:12:00,
2013-09-14 20:13:00,78.6,75.8,29.07,ENE,63,9.0,16.0,91,0.00,,CLR,0.00,VWS V14.01,2013-09-15 00:13:00,
2013-09-14 20:14:00,78.6,75.8,29.07,NE,55,12.0,14.0,91,0.00,,CLR,0.00,VWS V14.01,2013-09-15 00:14:00,
2013-09-14 20:15:00,78.6,75.8,29.07,NE,55,9.0,14.0,91,0.00,,CLR,0.00,VWS V14.01,2013-09-15 00:15:00,
2013-09-14 20:16:00,78.6,75.8,29.17,NE,41,9.0,15.0,91,0.00,,CLR,0.00,VWS V14.01,2013-09-15 00:16:00,
2013-09-14 20:17:00,78.6,75.8,29.17,NE,55,6.0,18.0,91,0.00,,CLR,0.00,VWS V14.01,2013-09-15 00:17:00,
2013-09-14 20:18:00,78.6,75.8,29.28,NE,42,15.0,15.0,91,0.00,,CLR,0.00,VWS V14.01,2013-09-15 00:18:00,
2013-09-14 20:19:00,78.6,75.8,29.28,ENE,57,17.0,17.0,91,0.00,,CLR,0.00,VWS V14.01,2013-09-15 00:19:00,
2013-09-14 20:20:00,78.6,75.8,29.28,NNE,25,6.0,17.0,91,0.00,,CLR,0.00,VWS V14.01,2013-09-15 00:20:00,
2013-09-14 20:21:00,78.6,75.4,29.37,ENE,62,11.0,11.0,90,0.00,,CLR,0.00,VWS V14.01,2013-09-15 00:21:00,
2013-09-14 20:22:00,78.6,75.8,29.37,NE,39,6.0,19.0,91,0.00,,CLR,0.00,VWS V14.01,2013-09-15 00:22:00,
2013-09-14 20:23:00,78.6,75.8,29.37,ENE,68,14.0,14.0,91,0.00,,CLR,0.00,VWS V14.01,2013-09-15 00:23:00,
2013-09-14 20:24:00,78.6,75.8,29.37,NE,47,12.0,12.0,91,0.00,,CLR,0.00,VWS V14.01,2013-09-15 00:24:00,
2013-09-14 20:25:00,78.6,75.8,29.37,ENE,60,10.0,12.0,91,0.00,,CLR,0.00,VWS V14.01,2013-09-15 00:25:00,
2013-09-14 20:26:00,78.6,75.8,29.37,NE,51,12.0,14.0,91,0.00,,CLR,0.00,VWS V14.01,2013-09-15 00:26:00,
2013-09-14 20:27:00,78.6,75.8,29.22,NE,53,11.0,14.0,91,0.00,,CLR,0.00,VWS V14.01,2013-09-15 00:27:00,
2013-09-14 20:28:00,78.6,75.8,29.22,NE,42,9.0,13.0,91,0.00,,CLR,0.00,VWS V14.01,2013-09-15 00:28:00,
2013-09-14 20:29:00,78.6,75.8,29.36,NNE,28,12.0,17.0,91,0.00,,CLR,0.00,VWS V14.01,2013-09-15 00:29:00,
2013-09-14 20:30:00,78.6,75.8,29.36,NE,43,11.0,17.0,91,0.00,,CLR,0.00,VWS V14.01,2013-09-15 00:30:00,
2013-09-14 20:31:00,78.6,75.8,29.36,NE,42,16.0,16.0,91,0.00,,CLR,0.00,VWS V14.01,2013-09-15 00:31:00,
2013-09-14 20:32:00,78.6,75.8,29.36,ENE,67,13.0,16.0,91,0.00,,CLR,0.00,VWS V14.01,2013-09-15 00:32:00,
2013-09-14 20:33:00,78.6,75.8,29.36,ENE,61,8.0,21.0,91,0.00,,CLR,0.00,VWS V14.01,2013-09-15 00:33:00,
2013-09-14 20:34:00,78.6,75.4,29.36,NE,43,16.0,17.0,90,0.00,,CLR,0.00,VWS V14.01,2013-09-15 00:34:00,
2013-09-14 20:35:00,78.6,75.4,29.36,ENE,60,17.0,17.0,90,0.00,,CLR,0.00,VWS V14.01,2013-09-15 00:35:00,
2013-09-14 20:36:00,78.6,75.4,29.36,NNE,17,19.0,19.0,90,0.00,,CLR,0.00,VWS V14.01,2013-09-15 00:36:00,
2013-09-14 20:37:00,78.6,75.4,29.36,ENE,64,9.0,19.0,90,0.00,,CLR,0.00,VWS V14.01,2013-09-15 00:37:00,
2013-09-14 20:38:00,78.6,75.4,29.36,ENE,57,15.0,15.0,90,0.00,,CLR,0.00,VWS V14.01,2013-09-15 00:38:00,
2013-09-14 20:39:00,78.6,75.4,29.45,ENE,67,18.0,18.0,90,0.00,,CLR,0.00,VWS V14.01,2013-09-15 00:39:00,
2013-09-14 20:40:00,78.6,75.4,29.45,ENE,59,16.0,18.0,90,0.00,,CLR,0.00,VWS V14.01,2013-09-15 00:40:00,
2013-09-14 20:41:00,78.6,75.4,29.45,NE,53,16.0,19.0,90,0.00,,CLR,0.00,VWS V14.01,2013-09-15 00:41:00,
2013-09-14 20:42:00,78.6,75.4,29.45,ENE,70,15.0,18.0,90,0.00,,CLR,0.00,VWS V14.01,2013-09-15 00:42:00,
2013-09-14 20:43:00,78.8,75.6,29.45,NE,42,13.0,17.0,90,0.00,,CLR,0.00,VWS V14.01,2013-09-15 00:43:00,
2013-09-14 20:44:00,78.8,75.6,29.45,NE,56,8.0,16.0,90,0.00,,CLR,0.00,VWS V14.01,2013-09-15 00:44:00,
2013-09-14 20:45:00,78.8,75.6,29.45,East,81,13.0,16.0,90,0.00,,CLR,0.00,VWS V14.01,2013-09-15 00:45:00,
2013-09-14 20:46:00,78.8,75.6,29.45,NE,55,10.0,18.0,90,0.00,,CLR,0.00,VWS V14.01,2013-09-15 00:46:00,
2013-09-14 20:47:00,78.8,75.6,29.45,ENE,59,9.0,17.0,90,0.00,,CLR,0.00,VWS V14.01,2013-09-15 00:47:00,
2013-09-14 20:48:00,78.8,75.6,29.45,NE,50,16.0,18.0,90,0.00,,CLR,0.00,VWS V14.01,2013-09-15 00:48:00,
2013-09-14 20:49:00,78.8,75.6,29.45,ENE,67,14.0,17.0,90,0.00,,CLR,0.00,VWS V14.01,2013-09-15 00:49:00,
2013-09-14 20:50:00,78.8,75.6,29.45,NE,34,12.0,17.0,90,0.00,,CLR,0.00,VWS V14.01,2013-09-15 00:50:00,
2013-09-14 20:51:00,78.8,75.6,29.45,ENE,67,17.0,17.0,90,0.00,,CLR,0.00,VWS V14.01,2013-09-15 00:51:00,
2013-09-14 20:52:00,78.8,75.6,29.45,ENE,69,11.0,17.0,90,0.00,,CLR,0.00,VWS V14.01,2013-09-15 00:52:00,
2013-09-14 20:53:00,78.8,75.6,29.40,NE,42,17.0,19.0,90,0.00,,CLR,0.00,VWS V14.01,2013-09-15 00:53:00,
2013-09-14 20:54:00,78.8,75.6,29.40,NE,51,17.0,17.0,90,0.00,,CLR,0.00,VWS V14.01,2013-09-15 00:54:00,
2013-09-14 20:55:00,78.8,75.6,29.40,NE,53,16.0,17.0,90,0.00,,CLR,0.00,VWS V14.01,2013-09-15 00:55:00,
2013-09-14 20:56:00,78.8,75.6,29.40,NNE,32,9.0,16.0,90,0.00,,CLR,0.00,VWS V14.01,2013-09-15 00:56:00,
2013-09-14 20:57:00,78.8,75.6,29.40,ENE,63,20.0,20.0,90,0.00,,CLR,0.00,VWS V14.01,2013-09-15 00:57:00,
2013-09-14 20:58:00,78.8,75.6,29.40,NE,43,16.0,20.0,90,0.00,,CLR,0.00,VWS V14.01,2013-09-15 00:58:00,
2013-09-14 20:59:00,78.8,75.6,29.40,NE,51,14.0,19.0,90,0.00,,CLR,0.00,VWS V14.01,2013-09-15 00:59:00,
2013-09-14 21:00:00,78.8,75.6,29.40,NNE,28,13.0,19.0,90,0.00,,CLR,0.00,VWS V14.01,2013-09-15 01:00:00,
2013-09-14 21:01:00,78.8,75.6,29.40,NE,53,9.0,14.0,90,0.00,,CLR,0.00,VWS V14.01,2013-09-15 01:01:00,
2013-09-14 21:02:00,78.8,75.6,29.32,NE,55,20.0,21.0,90,0.00,,CLR,0.00,VWS V14.01,2013-09-15 01:02:00,
2013-09-14 21:03:00,78.8,75.6,29.32,NE,54,15.0,20.0,90,0.00,,CLR,0.00,VWS V14.01,2013-09-15 01:03:00,
2013-09-14 21:04:00,78.8,75.6,29.32,ENE,67,11.0,12.0,90,0.00,,CLR,0.00,VWS V14.01,2013-09-15 01:04:00,
2013-09-14 21:05:00,78.8,75.6,29.32,NE,51,13.0,13.0,90,0.00,,CLR,0.00,VWS V14.01,2013-09-15 01:05:00,
2013-09-14 21:06:00,78.8,75.6,29.32,NE,51,15.0,15.0,90,0.00,,CLR,0.00,VWS V14.01,2013-09-15 01:06:00,
2013-09-14 21:07:00,78.8,75.3,29.32,ENE,63,14.0,19.0,89,0.00,,CLR,0.00,VWS V14.01,2013-09-15 01:07:00,
2013-09-14 21:08:00,78.8,75.3,29.32,East,80,6.0,18.0,89,0.00,,CLR,0.00,VWS V14.01,2013-09-15 01:08:00,
2013-09-14 21:09:00,78.8,75.3,29.27,NE,49,15.0,15.0,89,0.00,,CLR,0.00,VWS V14.01,2013-09-15 01:09:00,
2013-09-14 21:10:00,78.8,75.3,29.27,ENE,67,13.0,15.0,89,0.00,,CLR,0.00,VWS V14.01,2013-09-15 01:10:00,
2013-09-14 21:11:00,79.0,75.8,29.35,ENE,69,15.0,15.0,90,0.00,,CLR,0.00,VWS V14.01,2013-09-15 01:11:00,
2013-09-14 21:12:00,79.0,75.8,29.35,NE,49,15.0,16.0,90,0.00,,CLR,0.00,VWS V14.01,2013-09-15 01:12:00,
2013-09-14 21:13:00,79.0,75.8,29.35,NE,49,13.0,21.0,90,0.00,,CLR,0.00,VWS V14.01,2013-09-15 01:13:00,
2013-09-14 21:14:00,79.0,75.8,29.35,NE,53,10.0,17.0,90,0.00,,CLR,0.00,VWS V14.01,2013-09-15 01:14:00,
2013-09-14 21:15:00,79.0,75.8,29.35,NE,38,11.0,17.0,90,0.00,,CLR,0.00,VWS V14.01,2013-09-15 01:15:00,
2013-09-14 21:16:00,79.0,75.8,29.35,ENE,74,6.0,11.0,90,0.00,,CLR,0.00,VWS V14.01,2013-09-15 01:16:00,
2013-09-14 21:17:00,79.0,75.8,29.35,NE,39,7.0,11.0,90,0.00,,CLR,0.00,VWS V14.01,2013-09-15 01:17:00,
2013-09-14 21:18:00,78.8,75.6,29.35,North,5,6.0,16.0,90,0.00,,CLR,0.00,VWS V14.01,2013-09-15 01:18:00,
2013-09-14 21:19:00,78.8,75.6,29.35,ENE,77,10.0,16.0,90,0.00,,CLR,0.00,VWS V14.01,2013-09-15 01:19:00,
2013-09-14 21:20:00,78.8,75.6,29.35,ENE,57,10.0,16.0,90,0.00,,CLR,0.00,VWS V14.01,2013-09-15 01:20:00,
2013-09-14 21:21:00,78.8,75.6,29.35,NE,56,10.0,18.0,90,0.00,,CLR,0.00,VWS V14.01,2013-09-15 01:21:00,
2013-09-14 21:22:00,78.8,75.6,29.35,ENE,57,15.0,17.0,90,0.00,,CLR,0.00,VWS V14.01,2013-09-15 01:22:00,
2013-09-14 21:23:00,78.8,75.6,29.35,ENE,63,6.0,15.0,90,0.00,,CLR,0.00,VWS V14.01,2013-09-15 01:23:00,
2013-09-14 21:24:00,78.8,75.6,29.46,NE,42,16.0,16.0,90,0.00,,CLR,0.00,VWS V14.01,2013-09-15 01:24:00,
2013-09-14 21:25:00,78.8,75.6,29.46,NE,38,11.0,16.0,90,0.00,,CLR,0.00,VWS V14.01,2013-09-15 01:25:00,
2013-09-14 21:26:00,78.8,75.6,29.46,NNE,16,12.0,17.0,90,0.00,,CLR,0.00,VWS V14.01,2013-09-15 01:26:00,
2013-09-14 21:27:00,79.0,75.8,29.46,NE,44,12.0,14.0,90,0.00,,CLR,0.00,VWS V14.01,2013-09-15 01:27:00,
2013-09-14 21:28:00,79.0,75.8,29.46,NE,34,6.0,16.0,90,0.00,,CLR,0.00,VWS V14.01,2013-09-15 01:28:00,
2013-09-14 21:29:00,79.0,75.8,29.52,ENE,64,11.0,14.0,90,0.00,,CLR,0.00,VWS V14.01,2013-09-15 01:29:00,
2013-09-14 21:30:00,79.0,75.8,29.52,ENE,70,7.0,14.0,90,0.00,,CLR,0.00,VWS V14.01,2013-09-15 01:30:00,
2013-09-14 21:31:00,79.0,75.8,29.52,ENE,61,7.0,14.0,90,0.00,,CLR,0.00,VWS V14.01,2013-09-15 01:31:00,
2013-09-14 21:32:00,79.0,75.8,29.52,NE,42,9.0,10.0,90,0.00,,CLR,0.00,VWS V14.01,2013-09-15 01:32:00,
2013-09-14 21:33:00,79.0,75.8,29.52,ENE,67,5.0,12.0,90,0.00,,CLR,0.00,VWS V14.01,2013-09-15 01:33:00,
2013-09-14 21:34:00,79.0,75.8,29.52,NE,40,11.0,13.0,90,0.00,,CLR,0.00,VWS V14.01,2013-09-15 01:34:00,
2013-09-14 21:35:00,79.0,75.8,29.52,NE,53,14.0,14.0,90,0.00,,CLR,0.00,VWS V14.01,2013-09-15 01:35:00,
2013-09-14 21:36:00,79.0,75.8,29.52,NE,47,5.0,14.0,90,0.00,,CLR,0.00,VWS V14.01,2013-09-15 01:36:00,
2013-09-14 21:37:00,79.0,75.8,29.52,ENE,68,12.0,15.0,90,0.00,,CLR,0.00,VWS V14.01,2013-09-15 01:37:00,
2013-09-14 21:38:00,79.0,75.8,29.52,ENE,57,16.0,16.0,90,0.00,,CLR,0.00,VWS V14.01,2013-09-15 01:38:00,
2013-09-14 21:39:00,79.0,75.8,29.55,ENE,71,14.0,14.0,90,0.00,,BKN065,0.00,VWS V14.01,2013-09-15 01:39:00,
2013-09-14 21:40:00,79.0,75.8,29.55,NE,51,13.0,14.0,90,0.00,,CLR,0.00,VWS V14.01,2013-09-15 01:40:00,
2013-09-14 21:41:00,79.0,75.8,29.55,NE,55,14.0,17.0,90,0.00,,CLR,0.00,VWS V14.01,2013-09-15 01:41:00,
2013-09-14 21:42:00,79.0,75.8,29.59,ENE,61,7.0,14.0,90,0.00,,CLR,0.00,VWS V14.01,2013-09-15 01:42:00,
2013-09-14 21:43:00,79.0,75.8,29.59,NE,49,14.0,24.0,90,0.00,,CLR,0.00,VWS V14.01,2013-09-15 01:43:00,
2013-09-14 21:44:00,79.0,75.8,29.59,ENE,64,5.0,11.0,90,0.00,,BKN065,0.00,VWS V14.01,2013-09-15 01:44:00,
2013-09-14 21:45:00,79.0,75.8,29.59,NE,52,11.0,11.0,90,0.00,,CLR,0.00,VWS V14.01,2013-09-15 01:45:00,
2013-09-14 21:46:00,79.0,75.8,29.53,NE,42,10.0,20.0,90,0.00,,CLR,0.00,VWS V14.01,2013-09-15 01:46:00,
2013-09-14 21:47:00,79.0,75.8,29.53,NE,45,12.0,12.0,90,0.00,,CLR,0.00,VWS V14.01,2013-09-15 01:47:00,
2013-09-14 21:48:00,79.2,76.0,29.51,ENE,58,19.0,19.0,90,0.00,,BKN065,0.00,VWS V14.01,2013-09-15 01:48:00,
2013-09-14 21:49:00,79.2,76.0,29.51,ENE,60,10.0,16.0,90,0.00,,CLR,0.00,VWS V14.01,2013-09-15 01:49:00,
2013-09-14 21:50:00,79.2,76.0,29.52,NE,35,10.0,19.0,90,0.00,,CLR,0.00,VWS V14.01,2013-09-15 01:50:00,
2013-09-14 21:51:00,79.2,76.0,29.52,NE,42,11.0,16.0,90,0.00,,CLR,0.00,VWS V14.01,2013-09-15 01:51:00,
2013-09-14 21:52:00,79.2,76.0,29.52,ENE,60,15.0,16.0,90,0.00,,CLR,0.00,VWS V14.01,2013-09-15 01:52:00,
2013-09-14 21:53:00,79.0,75.8,29.54,NE,48,16.0,16.0,90,0.00,,CLR,0.00,VWS V14.01,2013-09-15 01:53:00,
2013-09-14 21:54:00,79.0,75.8,29.54,ENE,66,12.0,12.0,90,0.00,,BKN065,0.00,VWS V14.01,2013-09-15 01:54:00,
2013-09-14 21:55:00,79.0,75.8,29.54,ENE,61,16.0,16.0,90,0.00,,CLR,0.00,VWS V14.01,2013-09-15 01:55:00,
2013-09-14 21:56:00,79.2,76.0,29.54,NNE,32,11.0,21.0,90,0.00,,CLR,0.00,VWS V14.01,2013-09-15 01:56:00,
2013-09-14 21:57:00,79.0,75.8,29.43,ENE,73,4.0,14.0,90,0.00,,CLR,0.00,VWS V14.01,2013-09-15 01:57:00,
2013-09-14 21:58:00,79.2,76.0,29.43,ENE,66,19.0,19.0,90,0.00,,CLR,0.00,VWS V14.01,2013-09-15 01:58:00,
2013-09-14 21:59:00,79.2,76.0,29.43,NE,51,11.0,18.0,90,0.00,,BKN065,0.00,VWS V14.01,2013-09-15 01:59:00,
2013-09-14 22:00:00,79.2,76.0,29.43,NE,46,5.0,18.0,90,0.00,,CLR,0.00,VWS V14.01,2013-09-15 02:00:00,
2013-09-14 22:01:00,79.2,76.0,29.43,ENE,64,13.0,16.0,90,0.00,,CLR,0.00,VWS V14.01,2013-09-15 02:01:00,
2013-09-14 22:02:00,79.2,76.0,29.43,NE,48,11.0,16.0,90,0.00,,CLR,0.00,VWS V14.01,2013-09-15 02:02:00,
2013-09-14 22:03:00,79.2,76.0,29.43,ENE,58,12.0,12.0,90,0.00,,CLR,0.00,VWS V14.01,2013-09-15 02:03:00,
2013-09-14 22:04:00,79.2,76.0,29.50,NE,42,13.0,13.0,90,0.00,,BKN065,0.00,VWS V14.01,2013-09-15 02:04:00,
2013-09-14 22:05:00,79.2,76.0,29.50,ENE,59,10.0,13.0,90,0.00,,CLR,0.00,VWS V14.01,2013-09-15 02:05:00,
2013-09-14 22:06:00,79.2,76.0,29.48,ENE,71,12.0,13.0,90,0.00,,CLR,0.00,VWS V14.01,2013-09-15 02:06:00,
2013-09-14 22:07:00,79.2,76.0,29.48,NE,47,13.0,13.0,90,0.00,,CLR,0.00,VWS V14.01,2013-09-15 02:07:00,
2013-09-14 22:08:00,79.2,76.0,29.48,ENE,63,6.0,17.0,90,0.00,,CLR,0.00,VWS V14.01,2013-09-15 02:08:00,
2013-09-14 22:09:00,79.2,76.0,29.48,NE,53,15.0,15.0,90,0.00,,BKN065,0.00,VWS V14.01,2013-09-15 02:09:00,
2013-09-14 22:10:00,79.2,76.0,29.48,NE,52,16.0,16.0,90,0.00,,CLR,0.00,VWS V14.01,2013-09-15 02:10:00,
2013-09-14 22:11:00,79.2,76.0,29.48,NNE,28,5.0,16.0,90,0.00,,CLR,0.00,VWS V14.01,2013-09-15 02:11:00,
2013-09-14 22:12:00,79.2,76.0,29.48,NE,44,13.0,17.0,90,0.00,,CLR,0.00,VWS V14.01,2013-09-15 02:12:00,
2013-09-14 22:13:00,79.2,76.0,29.48,ENE,59,11.0,13.0,90,0.00,,CLR,0.00,VWS V14.01,2013-09-15 02:13:00,
2013-09-14 22:14:00,79.4,76.2,29.48,ENE,58,8.0,13.0,90,0.00,,BKN065,0.00,VWS V14.01,2013-09-15 02:14:00,
2013-09-14 22:15:00,79.4,76.2,29.48,ENE,63,14.0,14.0,90,0.00,,CLR,0.00,VWS V14.01,2013-09-15 02:15:00,
2013-09-14 22:16:00,79.4,76.2,29.48,ENE,63,10.0,17.0,90,0.00,,CLR,0.00,VWS V14.01,2013-09-15 02:16:00,
2013-09-14 22:17:00,79.4,76.2,29.48,NE,51,15.0,15.0,90,0.00,,CLR,0.00,VWS V14.01,2013-09-15 02:17:00,
2013-09-14 22:18:00,79.2,75.7,29.54,NE,50,11.0,13.0,89,0.00,,BKN065,0.00,VWS V14.01,2013-09-15 02:18:00,
2013-09-14 22:19:00,79.4,76.2,29.54,NE,53,13.0,20.0,90,0.00,,CLR,0.00,VWS V14.01,2013-09-15 02:19:00,
2013-09-14 22:20:00,79.2,75.7,29.54,ENE,61,7.0,13.0,89,0.00,,CLR,0.00,VWS V14.01,2013-09-15 02:20:00,
2013-09-14 22:21:00,79.2,75.7,29.54,NE,40,12.0,15.0,89,0.00,,CLR,0.00,VWS V14.01,2013-09-15 02:21:00,
2013-09-14 22:22:00,79.2,75.7,29.56,ENE,65,13.0,13.0,89,0.00,,CLR,0.00,VWS V14.01,2013-09-15 02:22:00,
2013-09-14 22:23:00,79.4,75.9,29.55,NE,51,12.0,15.0,89,0.00,,BKN065,0.00,VWS V14.01,2013-09-15 02:23:00,
2013-09-14 22:24:00,79.2,75.7,29.55,ENE,60,7.0,14.0,89,0.00,,CLR,0.00,VWS V14.01,2013-09-15 02:24:00,
2013-09-14 22:25:00,79.4,75.9,29.55,NE,49,11.0,15.0,89,0.00,,CLR,0.00,VWS V14.01,2013-09-15 02:25:00,
2013-09-14 22:26:00,79.4,75.9,29.55,NE,44,12.0,16.0,89,0.00,,CLR,0.00,VWS V14.01,2013-09-15 02:26:00,
2013-09-14 22:27:00,79.4,75.9,29.53,NE,51,9.0,13.0,89,0.00,,CLR,0.00,VWS V14.01,2013-09-15 02:27:00,
2013-09-14 22:28:00,79.4,75.9,29.55,NE,48,11.0,15.0,89,0.00,,BKN065,0.00,VWS V14.01,2013-09-15 02:28:00,
2013-09-14 22:29:00,79.4,75.9,29.55,ENE,62,15.0,17.0,89,0.00,,CLR,0.00,VWS V14.01,2013-09-15 02:29:00,
2013-09-14 22:30:00,79.4,75.9,29.55,ENE,57,15.0,15.0,89,0.00,,CLR,0.00,VWS V14.01,2013-09-15 02:30:00,
2013-09-14 22:31:00,79.4,75.9,29.57,ENE,65,9.0,18.0,89,0.00,,CLR,0.00,VWS V14.01,2013-09-15 02:31:00,
2013-09-14 22:32:00,79.4,75.9,29.56,ENE,63,9.0,14.0,89,0.00,,CLR,0.00,VWS V14.01,2013-09-15 02:32:00,
2013-09-14 22:33:00,79.4,75.9,29.56,NE,53,14.0,14.0,89,0.00,,BKN065,0.00,VWS V14.01,2013-09-15 02:33:00,
2013-09-14 22:34:00,79.4,75.9,29.56,NE,42,13.0,15.0,89,0.00,,CLR,0.00,VWS V14.01,2013-09-15 02:34:00,
2013-09-14 22:35:00,79.4,75.9,29.56,ENE,63,9.0,14.0,89,0.00,,CLR,0.00,VWS V14.01,2013-09-15 02:35:00,
2013-09-14 22:36:00,79.4,76.2,29.56,NE,55,13.0,13.0,90,0.00,,CLR,0.00,VWS V14.01,2013-09-15 02:36:00,
2013-09-14 22:37:00,79.6,76.1,29.56,ENE,60,13.0,14.0,89,0.00,,CLR,0.00,VWS V14.01,2013-09-15 02:37:00,
2013-09-14 22:38:00,79.4,75.9,29.58,ENE,66,12.0,18.0,89,0.00,,BKN070,0.00,VWS V14.01,2013-09-15 02:38:00,
2013-09-14 22:39:00,79.6,76.1,29.56,ENE,74,18.0,18.0,89,0.00,,CLR,0.00,VWS V14.01,2013-09-15 02:39:00,
2013-09-14 22:40:00,79.4,75.9,29.58,ENE,68,13.0,18.0,89,0.00,,CLR,0.00,VWS V14.01,2013-09-15 02:40:00,
2013-09-14 22:41:00,79.4,75.9,29.60,ENE,58,16.0,16.0,89,0.00,,CLR,0.00,VWS V14.01,2013-09-15 02:41:00,
2013-09-14 22:42:00,79.4,75.9,29.60,ENE,63,14.0,16.0,89,0.00,,CLR,0.00,VWS V14.01,2013-09-15 02:42:00,
2013-09-14 22:43:00,79.6,76.1,29.60,ENE,61,13.0,15.0,89,0.00,,BKN070,0.00,VWS V14.01,2013-09-15 02:43:00,
2013-09-14 22:44:00,79.4,75.9,29.60,ENE,61,13.0,15.0,89,0.00,,CLR,0.00,VWS V14.01,2013-09-15 02:44:00,
2013-09-14 22:45:00,79.6,76.1,29.60,ENE,72,11.0,15.0,89,0.00,,CLR,0.00,VWS V14.01,2013-09-15 02:45:00,
2013-09-14 22:46:00,79.6,76.1,29.60,NE,53,12.0,14.0,89,0.00,,CLR,0.00,VWS V14.01,2013-09-15 02:46:00,
2013-09-14 22:47:00,79.6,76.1,29.60,ENE,74,12.0,14.0,89,0.00,,CLR,0.00,VWS V14.01,2013-09-15 02:47:00,
2013-09-14 22:48:00,79.6,76.1,29.60,ENE,67,14.0,14.0,89,0.00,,BKN070,0.00,VWS V14.01,2013-09-15 02:48:00,
2013-09-14 22:49:00,79.6,76.1,29.60,NE,40,13.0,16.0,89,0.00,,CLR,0.00,VWS V14.01,2013-09-15 02:49:00,
2013-09-14 22:50:00,79.6,76.1,29.60,NE,51,16.0,16.0,89,0.00,,CLR,0.00,VWS V14.01,2013-09-15 02:50:00,
2013-09-14 22:51:00,79.6,76.1,29.60,ENE,72,14.0,16.0,89,0.00,,CLR,0.00,VWS V14.01,2013-09-15 02:51:00,
2013-09-14 22:52:00,79.6,76.1,29.42,ENE,69,12.0,15.0,89,0.00,,CLR,0.00,VWS V14.01,2013-09-15 02:52:00,
2013-09-14 22:53:00,79.6,76.1,29.42,ENE,74,12.0,12.0,89,0.00,,BKN070,0.00,VWS V14.01,2013-09-15 02:53:00,
2013-09-14 22:54:00,79.6,76.1,29.42,ENE,57,6.0,13.0,89,0.00,,CLR,0.00,VWS V14.01,2013-09-15 02:54:00,
2013-09-14 22:55:00,79.6,76.1,29.42,NE,36,9.0,13.0,89,0.00,,CLR,0.00,VWS V14.01,2013-09-15 02:55:00,
2013-09-14 22:56:00,79.6,76.1,29.42,NE,52,14.0,15.0,89,0.00,,CLR,0.00,VWS V14.01,2013-09-15 02:56:00,
2013-09-14 22:57:00,79.6,76.1,29.42,ENE,58,15.0,16.0,89,0.00,,CLR,0.00,VWS V14.01,2013-09-15 02:57:00,
2013-09-14 22:58:00,79.6,76.1,29.42,ENE,57,14.0,14.0,89,0.00,,BKN070,0.00,VWS V14.01,2013-09-15 02:58:00,
2013-09-14 22:59:00,79.6,76.1,29.42,NE,47,14.0,18.0,89,0.00,,CLR,0.00,VWS V14.01,2013-09-15 02:59:00,
2013-09-14 23:00:00,79.6,76.1,29.42,ENE,57,13.0,14.0,89,0.00,,CLR,0.00,VWS V14.01,2013-09-15 03:00:00,
2013-09-14 23:01:00,79.6,76.1,29.42,NE,35,17.0,18.0,89,0.00,,CLR,0.00,VWS V14.01,2013-09-15 03:01:00,
2013-09-14 23:02:00,79.4,75.9,29.42,East,81,14.0,17.0,89,0.00,,CLR,0.00,VWS V14.01,2013-09-15 03:02:00,
2013-09-14 23:03:00,79.4,75.9,29.42,ENE,59,14.0,20.0,89,0.00,,BKN070,0.00,VWS V14.01,2013-09-15 03:03:00,
2013-09-14 23:04:00,79.4,75.9,29.42,NE,49,11.0,18.0,89,0.00,,CLR,0.00,VWS V14.01,2013-09-15 03:04:00,
2013-09-14 23:05:00,79.4,75.9,29.42,NE,55,12.0,20.0,89,0.00,,CLR,0.00,VWS V14.01,2013-09-15 03:05:00,
2013-09-14 23:06:00,79.4,75.9,29.42,NE,53,14.0,14.0,89,0.00,,CLR,0.00,VWS V14.01,2013-09-15 03:06:00,
2013-09-14 23:07:00,79.4,75.9,29.42,ENE,63,20.0,20.0,89,0.00,,CLR,0.00,VWS V14.01,2013-09-15 03:07:00,
2013-09-14 23:08:00,79.4,75.9,29.39,ENE,59,16.0,16.0,89,0.00,,BKN070,0.00,VWS V14.01,2013-09-15 03:08:00,
2013-09-14 23:09:00,79.4,75.9,29.39,NE,44,15.0,18.0,89,0.00,,CLR,0.00,VWS V14.01,2013-09-15 03:09:00,
2013-09-14 23:10:00,79.4,75.9,29.39,ENE,77,18.0,18.0,89,0.00,,CLR,0.00,VWS V14.01,2013-09-15 03:10:00,
2013-09-14 23:11:00,79.4,75.9,29.39,NE,46,12.0,18.0,89,0.00,,CLR,0.00,VWS V14.01,2013-09-15 03:11:00,
2013-09-14 23:12:00,79.4,75.9,29.39,NE,49,11.0,18.0,89,0.00,,CLR,0.00,VWS V14.01,2013-09-15 03:12:00,
2013-09-14 23:13:00,79.4,75.9,29.39,NE,53,11.0,14.0,89,0.00,,BKN070,0.00,VWS V14.01,2013-09-15 03:13:00,
2013-09-14 23:14:00,79.4,75.9,29.39,ENE,66,14.0,16.0,89,0.00,,CLR,0.00,VWS V14.01,2013-09-15 03:14:00,
2013-09-14 23:15:00,79.4,75.9,29.39,ENE,67,14.0,14.0,89,0.00,,CLR,0.00,VWS V14.01,2013-09-15 03:15:00,
2013-09-14 23:16:00,79.4,76.2,29.39,NE,55,15.0,15.0,90,0.00,,CLR,0.00,VWS V14.01,2013-09-15 03:16:00,
2013-09-14 23:17:00,79.6,76.4,29.39,ENE,60,13.0,16.0,90,0.00,,CLR,0.00,VWS V14.01,2013-09-15 03:17:00,
2013-09-14 23:18:00,79.6,76.1,28.81,NE,55,11.0,13.0,89,0.00,,BKN070,0.00,VWS V14.01,2013-09-15 03:18:00,
2013-09-14 23:19:00,79.6,76.1,28.81,ENE,74,13.0,19.0,89,0.00,,CLR,0.00,VWS V14.01,2013-09-15 03:19:00,
2013-09-14 23:20:00,79.6,76.4,28.81,ENE,64,12.0,13.0,90,0.00,,CLR,0.00,VWS V14.01,2013-09-15 03:20:00,
2013-09-14 23:21:00,79.6,76.4,28.81,ENE,67,9.0,12.0,90,0.00,,CLR,0.00,VWS V14.01,2013-09-15 03:21:00,
2013-09-14 23:22:00,79.6,76.4,28.81,ENE,61,18.0,18.0,90,0.00,,CLR,0.00,VWS V14.01,2013-09-15 03:22:00,
2013-09-14 23:23:00,79.4,76.2,28.81,East,86,6.0,13.0,90,0.00,,BKN070,0.00,VWS V14.01,2013-09-15 03:23:00,
2013-09-14 23:24:00,79.4,76.2,28.81,NE,51,13.0,18.0,90,0.00,,CLR,0.00,VWS V14.01,2013-09-15 03:24:00,
2013-09-14 23:25:00,79.4,76.2,28.81,ENE,61,6.0,13.0,90,0.00,,CLR,0.00,VWS V14.01,2013-09-15 03:25:00,
2013-09-14 23:26:00,79.6,76.4,28.81,NE,49,11.0,14.0,90,0.00,,CLR,0.00,VWS V14.01,2013-09-15 03:26:00,
2013-09-14 23:27:00,79.6,76.4,28.81,ENE,68,11.0,16.0,90,0.00,,CLR,0.00,VWS V14.01,2013-09-15 03:27:00,
2013-09-14 23:28:00,79.6,76.4,28.33,NE,55,14.0,15.0,90,0.00,,BKN070,0.00,VWS V14.01,2013-09-15 03:28:00,
2013-09-14 23:29:00,79.6,76.4,28.33,NE,52,8.0,17.0,90,0.00,,CLR,0.00,VWS V14.01,2013-09-15 03:29:00,
2013-09-14 23:30:00,79.6,76.4,28.33,NE,45,10.0,15.0,90,0.00,,CLR,0.00,VWS V14.01,2013-09-15 03:30:00,
2013-09-14 23:31:00,79.4,76.2,28.33,ENE,59,14.0,15.0,90,0.00,,CLR,0.00,VWS V14.01,2013-09-15 03:31:00,
2013-09-14 23:32:00,79.4,76.2,28.33,ENE,60,19.0,19.0,90,0.00,,CLR,0.00,VWS V14.01,2013-09-15 03:32:00,
2013-09-14 23:33:00,79.4,76.2,28.52,NE,48,13.0,13.0,90,0.00,,BKN070,0.00,VWS V14.01,2013-09-15 03:33:00,
2013-09-14 23:34:00,79.4,76.2,28.52,ENE,57,10.0,15.0,90,0.00,,CLR,0.00,VWS V14.01,2013-09-15 03:34:00,
2013-09-14 23:35:00,79.4,76.2,28.52,ENE,66,9.0,13.0,90,0.00,,CLR,0.00,VWS V14.01,2013-09-15 03:35:00,
2013-09-14 23:36:00,79.4,76.2,28.52,NE,56,12.0,14.0,90,0.00,,CLR,0.00,VWS V14.01,2013-09-15 03:36:00,
2013-09-14 23:37:00,79.4,76.2,28.52,NE,54,14.0,16.0,90,0.00,,CLR,0.00,VWS V14.01,2013-09-15 03:37:00,
2013-09-14 23:38:00,79.4,76.2,28.52,ENE,65,17.0,18.0,90,0.00,,FEW038,0.00,VWS V14.01,2013-09-15 03:38:00,
2013-09-14 23:39:00,79.4,76.2,28.52,ENE,64,18.0,18.0,90,0.00,,CLR,0.00,VWS V14.01,2013-09-15 03:39:00,
2013-09-14 23:40:00,79.6,76.4,28.52,ENE,60,12.0,18.0,90,0.00,,CLR,0.00,VWS V14.01,2013-09-15 03:40:00,
2013-09-14 23:41:00,79.6,76.4,28.52,ENE,63,7.0,12.0,90,0.00,,CLR,0.00,VWS V14.01,2013-09-15 03:41:00,
2013-09-14 23:42:00,79.6,76.4,28.37,ENE,63,13.0,13.0,90,0.00,,CLR,0.00,VWS V14.01,2013-09-15 03:42:00,
2013-09-14 23:43:00,79.6,76.4,28.17,ENE,71,7.0,13.0,90,0.00,,FEW038,0.00,VWS V14.01,2013-09-15 03:43:00,
2013-09-14 23:44:00,79.6,76.4,28.17,ENE,73,13.0,15.0,90,0.00,,CLR,0.00,VWS V14.01,2013-09-15 03:44:00,
2013-09-14 23:45:00,79.6,76.4,28.17,ENE,68,13.0,13.0,90,0.00,,CLR,0.00,VWS V14.01,2013-09-15 03:45:00,
2013-09-14 23:46:00,79.6,76.4,28.17,ENE,63,12.0,13.0,90,0.00,,CLR,0.00,VWS V14.01,2013-09-15 03:46:00,
2013-09-14 23:47:00,79.4,76.2,28.15,ENE,65,14.0,14.0,90,0.00,,CLR,0.00,VWS V14.01,2013-09-15 03:47:00,
2013-09-14 23:48:00,79.4,76.2,28.15,ENE,63,14.0,15.0,90,0.00,,FEW038,0.00,VWS V14.01,2013-09-15 03:48:00,
2013-09-14 23:49:00,79.4,76.2,28.15,NNE,33,12.0,14.0,90,0.00,,CLR,0.00,VWS V14.01,2013-09-15 03:49:00,
2013-09-14 23:50:00,79.4,76.2,28.15,NE,46,17.0,17.0,90,0.00,,CLR,0.00,VWS V14.01,2013-09-15 03:50:00,
2013-09-14 23:51:00,79.4,76.2,28.15,ENE,69,11.0,17.0,90,0.00,,CLR,0.00,VWS V14.01,2013-09-15 03:51:00,
2013-09-14 23:52:00,79.6,76.4,28.15,NE,55,11.0,11.0,90,0.00,,CLR,0.00,VWS V14.01,2013-09-15 03:52:00,
2013-09-14 23:53:00,79.4,76.2,28.15,ENE,66,10.0,10.0,90,0.00,,FEW038,0.00,VWS V14.01,2013-09-15 03:53:00,
2013-09-14 23:54:00,79.6,76.4,28.15,NE,52,9.0,15.0,90,0.00,,CLR,0.00,VWS V14.01,2013-09-15 03:54:00,
2013-09-14 23:55:00,79.4,76.2,28.15,ENE,68,16.0,16.0,90,0.00,,CLR,0.00,VWS V14.01,2013-09-15 03:55:00,
2013-09-14 23:56:00,79.4,76.2,28.15,NE,49,11.0,16.0,90,0.00,,CLR,0.00,VWS V14.01,2013-09-15 03:56:00,
2013-09-14 23:57:00,79.4,76.2,28.15,ENE,62,13.0,15.0,90,0.00,,CLR,0.00,VWS V14.01,2013-09-15 03:57:00,
2013-09-14 23:58:00,79.4,76.2,28.15,NE,51,11.0,11.0,90,0.00,,FEW038,0.00,VWS V14.01,2013-09-15 03:58:00,
2013-09-14 23:59:00,79.4,76.2,28.15,ENE,64,10.0,11.0,90,0.00,,CLR,0.00,VWS V14.01,2013-09-15 03:59:00,